<?xml version="1.0" encoding="UTF-8" standalone="no" ?>
<gpx xmlns="http://www.topografix.com/GPX/1/1" creator="MapSource 6.16.3" version="1.1" xmlns:xsi="http://www.w3.org/2001/XMLSchema-instance" xsi:schemaLocation="http://www.topografix.com/GPX/1/1 http://www.topografix.com/GPX/1/1/gpx.xsd">

  <metadata>
    <link href="http://www.garmin.com">
      <text>Garmin International</text>
    </link>
    <time>2016-09-15T12:30:28Z</time>
    <bounds maxlat="43.081868346780539" maxlon="11.725235553458333" minlat="43.060331298038363" minlon="11.665747845545411"/>
  </metadata>

  <wpt lat="43.06806025095284" lon="11.724527198821306">
    <ele>500</ele>
    <name>001</name>
    <cmt>06-NOV-04 12:35:56</cmt>
    <desc>06-NOV-04 12:35:56</desc>
    <sym>Waypoint</sym>
    <extensions>
      <gpxx:WaypointExtension xmlns:gpxx="http://www.garmin.com/xmlschemas/GpxExtensions/v3">
        <gpxx:DisplayMode>SymbolAndName</gpxx:DisplayMode>
      </gpxx:WaypointExtension>
    </extensions>
  </wpt>

  <wpt lat="43.064828524366021" lon="11.681304322555661">
    <ele>314</ele>
    <name>002</name>
    <cmt>06-NOV-04 13:15:35</cmt>
    <desc>06-NOV-04 13:15:35</desc>
    <sym>Waypoint</sym>
    <extensions>
      <gpxx:WaypointExtension xmlns:gpxx="http://www.garmin.com/xmlschemas/GpxExtensions/v3">
        <gpxx:DisplayMode>SymbolAndName</gpxx:DisplayMode>
      </gpxx:WaypointExtension>
    </extensions>
  </wpt>

  <wpt lat="43.060332722961903" lon="11.666361400857568">
    <ele>296</ele>
    <name>003</name>
    <cmt>06-NOV-04 13:29:08</cmt>
    <desc>06-NOV-04 13:29:08</desc>
    <sym>Waypoint</sym>
    <extensions>
      <gpxx:WaypointExtension xmlns:gpxx="http://www.garmin.com/xmlschemas/GpxExtensions/v3">
        <gpxx:DisplayMode>SymbolAndName</gpxx:DisplayMode>
      </gpxx:WaypointExtension>
    </extensions>
  </wpt>

  <trk>
    <name>ACTIVE LOG</name>
    <extensions>
      <gpxx:TrackExtension xmlns:gpxx="http://www.garmin.com/xmlschemas/GpxExtensions/v3">
        <gpxx:DisplayColor>DarkGreen</gpxx:DisplayColor>
      </gpxx:TrackExtension>
    </extensions>
    <trkseg>
      <trkpt lat="43.06806025095284" lon="11.724525690078735">
        <ele>500.5035400390625</ele>
        <time>2004-11-06T10:35:24Z</time>
      </trkpt>
      <trkpt lat="43.067952208220959" lon="11.72454790212214">
        <ele>501.46484375</ele>
        <time>2004-11-06T10:36:19Z</time>
      </trkpt>
      <trkpt lat="43.067856151610613" lon="11.724604982882738">
        <ele>500.5035400390625</ele>
        <time>2004-11-06T10:36:21Z</time>
      </trkpt>
      <trkpt lat="43.067733272910118" lon="11.724742781370878">
        <ele>500.02294921875</ele>
        <time>2004-11-06T10:36:23Z</time>
      </trkpt>
      <trkpt lat="43.067603688687086" lon="11.724858786910772">
        <ele>497.138916015625</ele>
        <time>2004-11-06T10:36:25Z</time>
      </trkpt>
      <trkpt lat="43.06751249358058" lon="11.724936319515109">
        <ele>496.177734375</ele>
        <time>2004-11-06T10:36:27Z</time>
      </trkpt>
      <trkpt lat="43.067413000389934" lon="11.725025419145823">
        <ele>495.2161865234375</ele>
        <time>2004-11-06T10:36:30Z</time>
      </trkpt>
      <trkpt lat="43.067339323461056" lon="11.725093144923449">
        <ele>494.735595703125</ele>
        <time>2004-11-06T10:36:35Z</time>
      </trkpt>
      <trkpt lat="43.067262377589941" lon="11.725165229290724">
        <ele>493.2935791015625</ele>
        <time>2004-11-06T10:36:40Z</time>
      </trkpt>
      <trkpt lat="43.067158358171582" lon="11.725235553458333">
        <ele>491.8516845703125</ele>
        <time>2004-11-06T10:36:43Z</time>
      </trkpt>
      <trkpt lat="43.067079987376928" lon="11.725163469091058">
        <ele>489.9290771484375</ele>
        <time>2004-11-06T10:37:00Z</time>
      </trkpt>
      <trkpt lat="43.067033970728517" lon="11.724998848512769">
        <ele>488.9677734375</ele>
        <time>2004-11-06T10:37:04Z</time>
      </trkpt>
      <trkpt lat="43.066994911059737" lon="11.724820733070374">
        <ele>488.4871826171875</ele>
        <time>2004-11-06T10:37:07Z</time>
      </trkpt>
      <trkpt lat="43.06696473620832" lon="11.724678911268711">
        <ele>487.525634765625</ele>
        <time>2004-11-06T10:37:09Z</time>
      </trkpt>
      <trkpt lat="43.066926347091794" lon="11.724518649280071">
        <ele>486.083740234375</ele>
        <time>2004-11-06T10:37:11Z</time>
      </trkpt>
      <trkpt lat="43.066874630749226" lon="11.724357716739178">
        <ele>484.641845703125</ele>
        <time>2004-11-06T10:37:13Z</time>
      </trkpt>
      <trkpt lat="43.066723505035043" lon="11.724235005676746">
        <ele>483.1998291015625</ele>
        <time>2004-11-06T10:37:15Z</time>
      </trkpt>
      <trkpt lat="43.06657481007278" lon="11.724118078127503">
        <ele>481.2772216796875</ele>
        <time>2004-11-06T10:37:17Z</time>
      </trkpt>
      <trkpt lat="43.066448662430048" lon="11.724018836393952">
        <ele>479.8350830078125</ele>
        <time>2004-11-06T10:37:19Z</time>
      </trkpt>
      <trkpt lat="43.066325448453426" lon="11.723930742591619">
        <ele>478.8739013671875</ele>
        <time>2004-11-06T10:37:21Z</time>
      </trkpt>
      <trkpt lat="43.066200390458107" lon="11.72384231351316">
        <ele>476.9512939453125</ele>
        <time>2004-11-06T10:37:23Z</time>
      </trkpt>
      <trkpt lat="43.066072650253773" lon="11.7237504478544">
        <ele>475.9898681640625</ele>
        <time>2004-11-06T10:37:25Z</time>
      </trkpt>
      <trkpt lat="43.065938707441092" lon="11.723640644922853">
        <ele>474.5479736328125</ele>
        <time>2004-11-06T10:37:27Z</time>
      </trkpt>
      <trkpt lat="43.065801160410047" lon="11.723542409017682">
        <ele>472.1446533203125</ele>
        <time>2004-11-06T10:37:29Z</time>
      </trkpt>
      <trkpt lat="43.065666211768985" lon="11.723457500338554">
        <ele>471.183349609375</ele>
        <time>2004-11-06T10:37:31Z</time>
      </trkpt>
      <trkpt lat="43.065545680001378" lon="11.723371669650078">
        <ele>471.183349609375</ele>
        <time>2004-11-06T10:37:33Z</time>
      </trkpt>
      <trkpt lat="43.065432356670499" lon="11.723283743485808">
        <ele>470.70263671875</ele>
        <time>2004-11-06T10:37:35Z</time>
      </trkpt>
      <trkpt lat="43.065327331423759" lon="11.723209396004677">
        <ele>469.7413330078125</ele>
        <time>2004-11-06T10:37:37Z</time>
      </trkpt>
      <trkpt lat="43.065228005871177" lon="11.723142676055431">
        <ele>469.2607421875</ele>
        <time>2004-11-06T10:37:39Z</time>
      </trkpt>
      <trkpt lat="43.065126668661833" lon="11.723075117915869">
        <ele>468.780029296875</ele>
        <time>2004-11-06T10:37:41Z</time>
      </trkpt>
      <trkpt lat="43.065022733062506" lon="11.722997836768627">
        <ele>468.780029296875</ele>
        <time>2004-11-06T10:37:43Z</time>
      </trkpt>
      <trkpt lat="43.06492030620575" lon="11.722917538136244">
        <ele>468.780029296875</ele>
        <time>2004-11-06T10:37:45Z</time>
      </trkpt>
      <trkpt lat="43.064816202968359" lon="11.722834808751941">
        <ele>468.29931640625</ele>
        <time>2004-11-06T10:37:47Z</time>
      </trkpt>
      <trkpt lat="43.064713440835476" lon="11.722739757969975">
        <ele>467.338134765625</ele>
        <time>2004-11-06T10:37:50Z</time>
      </trkpt>
      <trkpt lat="43.064732383936644" lon="11.722628278657794">
        <ele>466.376708984375</ele>
        <time>2004-11-06T10:39:01Z</time>
      </trkpt>
      <trkpt lat="43.064817795529962" lon="11.722584357485175">
        <ele>466.376708984375</ele>
        <time>2004-11-06T10:39:05Z</time>
      </trkpt>
      <trkpt lat="43.064919048920274" lon="11.722513698041439">
        <ele>465.8961181640625</ele>
        <time>2004-11-06T10:39:10Z</time>
      </trkpt>
      <trkpt lat="43.065017284825444" lon="11.722436081618071">
        <ele>464.4541015625</ele>
        <time>2004-11-06T10:39:13Z</time>
      </trkpt>
      <trkpt lat="43.06512457318604" lon="11.722372295334935">
        <ele>463.973388671875</ele>
        <time>2004-11-06T10:39:16Z</time>
      </trkpt>
      <trkpt lat="43.065236639231443" lon="11.722302557900548">
        <ele>462.5313720703125</ele>
        <time>2004-11-06T10:39:19Z</time>
      </trkpt>
      <trkpt lat="43.06535080075264" lon="11.722233323380351">
        <ele>461.0894775390625</ele>
        <time>2004-11-06T10:39:22Z</time>
      </trkpt>
      <trkpt lat="43.06546957232058" lon="11.722157634794712">
        <ele>460.128173828125</ele>
        <time>2004-11-06T10:39:25Z</time>
      </trkpt>
      <trkpt lat="43.065553056076169" lon="11.722105834633112">
        <ele>459.1668701171875</ele>
        <time>2004-11-06T10:39:27Z</time>
      </trkpt>
      <trkpt lat="43.065639138221741" lon="11.722056968137622">
        <ele>458.20556640625</ele>
        <time>2004-11-06T10:39:29Z</time>
      </trkpt>
      <trkpt lat="43.065727818757296" lon="11.722010783851147">
        <ele>458.20556640625</ele>
        <time>2004-11-06T10:39:31Z</time>
      </trkpt>
      <trkpt lat="43.065831838175654" lon="11.72194984741509">
        <ele>456.7635498046875</ele>
        <time>2004-11-06T10:39:33Z</time>
      </trkpt>
      <trkpt lat="43.065936947241426" lon="11.721880696713924">
        <ele>456.282958984375</ele>
        <time>2004-11-06T10:39:35Z</time>
      </trkpt>
      <trkpt lat="43.066043481230736" lon="11.721816072240472">
        <ele>456.282958984375</ele>
        <time>2004-11-06T10:39:37Z</time>
      </trkpt>
      <trkpt lat="43.066140376031399" lon="11.721761841326952">
        <ele>455.80224609375</ele>
        <time>2004-11-06T10:39:39Z</time>
      </trkpt>
      <trkpt lat="43.066226793453097" lon="11.721716243773699">
        <ele>455.321533203125</ele>
        <time>2004-11-06T10:39:41Z</time>
      </trkpt>
      <trkpt lat="43.066344810649753" lon="11.721652122214437">
        <ele>453.39892578125</ele>
        <time>2004-11-06T10:39:44Z</time>
      </trkpt>
      <trkpt lat="43.066467773169279" lon="11.72159512527287">
        <ele>452.4376220703125</ele>
        <time>2004-11-06T10:39:47Z</time>
      </trkpt>
      <trkpt lat="43.066599704325199" lon="11.721536787226796">
        <ele>451.476318359375</ele>
        <time>2004-11-06T10:39:50Z</time>
      </trkpt>
      <trkpt lat="43.06669944897294" lon="11.721508288756013">
        <ele>450.034423828125</ele>
        <time>2004-11-06T10:39:52Z</time>
      </trkpt>
      <trkpt lat="43.066815873607993" lon="11.721484819427133">
        <ele>448.11181640625</ele>
        <time>2004-11-06T10:39:54Z</time>
      </trkpt>
      <trkpt lat="43.066959036514163" lon="11.721464619040489">
        <ele>447.1502685546875</ele>
        <time>2004-11-06T10:39:56Z</time>
      </trkpt>
      <trkpt lat="43.067090883851051" lon="11.721443077549338">
        <ele>445.2276611328125</ele>
        <time>2004-11-06T10:39:58Z</time>
      </trkpt>
      <trkpt lat="43.067208984866738" lon="11.721423296257854">
        <ele>443.3050537109375</ele>
        <time>2004-11-06T10:40:00Z</time>
      </trkpt>
      <trkpt lat="43.067313842475414" lon="11.721407705917954">
        <ele>442.824462890625</ele>
        <time>2004-11-06T10:40:02Z</time>
      </trkpt>
      <trkpt lat="43.067417610436678" lon="11.721392869949341">
        <ele>442.3438720703125</ele>
        <time>2004-11-06T10:40:04Z</time>
      </trkpt>
      <trkpt lat="43.067525653168559" lon="11.721378955990076">
        <ele>441.3824462890625</ele>
        <time>2004-11-06T10:40:06Z</time>
      </trkpt>
      <trkpt lat="43.067637300118804" lon="11.721349367871881">
        <ele>440.4212646484375</ele>
        <time>2004-11-06T10:40:08Z</time>
      </trkpt>
      <trkpt lat="43.067735033109784" lon="11.721273344010115">
        <ele>438.9791259765625</ele>
        <time>2004-11-06T10:40:10Z</time>
      </trkpt>
      <trkpt lat="43.067816337570548" lon="11.721148705109954">
        <ele>437.537109375</ele>
        <time>2004-11-06T10:40:12Z</time>
      </trkpt>
      <trkpt lat="43.067902168259025" lon="11.721015684306622">
        <ele>435.614501953125</ele>
        <time>2004-11-06T10:40:14Z</time>
      </trkpt>
      <trkpt lat="43.067983137443662" lon="11.720882412046194">
        <ele>433.2113037109375</ele>
        <time>2004-11-06T10:40:16Z</time>
      </trkpt>
      <trkpt lat="43.068078188225627" lon="11.720738746225834">
        <ele>432.25</ele>
        <time>2004-11-06T10:40:18Z</time>
      </trkpt>
      <trkpt lat="43.068176843225956" lon="11.720590889453888">
        <ele>430.3272705078125</ele>
        <time>2004-11-06T10:40:20Z</time>
      </trkpt>
      <trkpt lat="43.068277928978205" lon="11.720442026853561">
        <ele>427.443359375</ele>
        <time>2004-11-06T10:40:22Z</time>
      </trkpt>
      <trkpt lat="43.068381613120437" lon="11.720314705744386">
        <ele>425.0401611328125</ele>
        <time>2004-11-06T10:40:24Z</time>
      </trkpt>
      <trkpt lat="43.068516310304403" lon="11.720187552273273">
        <ele>423.5980224609375</ele>
        <time>2004-11-06T10:40:26Z</time>
      </trkpt>
      <trkpt lat="43.068676320835948" lon="11.72006081789732">
        <ele>421.19482421875</ele>
        <time>2004-11-06T10:40:28Z</time>
      </trkpt>
      <trkpt lat="43.068823842331767" lon="11.719952272251248">
        <ele>417.8302001953125</ele>
        <time>2004-11-06T10:40:30Z</time>
      </trkpt>
      <trkpt lat="43.068966334685683" lon="11.719841128215194">
        <ele>415.907470703125</ele>
        <time>2004-11-06T10:40:32Z</time>
      </trkpt>
      <trkpt lat="43.06912399828434" lon="11.719718584790826">
        <ele>414.9461669921875</ele>
        <time>2004-11-06T10:40:34Z</time>
      </trkpt>
      <trkpt lat="43.069214355200529" lon="11.719658905640244">
        <ele>413.98486328125</ele>
        <time>2004-11-06T10:40:35Z</time>
      </trkpt>
      <trkpt lat="43.069297755137086" lon="11.719596879556775">
        <ele>412.5428466796875</ele>
        <time>2004-11-06T10:40:36Z</time>
      </trkpt>
      <trkpt lat="43.069380903616548" lon="11.719535607844591">
        <ele>411.5816650390625</ele>
        <time>2004-11-06T10:40:37Z</time>
      </trkpt>
      <trkpt lat="43.069530939683318" lon="11.719449944794178">
        <ele>408.6976318359375</ele>
        <time>2004-11-06T10:40:39Z</time>
      </trkpt>
      <trkpt lat="43.069657841697335" lon="11.719372244551778">
        <ele>405.813720703125</ele>
        <time>2004-11-06T10:40:41Z</time>
      </trkpt>
      <trkpt lat="43.069759178906679" lon="11.719249952584505">
        <ele>403.89111328125</ele>
        <time>2004-11-06T10:40:43Z</time>
      </trkpt>
      <trkpt lat="43.069824641570449" lon="11.719057839363813">
        <ele>402.4490966796875</ele>
        <time>2004-11-06T10:40:45Z</time>
      </trkpt>
      <trkpt lat="43.069866802543402" lon="11.718857428058982">
        <ele>400.5264892578125</ele>
        <time>2004-11-06T10:40:47Z</time>
      </trkpt>
      <trkpt lat="43.069897647947073" lon="11.718650395050645">
        <ele>398.1231689453125</ele>
        <time>2004-11-06T10:40:49Z</time>
      </trkpt>
      <trkpt lat="43.069937629625201" lon="11.718428609892726">
        <ele>396.2005615234375</ele>
        <time>2004-11-06T10:40:51Z</time>
      </trkpt>
      <trkpt lat="43.069960931316018" lon="11.718306317925453">
        <ele>395.7198486328125</ele>
        <time>2004-11-06T10:40:52Z</time>
      </trkpt>
      <trkpt lat="43.06998792104423" lon="11.718177320435643">
        <ele>394.758544921875</ele>
        <time>2004-11-06T10:40:53Z</time>
      </trkpt>
      <trkpt lat="43.070018431171775" lon="11.718049747869372">
        <ele>392.3553466796875</ele>
        <time>2004-11-06T10:40:54Z</time>
      </trkpt>
      <trkpt lat="43.07005095295608" lon="11.717930808663368">
        <ele>391.393798828125</ele>
        <time>2004-11-06T10:40:55Z</time>
      </trkpt>
      <trkpt lat="43.070087162777781" lon="11.717809857800603">
        <ele>389.951904296875</ele>
        <time>2004-11-06T10:40:56Z</time>
      </trkpt>
      <trkpt lat="43.070165449753404" lon="11.717563262209296">
        <ele>387.0679931640625</ele>
        <time>2004-11-06T10:40:58Z</time>
      </trkpt>
      <trkpt lat="43.070214819163084" lon="11.717439293861389">
        <ele>385.6259765625</ele>
        <time>2004-11-06T10:40:59Z</time>
      </trkpt>
      <trkpt lat="43.070269469171762" lon="11.717316415160894">
        <ele>384.18408203125</ele>
        <time>2004-11-06T10:41:00Z</time>
      </trkpt>
      <trkpt lat="43.070322861894965" lon="11.717194374650717">
        <ele>381.7806396484375</ele>
        <time>2004-11-06T10:41:01Z</time>
      </trkpt>
      <trkpt lat="43.070371812209487" lon="11.717071244493127">
        <ele>380.3387451171875</ele>
        <time>2004-11-06T10:41:02Z</time>
      </trkpt>
      <trkpt lat="43.070416320115328" lon="11.716945599764585">
        <ele>377.9354248046875</ele>
        <time>2004-11-06T10:41:03Z</time>
      </trkpt>
      <trkpt lat="43.070458145812154" lon="11.716810818761587">
        <ele>376.4935302734375</ele>
        <time>2004-11-06T10:41:04Z</time>
      </trkpt>
      <trkpt lat="43.070497708395123" lon="11.716666733846068">
        <ele>375.5321044921875</ele>
        <time>2004-11-06T10:41:05Z</time>
      </trkpt>
      <trkpt lat="43.070535510778427" lon="11.716515608131886">
        <ele>374.57080078125</ele>
        <time>2004-11-06T10:41:06Z</time>
      </trkpt>
      <trkpt lat="43.070571385324001" lon="11.716369343921542">
        <ele>372.648193359375</ele>
        <time>2004-11-06T10:41:07Z</time>
      </trkpt>
      <trkpt lat="43.070605918765068" lon="11.716235233470798">
        <ele>371.6868896484375</ele>
        <time>2004-11-06T10:41:08Z</time>
      </trkpt>
      <trkpt lat="43.070636512711644" lon="11.716113947331905">
        <ele>370.244873046875</ele>
        <time>2004-11-06T10:41:09Z</time>
      </trkpt>
      <trkpt lat="43.070662077516317" lon="11.716003809124231">
        <ele>368.802978515625</ele>
        <time>2004-11-06T10:41:10Z</time>
      </trkpt>
      <trkpt lat="43.070686301216483" lon="11.715801721438766">
        <ele>365.4383544921875</ele>
        <time>2004-11-06T10:41:12Z</time>
      </trkpt>
      <trkpt lat="43.070657467469573" lon="11.715599466115236">
        <ele>363.996337890625</ele>
        <time>2004-11-06T10:41:14Z</time>
      </trkpt>
      <trkpt lat="43.070571385324001" lon="11.715422188863158">
        <ele>361.5931396484375</ele>
        <time>2004-11-06T10:41:16Z</time>
      </trkpt>
      <trkpt lat="43.070430820807815" lon="11.715272236615419">
        <ele>360.6317138671875</ele>
        <time>2004-11-06T10:41:18Z</time>
      </trkpt>
      <trkpt lat="43.070357060059905" lon="11.715189842507243">
        <ele>359.189697265625</ele>
        <time>2004-11-06T10:41:19Z</time>
      </trkpt>
      <trkpt lat="43.070298219099641" lon="11.715097306296229">
        <ele>357.26708984375</ele>
        <time>2004-11-06T10:41:20Z</time>
      </trkpt>
      <trkpt lat="43.070252873003483" lon="11.714989095926285">
        <ele>355.8251953125</ele>
        <time>2004-11-06T10:41:21Z</time>
      </trkpt>
      <trkpt lat="43.070208113640547" lon="11.714880801737309">
        <ele>355.344482421875</ele>
        <time>2004-11-06T10:41:22Z</time>
      </trkpt>
      <trkpt lat="43.070205766707659" lon="11.714756079018116">
        <ele>354.3831787109375</ele>
        <time>2004-11-06T10:41:23Z</time>
      </trkpt>
      <trkpt lat="43.070220602676272" lon="11.714623142033815">
        <ele>353.421875</ele>
        <time>2004-11-06T10:41:24Z</time>
      </trkpt>
      <trkpt lat="43.070238875225186" lon="11.714501436799765">
        <ele>352.4605712890625</ele>
        <time>2004-11-06T10:41:25Z</time>
      </trkpt>
      <trkpt lat="43.070259829983115" lon="11.714299097657204">
        <ele>351.4991455078125</ele>
        <time>2004-11-06T10:41:27Z</time>
      </trkpt>
      <trkpt lat="43.070260249078274" lon="11.7141317948699">
        <ele>350.537841796875</ele>
        <time>2004-11-06T10:41:29Z</time>
      </trkpt>
      <trkpt lat="43.070253795012832" lon="11.713982345536351">
        <ele>350.537841796875</ele>
        <time>2004-11-06T10:41:31Z</time>
      </trkpt>
      <trkpt lat="43.07024298235774" lon="11.713831471279263">
        <ele>350.537841796875</ele>
        <time>2004-11-06T10:41:33Z</time>
      </trkpt>
      <trkpt lat="43.070224961265922" lon="11.71367003582418">
        <ele>350.0572509765625</ele>
        <time>2004-11-06T10:41:35Z</time>
      </trkpt>
      <trkpt lat="43.070206604897976" lon="11.713499380275607">
        <ele>349.0958251953125</ele>
        <time>2004-11-06T10:41:37Z</time>
      </trkpt>
      <trkpt lat="43.070189841091633" lon="11.713317995890975">
        <ele>349.5765380859375</ele>
        <time>2004-11-06T10:41:39Z</time>
      </trkpt>
      <trkpt lat="43.070173999294639" lon="11.713147005066276">
        <ele>348.615234375</ele>
        <time>2004-11-06T10:41:41Z</time>
      </trkpt>
      <trkpt lat="43.070161174982786" lon="11.713000321760774">
        <ele>347.1732177734375</ele>
        <time>2004-11-06T10:41:43Z</time>
      </trkpt>
      <trkpt lat="43.070152709260583" lon="11.712860008701682">
        <ele>346.692626953125</ele>
        <time>2004-11-06T10:41:45Z</time>
      </trkpt>
      <trkpt lat="43.070139633491635" lon="11.712724305689335">
        <ele>346.2120361328125</ele>
        <time>2004-11-06T10:41:47Z</time>
      </trkpt>
      <trkpt lat="43.070135191082954" lon="11.712577538564801">
        <ele>346.2120361328125</ele>
        <time>2004-11-06T10:41:49Z</time>
      </trkpt>
      <trkpt lat="43.070150194689631" lon="11.712420964613557">
        <ele>345.2506103515625</ele>
        <time>2004-11-06T10:41:51Z</time>
      </trkpt>
      <trkpt lat="43.070191517472267" lon="11.712270425632596">
        <ele>344.77001953125</ele>
        <time>2004-11-06T10:41:53Z</time>
      </trkpt>
      <trkpt lat="43.070256225764751" lon="11.712160790339112">
        <ele>344.77001953125</ele>
        <time>2004-11-06T10:41:55Z</time>
      </trkpt>
      <trkpt lat="43.070343229919672" lon="11.712101530283689">
        <ele>342.8472900390625</ele>
        <time>2004-11-06T10:41:58Z</time>
      </trkpt>
      <trkpt lat="43.070473652333021" lon="11.712072193622589">
        <ele>342.36669921875</ele>
        <time>2004-11-06T10:42:40Z</time>
      </trkpt>
      <trkpt lat="43.070544311776757" lon="11.712091974914074">
        <ele>342.36669921875</ele>
        <time>2004-11-06T10:42:50Z</time>
      </trkpt>
      <trkpt lat="43.070646151900291" lon="11.712152576074004">
        <ele>342.8472900390625</ele>
        <time>2004-11-06T10:45:39Z</time>
      </trkpt>
      <trkpt lat="43.070753524079919" lon="11.712190546095371">
        <ele>343.327880859375</ele>
        <time>2004-11-06T10:45:43Z</time>
      </trkpt>
      <trkpt lat="43.070877492427826" lon="11.712244525551796">
        <ele>342.8472900390625</ele>
        <time>2004-11-06T10:45:47Z</time>
      </trkpt>
      <trkpt lat="43.070967849344015" lon="11.712288614362478">
        <ele>342.8472900390625</ele>
        <time>2004-11-06T10:45:50Z</time>
      </trkpt>
      <trkpt lat="43.071052758023143" lon="11.712334211915731">
        <ele>342.8472900390625</ele>
        <time>2004-11-06T10:45:53Z</time>
      </trkpt>
      <trkpt lat="43.071152837947011" lon="11.712382407858968">
        <ele>342.36669921875</ele>
        <time>2004-11-06T10:45:56Z</time>
      </trkpt>
      <trkpt lat="43.071245206519961" lon="11.712427418678999">
        <ele>342.36669921875</ele>
        <time>2004-11-06T10:45:59Z</time>
      </trkpt>
      <trkpt lat="43.071355512365699" lon="11.712420210242271">
        <ele>342.8472900390625</ele>
        <time>2004-11-06T10:46:02Z</time>
      </trkpt>
      <trkpt lat="43.071462381631136" lon="11.71236983500421">
        <ele>343.327880859375</ele>
        <time>2004-11-06T10:46:05Z</time>
      </trkpt>
      <trkpt lat="43.07154955342412" lon="11.712284758687019">
        <ele>343.327880859375</ele>
        <time>2004-11-06T10:46:08Z</time>
      </trkpt>
      <trkpt lat="43.071628259494901" lon="11.712179565802217">
        <ele>343.327880859375</ele>
        <time>2004-11-06T10:46:12Z</time>
      </trkpt>
      <trkpt lat="43.071573274210095" lon="11.712212674319744">
        <ele>343.327880859375</ele>
        <time>2004-11-06T10:48:21Z</time>
      </trkpt>
      <trkpt lat="43.07146112434566" lon="11.712284339591861">
        <ele>343.327880859375</ele>
        <time>2004-11-06T10:48:25Z</time>
      </trkpt>
      <trkpt lat="43.071335311979055" lon="11.712321974337101">
        <ele>342.8472900390625</ele>
        <time>2004-11-06T10:48:28Z</time>
      </trkpt>
      <trkpt lat="43.07119776494801" lon="11.712296325713396">
        <ele>343.327880859375</ele>
        <time>2004-11-06T10:48:31Z</time>
      </trkpt>
      <trkpt lat="43.071060804650187" lon="11.712261037901044">
        <ele>342.8472900390625</ele>
        <time>2004-11-06T10:48:34Z</time>
      </trkpt>
      <trkpt lat="43.070943374186754" lon="11.712220218032598">
        <ele>343.327880859375</ele>
        <time>2004-11-06T10:48:37Z</time>
      </trkpt>
      <trkpt lat="43.070952342823148" lon="11.712232539430261">
        <ele>342.8472900390625</ele>
        <time>2004-11-06T10:48:49Z</time>
      </trkpt>
      <trkpt lat="43.07102132588625" lon="11.712289284914732">
        <ele>342.8472900390625</ele>
        <time>2004-11-06T10:48:54Z</time>
      </trkpt>
      <trkpt lat="43.071139929816127" lon="11.712347539141774">
        <ele>342.8472900390625</ele>
        <time>2004-11-06T10:48:58Z</time>
      </trkpt>
      <trkpt lat="43.071235818788409" lon="11.712406883016229">
        <ele>343.327880859375</ele>
        <time>2004-11-06T10:49:01Z</time>
      </trkpt>
      <trkpt lat="43.07136288844049" lon="11.712376289069653">
        <ele>343.327880859375</ele>
        <time>2004-11-06T10:49:04Z</time>
      </trkpt>
      <trkpt lat="43.071467326954007" lon="11.712317196652293">
        <ele>344.2894287109375</ele>
        <time>2004-11-06T10:49:07Z</time>
      </trkpt>
      <trkpt lat="43.071530610322952" lon="11.712206387892365">
        <ele>343.327880859375</ele>
        <time>2004-11-06T10:49:10Z</time>
      </trkpt>
      <trkpt lat="43.071585260331631" lon="11.712092142552137">
        <ele>343.80859375</ele>
        <time>2004-11-06T10:49:14Z</time>
      </trkpt>
      <trkpt lat="43.071648543700576" lon="11.711987871676683">
        <ele>344.2894287109375</ele>
        <time>2004-11-06T10:49:18Z</time>
      </trkpt>
      <trkpt lat="43.07171082124114" lon="11.711876140907407">
        <ele>344.2894287109375</ele>
        <time>2004-11-06T10:49:22Z</time>
      </trkpt>
      <trkpt lat="43.07177871465683" lon="11.711748652160168">
        <ele>344.77001953125</ele>
        <time>2004-11-06T10:49:27Z</time>
      </trkpt>
      <trkpt lat="43.071832442656159" lon="11.711626527830958">
        <ele>344.77001953125</ele>
        <time>2004-11-06T10:49:31Z</time>
      </trkpt>
      <trkpt lat="43.071894971653819" lon="11.711485292762518">
        <ele>344.77001953125</ele>
        <time>2004-11-06T10:49:35Z</time>
      </trkpt>
      <trkpt lat="43.071936294436455" lon="11.711372556164861">
        <ele>345.2506103515625</ele>
        <time>2004-11-06T10:49:38Z</time>
      </trkpt>
      <trkpt lat="43.071992872282863" lon="11.711226291954517">
        <ele>345.2506103515625</ele>
        <time>2004-11-06T10:49:42Z</time>
      </trkpt>
      <trkpt lat="43.07204601354897" lon="11.711089499294758">
        <ele>345.2506103515625</ele>
        <time>2004-11-06T10:49:46Z</time>
      </trkpt>
      <trkpt lat="43.072099070996046" lon="11.710963100194931">
        <ele>345.7313232421875</ele>
        <time>2004-11-06T10:49:50Z</time>
      </trkpt>
      <trkpt lat="43.07214324362576" lon="11.710838628932834">
        <ele>346.2120361328125</ele>
        <time>2004-11-06T10:49:55Z</time>
      </trkpt>
      <trkpt lat="43.072112062945962" lon="11.710674092173576">
        <ele>345.2506103515625</ele>
        <time>2004-11-06T10:51:59Z</time>
      </trkpt>
      <trkpt lat="43.072074092924595" lon="11.710544927045703">
        <ele>344.77001953125</ele>
        <time>2004-11-06T10:52:02Z</time>
      </trkpt>
      <trkpt lat="43.07204257696867" lon="11.710428250953555">
        <ele>344.77001953125</ele>
        <time>2004-11-06T10:52:06Z</time>
      </trkpt>
      <trkpt lat="43.072041235864162" lon="11.710420036688447">
        <ele>344.77001953125</ele>
        <time>2004-11-06T10:59:10Z</time>
      </trkpt>
      <trkpt lat="43.072073590010405" lon="11.710546351969242">
        <ele>344.77001953125</ele>
        <time>2004-11-06T10:59:19Z</time>
      </trkpt>
      <trkpt lat="43.07210803963244" lon="11.710665794089437">
        <ele>344.77001953125</ele>
        <time>2004-11-06T10:59:27Z</time>
      </trkpt>
      <trkpt lat="43.072102256119251" lon="11.71065229922533">
        <ele>345.2506103515625</ele>
        <time>2004-11-06T10:59:58Z</time>
      </trkpt>
      <trkpt lat="43.072060514241457" lon="11.710491450503469">
        <ele>344.77001953125</ele>
        <time>2004-11-06T11:00:02Z</time>
      </trkpt>
      <trkpt lat="43.072019945830107" lon="11.71035029925406">
        <ele>344.2894287109375</ele>
        <time>2004-11-06T11:00:05Z</time>
      </trkpt>
      <trkpt lat="43.071979209780693" lon="11.710198000073433">
        <ele>344.2894287109375</ele>
        <time>2004-11-06T11:00:08Z</time>
      </trkpt>
      <trkpt lat="43.071937216445804" lon="11.710041258484125">
        <ele>344.2894287109375</ele>
        <time>2004-11-06T11:00:11Z</time>
      </trkpt>
      <trkpt lat="43.071892959997058" lon="11.709877392277122">
        <ele>343.80859375</ele>
        <time>2004-11-06T11:00:14Z</time>
      </trkpt>
      <trkpt lat="43.071861527860165" lon="11.709759626537561">
        <ele>343.327880859375</ele>
        <time>2004-11-06T11:00:16Z</time>
      </trkpt>
      <trkpt lat="43.071829928085208" lon="11.709635742008686">
        <ele>342.8472900390625</ele>
        <time>2004-11-06T11:00:18Z</time>
      </trkpt>
      <trkpt lat="43.071797993034124" lon="11.709508001804352">
        <ele>342.8472900390625</ele>
        <time>2004-11-06T11:00:20Z</time>
      </trkpt>
      <trkpt lat="43.071764968335629" lon="11.709376322105527">
        <ele>342.36669921875</ele>
        <time>2004-11-06T11:00:22Z</time>
      </trkpt>
      <trkpt lat="43.071731189265847" lon="11.709244223311543">
        <ele>342.36669921875</ele>
        <time>2004-11-06T11:00:24Z</time>
      </trkpt>
      <trkpt lat="43.071694727987051" lon="11.709117237478495">
        <ele>341.885986328125</ele>
        <time>2004-11-06T11:00:26Z</time>
      </trkpt>
      <trkpt lat="43.071660278365016" lon="11.708993939682841">
        <ele>341.885986328125</ele>
        <time>2004-11-06T11:00:28Z</time>
      </trkpt>
      <trkpt lat="43.071625493466854" lon="11.708873994648457">
        <ele>341.4052734375</ele>
        <time>2004-11-06T11:00:30Z</time>
      </trkpt>
      <trkpt lat="43.071589702740312" lon="11.708757653832436">
        <ele>341.4052734375</ele>
        <time>2004-11-06T11:00:32Z</time>
      </trkpt>
      <trkpt lat="43.071539159864187" lon="11.708588758483529">
        <ele>341.4052734375</ele>
        <time>2004-11-06T11:00:35Z</time>
      </trkpt>
      <trkpt lat="43.071488197892904" lon="11.708421790972352">
        <ele>341.4052734375</ele>
        <time>2004-11-06T11:00:38Z</time>
      </trkpt>
      <trkpt lat="43.071457268670201" lon="11.708302600309253">
        <ele>340.9246826171875</ele>
        <time>2004-11-06T11:00:40Z</time>
      </trkpt>
      <trkpt lat="43.071426004171371" lon="11.708176033571362">
        <ele>340.444091796875</ele>
        <time>2004-11-06T11:00:42Z</time>
      </trkpt>
      <trkpt lat="43.071396667510271" lon="11.708042090758681">
        <ele>340.9246826171875</ele>
        <time>2004-11-06T11:00:44Z</time>
      </trkpt>
      <trkpt lat="43.071370515972376" lon="11.707898676395416">
        <ele>340.9246826171875</ele>
        <time>2004-11-06T11:00:46Z</time>
      </trkpt>
      <trkpt lat="43.071346124634147" lon="11.707747550681233">
        <ele>340.9246826171875</ele>
        <time>2004-11-06T11:00:48Z</time>
      </trkpt>
      <trkpt lat="43.071325588971376" lon="11.707598436623812">
        <ele>340.9246826171875</ele>
        <time>2004-11-06T11:00:50Z</time>
      </trkpt>
      <trkpt lat="43.07130522094667" lon="11.707457872107625">
        <ele>340.9246826171875</ele>
        <time>2004-11-06T11:00:52Z</time>
      </trkpt>
      <trkpt lat="43.071285272017121" lon="11.707315128296614">
        <ele>340.444091796875</ele>
        <time>2004-11-06T11:00:54Z</time>
      </trkpt>
      <trkpt lat="43.071248643100262" lon="11.707163499668241">
        <ele>339.0020751953125</ele>
        <time>2004-11-06T11:00:56Z</time>
      </trkpt>
      <trkpt lat="43.071203548461199" lon="11.707003153860569">
        <ele>338.521484375</ele>
        <time>2004-11-06T11:00:58Z</time>
      </trkpt>
      <trkpt lat="43.071151496842504" lon="11.706839874386787">
        <ele>338.040771484375</ele>
        <time>2004-11-06T11:01:00Z</time>
      </trkpt>
      <trkpt lat="43.071091901510954" lon="11.706674667075276">
        <ele>337.56005859375</ele>
        <time>2004-11-06T11:01:02Z</time>
      </trkpt>
      <trkpt lat="43.071029875427485" lon="11.706512561067939">
        <ele>337.0794677734375</ele>
        <time>2004-11-06T11:01:04Z</time>
      </trkpt>
      <trkpt lat="43.070967011153698" lon="11.706351293250918">
        <ele>336.598876953125</ele>
        <time>2004-11-06T11:01:06Z</time>
      </trkpt>
      <trkpt lat="43.070904482156038" lon="11.706201005727053">
        <ele>336.1181640625</ele>
        <time>2004-11-06T11:01:08Z</time>
      </trkpt>
      <trkpt lat="43.070843210443854" lon="11.70605381950736">
        <ele>335.6373291015625</ele>
        <time>2004-11-06T11:01:10Z</time>
      </trkpt>
      <trkpt lat="43.070779256522655" lon="11.705911410972476">
        <ele>336.1181640625</ele>
        <time>2004-11-06T11:01:12Z</time>
      </trkpt>
      <trkpt lat="43.070712201297283" lon="11.705783419311047">
        <ele>336.1181640625</ele>
        <time>2004-11-06T11:01:14Z</time>
      </trkpt>
      <trkpt lat="43.070644224062562" lon="11.705658864229918">
        <ele>335.6373291015625</ele>
        <time>2004-11-06T11:01:16Z</time>
      </trkpt>
      <trkpt lat="43.070578509941697" lon="11.70553145930171">
        <ele>335.15673828125</ele>
        <time>2004-11-06T11:01:18Z</time>
      </trkpt>
      <trkpt lat="43.070505503565073" lon="11.705412436276674">
        <ele>334.6761474609375</ele>
        <time>2004-11-06T11:01:20Z</time>
      </trkpt>
      <trkpt lat="43.070426378399134" lon="11.705290479585528">
        <ele>334.1954345703125</ele>
        <time>2004-11-06T11:01:22Z</time>
      </trkpt>
      <trkpt lat="43.070345325395465" lon="11.705167684704065">
        <ele>333.7147216796875</ele>
        <time>2004-11-06T11:01:24Z</time>
      </trkpt>
      <trkpt lat="43.070265110582113" lon="11.70504966750741">
        <ele>333.7147216796875</ele>
        <time>2004-11-06T11:01:26Z</time>
      </trkpt>
      <trkpt lat="43.070184560492635" lon="11.704928549006581">
        <ele>333.7147216796875</ele>
        <time>2004-11-06T11:01:28Z</time>
      </trkpt>
      <trkpt lat="43.070107195526361" lon="11.704809861257672">
        <ele>333.234130859375</ele>
        <time>2004-11-06T11:01:30Z</time>
      </trkpt>
      <trkpt lat="43.070029243826866" lon="11.704693604260683">
        <ele>333.234130859375</ele>
        <time>2004-11-06T11:01:32Z</time>
      </trkpt>
      <trkpt lat="43.069950118660927" lon="11.704580029472709">
        <ele>333.234130859375</ele>
        <time>2004-11-06T11:01:34Z</time>
      </trkpt>
      <trkpt lat="43.069872921332717" lon="11.704465700313449">
        <ele>332.7535400390625</ele>
        <time>2004-11-06T11:01:36Z</time>
      </trkpt>
      <trkpt lat="43.069796394556761" lon="11.704349694773555">
        <ele>332.2728271484375</ele>
        <time>2004-11-06T11:01:38Z</time>
      </trkpt>
      <trkpt lat="43.069717353209853" lon="11.704226145520806">
        <ele>331.7921142578125</ele>
        <time>2004-11-06T11:01:40Z</time>
      </trkpt>
      <trkpt lat="43.069642502814531" lon="11.704100668430328">
        <ele>331.3115234375</ele>
        <time>2004-11-06T11:01:42Z</time>
      </trkpt>
      <trkpt lat="43.069573184475303" lon="11.703970329836011">
        <ele>330.8309326171875</ele>
        <time>2004-11-06T11:01:44Z</time>
      </trkpt>
      <trkpt lat="43.069506632164121" lon="11.703838566318154">
        <ele>331.3115234375</ele>
        <time>2004-11-06T11:01:46Z</time>
      </trkpt>
      <trkpt lat="43.069441337138414" lon="11.703710239380598">
        <ele>331.3115234375</ele>
        <time>2004-11-06T11:01:48Z</time>
      </trkpt>
      <trkpt lat="43.069394901394844" lon="11.703603537753224">
        <ele>330.8309326171875</ele>
        <time>2004-11-06T11:01:50Z</time>
      </trkpt>
      <trkpt lat="43.069361289963126" lon="11.703481413424015">
        <ele>330.3502197265625</ele>
        <time>2004-11-06T11:01:53Z</time>
      </trkpt>
      <trkpt lat="43.069362714886665" lon="11.703382758423686">
        <ele>330.3502197265625</ele>
        <time>2004-11-06T11:02:49Z</time>
      </trkpt>
      <trkpt lat="43.069295743480325" lon="11.703287623822689">
        <ele>330.8309326171875</ele>
        <time>2004-11-06T11:02:54Z</time>
      </trkpt>
      <trkpt lat="43.069234890863299" lon="11.703190142288804">
        <ele>330.8309326171875</ele>
        <time>2004-11-06T11:02:58Z</time>
      </trkpt>
      <trkpt lat="43.069181414321065" lon="11.703087212517858">
        <ele>331.3115234375</ele>
        <time>2004-11-06T11:03:02Z</time>
      </trkpt>
      <trkpt lat="43.069125339388847" lon="11.702970033511519">
        <ele>332.2728271484375</ele>
        <time>2004-11-06T11:03:07Z</time>
      </trkpt>
      <trkpt lat="43.069063648581505" lon="11.702860230579972">
        <ele>333.234130859375</ele>
        <time>2004-11-06T11:03:12Z</time>
      </trkpt>
      <trkpt lat="43.068999610841274" lon="11.702746152877808">
        <ele>334.1954345703125</ele>
        <time>2004-11-06T11:03:17Z</time>
      </trkpt>
      <trkpt lat="43.068933561444283" lon="11.702632494270802">
        <ele>335.15673828125</ele>
        <time>2004-11-06T11:03:22Z</time>
      </trkpt>
      <trkpt lat="43.06887187063694" lon="11.702520428225398">
        <ele>336.598876953125</ele>
        <time>2004-11-06T11:03:27Z</time>
      </trkpt>
      <trkpt lat="43.068817555904388" lon="11.702403333038092">
        <ele>337.0794677734375</ele>
        <time>2004-11-06T11:03:32Z</time>
      </trkpt>
      <trkpt lat="43.068745890632272" lon="11.702282046899199">
        <ele>338.521484375</ele>
        <time>2004-11-06T11:03:37Z</time>
      </trkpt>
      <trkpt lat="43.06868277490139" lon="11.702157994732261">
        <ele>339.482666015625</ele>
        <time>2004-11-06T11:03:42Z</time>
      </trkpt>
      <trkpt lat="43.068626029416919" lon="11.702035116031766">
        <ele>340.9246826171875</ele>
        <time>2004-11-06T11:03:47Z</time>
      </trkpt>
      <trkpt lat="43.068580348044634" lon="11.701925648376346">
        <ele>341.4052734375</ele>
        <time>2004-11-06T11:03:51Z</time>
      </trkpt>
      <trkpt lat="43.06854497641325" lon="11.701811570674181">
        <ele>341.885986328125</ele>
        <time>2004-11-06T11:03:55Z</time>
      </trkpt>
      <trkpt lat="43.068514801561832" lon="11.701690116897225">
        <ele>342.36669921875</ele>
        <time>2004-11-06T11:03:59Z</time>
      </trkpt>
      <trkpt lat="43.068487895652652" lon="11.701567741110921">
        <ele>343.327880859375</ele>
        <time>2004-11-06T11:04:03Z</time>
      </trkpt>
      <trkpt lat="43.068459397181869" lon="11.70144553296268">
        <ele>344.2894287109375</ele>
        <time>2004-11-06T11:04:07Z</time>
      </trkpt>
      <trkpt lat="43.068426288664341" lon="11.701309913769364">
        <ele>344.77001953125</ele>
        <time>2004-11-06T11:04:11Z</time>
      </trkpt>
      <trkpt lat="43.06839351542294" lon="11.701173204928637">
        <ele>345.7313232421875</ele>
        <time>2004-11-06T11:04:15Z</time>
      </trkpt>
      <trkpt lat="43.068357808515429" lon="11.701039178296924">
        <ele>346.692626953125</ele>
        <time>2004-11-06T11:04:19Z</time>
      </trkpt>
      <trkpt lat="43.068319922313094" lon="11.700907163321972">
        <ele>347.6539306640625</ele>
        <time>2004-11-06T11:04:23Z</time>
      </trkpt>
      <trkpt lat="43.06828111410141" lon="11.700784284621477">
        <ele>348.615234375</ele>
        <time>2004-11-06T11:04:27Z</time>
      </trkpt>
      <trkpt lat="43.068236103281379" lon="11.700656209141016">
        <ele>350.0572509765625</ele>
        <time>2004-11-06T11:04:31Z</time>
      </trkpt>
      <trkpt lat="43.068188913166523" lon="11.700538694858551">
        <ele>350.537841796875</ele>
        <time>2004-11-06T11:04:35Z</time>
      </trkpt>
      <trkpt lat="43.068139543756843" lon="11.700414558872581">
        <ele>351.4991455078125</ele>
        <time>2004-11-06T11:04:39Z</time>
      </trkpt>
      <trkpt lat="43.068087827414274" lon="11.700293105095625">
        <ele>351.4991455078125</ele>
        <time>2004-11-06T11:04:43Z</time>
      </trkpt>
      <trkpt lat="43.068030662834644" lon="11.700162347406149">
        <ele>351.9798583984375</ele>
        <time>2004-11-06T11:04:47Z</time>
      </trkpt>
      <trkpt lat="43.067977437749505" lon="11.700030248612165">
        <ele>352.4605712890625</ele>
        <time>2004-11-06T11:04:51Z</time>
      </trkpt>
      <trkpt lat="43.067926224321127" lon="11.699902424588799">
        <ele>352.941162109375</ele>
        <time>2004-11-06T11:04:55Z</time>
      </trkpt>
      <trkpt lat="43.067874675616622" lon="11.6997763607651">
        <ele>353.902587890625</ele>
        <time>2004-11-06T11:04:59Z</time>
      </trkpt>
      <trkpt lat="43.067822623997927" lon="11.69965323060751">
        <ele>354.86376953125</ele>
        <time>2004-11-06T11:05:03Z</time>
      </trkpt>
      <trkpt lat="43.067763783037663" lon="11.699534207582474">
        <ele>354.86376953125</ele>
        <time>2004-11-06T11:05:07Z</time>
      </trkpt>
      <trkpt lat="43.067700415849686" lon="11.699430104345083">
        <ele>355.8251953125</ele>
        <time>2004-11-06T11:05:11Z</time>
      </trkpt>
      <trkpt lat="43.06763562373817" lon="11.699336729943752">
        <ele>356.786376953125</ele>
        <time>2004-11-06T11:05:15Z</time>
      </trkpt>
      <trkpt lat="43.067554235458374" lon="11.699260286986828">
        <ele>357.26708984375</ele>
        <time>2004-11-06T11:05:19Z</time>
      </trkpt>
      <trkpt lat="43.067457927390933" lon="11.699175797402859">
        <ele>357.26708984375</ele>
        <time>2004-11-06T11:05:23Z</time>
      </trkpt>
      <trkpt lat="43.067379221320152" lon="11.699109580367804">
        <ele>357.26708984375</ele>
        <time>2004-11-06T11:05:26Z</time>
      </trkpt>
      <trkpt lat="43.067295402288437" lon="11.699048476293683">
        <ele>357.26708984375</ele>
        <time>2004-11-06T11:05:29Z</time>
      </trkpt>
      <trkpt lat="43.067206302657723" lon="11.698977230116725">
        <ele>356.786376953125</ele>
        <time>2004-11-06T11:05:32Z</time>
      </trkpt>
      <trkpt lat="43.067103456705809" lon="11.698895338922739">
        <ele>356.3057861328125</ele>
        <time>2004-11-06T11:05:36Z</time>
      </trkpt>
      <trkpt lat="43.067005639895797" lon="11.698816129937768">
        <ele>355.8251953125</ele>
        <time>2004-11-06T11:05:40Z</time>
      </trkpt>
      <trkpt lat="43.066909164190292" lon="11.698738597333431">
        <ele>355.344482421875</ele>
        <time>2004-11-06T11:05:44Z</time>
      </trkpt>
      <trkpt lat="43.066816041246057" lon="11.698667602613568">
        <ele>354.3831787109375</ele>
        <time>2004-11-06T11:05:47Z</time>
      </trkpt>
      <trkpt lat="43.066704561933875" lon="11.698575234040618">
        <ele>353.902587890625</ele>
        <time>2004-11-06T11:05:50Z</time>
      </trkpt>
      <trkpt lat="43.066625017672777" lon="11.698510609567165">
        <ele>352.4605712890625</ele>
        <time>2004-11-06T11:05:52Z</time>
      </trkpt>
      <trkpt lat="43.066534828394651" lon="11.698440285399556">
        <ele>352.4605712890625</ele>
        <time>2004-11-06T11:05:54Z</time>
      </trkpt>
      <trkpt lat="43.066438352689147" lon="11.698362501338124">
        <ele>352.4605712890625</ele>
        <time>2004-11-06T11:05:56Z</time>
      </trkpt>
      <trkpt lat="43.066349420696497" lon="11.69828899204731">
        <ele>351.4991455078125</ele>
        <time>2004-11-06T11:05:58Z</time>
      </trkpt>
      <trkpt lat="43.066266356036067" lon="11.698222691193223">
        <ele>351.4991455078125</ele>
        <time>2004-11-06T11:06:00Z</time>
      </trkpt>
      <trkpt lat="43.066188069060445" lon="11.698158569633961">
        <ele>351.0184326171875</ele>
        <time>2004-11-06T11:06:02Z</time>
      </trkpt>
      <trkpt lat="43.066111877560616" lon="11.698099728673697">
        <ele>351.0184326171875</ele>
        <time>2004-11-06T11:06:04Z</time>
      </trkpt>
      <trkpt lat="43.066003164276481" lon="11.698012389242649">
        <ele>350.537841796875</ele>
        <time>2004-11-06T11:06:07Z</time>
      </trkpt>
      <trkpt lat="43.06589026004076" lon="11.697917422279716">
        <ele>350.0572509765625</ele>
        <time>2004-11-06T11:06:10Z</time>
      </trkpt>
      <trkpt lat="43.065816247835755" lon="11.697843996807933">
        <ele>349.5765380859375</ele>
        <time>2004-11-06T11:06:12Z</time>
      </trkpt>
      <trkpt lat="43.065749946981668" lon="11.697757747024298">
        <ele>348.1346435546875</ele>
        <time>2004-11-06T11:06:14Z</time>
      </trkpt>
      <trkpt lat="43.065688004717231" lon="11.697662360966206">
        <ele>347.6539306640625</ele>
        <time>2004-11-06T11:06:16Z</time>
      </trkpt>
      <trkpt lat="43.065632684156299" lon="11.697553899139166">
        <ele>348.615234375</ele>
        <time>2004-11-06T11:06:18Z</time>
      </trkpt>
      <trkpt lat="43.065606616437435" lon="11.697410233318806">
        <ele>348.615234375</ele>
        <time>2004-11-06T11:06:21Z</time>
      </trkpt>
      <trkpt lat="43.065588427707553" lon="11.697255335748196">
        <ele>349.5765380859375</ele>
        <time>2004-11-06T11:06:25Z</time>
      </trkpt>
      <trkpt lat="43.065569903701544" lon="11.697109239175916">
        <ele>351.0184326171875</ele>
        <time>2004-11-06T11:06:29Z</time>
      </trkpt>
      <trkpt lat="43.065555235370994" lon="11.696956772357225">
        <ele>352.4605712890625</ele>
        <time>2004-11-06T11:06:33Z</time>
      </trkpt>
      <trkpt lat="43.065537633374333" lon="11.696815453469753">
        <ele>352.4605712890625</ele>
        <time>2004-11-06T11:06:37Z</time>
      </trkpt>
      <trkpt lat="43.065516175702214" lon="11.696660807356238">
        <ele>353.421875</ele>
        <time>2004-11-06T11:06:41Z</time>
      </trkpt>
      <trkpt lat="43.065503351390362" lon="11.69653088785708">
        <ele>353.902587890625</ele>
        <time>2004-11-06T11:06:44Z</time>
      </trkpt>
      <trkpt lat="43.065483905375004" lon="11.696397364139557">
        <ele>353.902587890625</ele>
        <time>2004-11-06T11:06:47Z</time>
      </trkpt>
      <trkpt lat="43.065461022779346" lon="11.696264762431383">
        <ele>353.421875</ele>
        <time>2004-11-06T11:06:50Z</time>
      </trkpt>
      <trkpt lat="43.065446186810732" lon="11.696134926751256">
        <ele>353.421875</ele>
        <time>2004-11-06T11:06:53Z</time>
      </trkpt>
      <trkpt lat="43.065426908433437" lon="11.696001905947924">
        <ele>353.902587890625</ele>
        <time>2004-11-06T11:06:56Z</time>
      </trkpt>
      <trkpt lat="43.065404528751969" lon="11.695861928164959">
        <ele>353.421875</ele>
        <time>2004-11-06T11:06:59Z</time>
      </trkpt>
      <trkpt lat="43.065383154898882" lon="11.695724297314882">
        <ele>353.421875</ele>
        <time>2004-11-06T11:07:02Z</time>
      </trkpt>
      <trkpt lat="43.06535960175097" lon="11.69558197259903">
        <ele>352.941162109375</ele>
        <time>2004-11-06T11:07:05Z</time>
      </trkpt>
      <trkpt lat="43.065339149907231" lon="11.695437133312225">
        <ele>353.421875</ele>
        <time>2004-11-06T11:07:08Z</time>
      </trkpt>
      <trkpt lat="43.065313752740622" lon="11.695279385894537">
        <ele>353.421875</ele>
        <time>2004-11-06T11:07:11Z</time>
      </trkpt>
      <trkpt lat="43.065288858488202" lon="11.695116190239787">
        <ele>353.421875</ele>
        <time>2004-11-06T11:07:14Z</time>
      </trkpt>
      <trkpt lat="43.065265892073512" lon="11.694963220506907">
        <ele>353.902587890625</ele>
        <time>2004-11-06T11:07:17Z</time>
      </trkpt>
      <trkpt lat="43.065243680030107" lon="11.694812681525946">
        <ele>353.902587890625</ele>
        <time>2004-11-06T11:07:20Z</time>
      </trkpt>
      <trkpt lat="43.065221216529608" lon="11.694667423143983">
        <ele>354.3831787109375</ele>
        <time>2004-11-06T11:07:23Z</time>
      </trkpt>
      <trkpt lat="43.065197914838791" lon="11.694523841142654">
        <ele>354.3831787109375</ele>
        <time>2004-11-06T11:07:26Z</time>
      </trkpt>
      <trkpt lat="43.065177043899894" lon="11.694379923865199">
        <ele>354.3831787109375</ele>
        <time>2004-11-06T11:07:29Z</time>
      </trkpt>
      <trkpt lat="43.065160363912582" lon="11.69423776678741">
        <ele>354.86376953125</ele>
        <time>2004-11-06T11:07:32Z</time>
      </trkpt>
      <trkpt lat="43.065145276486874" lon="11.694112960249186">
        <ele>355.344482421875</ele>
        <time>2004-11-06T11:07:35Z</time>
      </trkpt>
      <trkpt lat="43.065137146040797" lon="11.693988656625152">
        <ele>355.344482421875</ele>
        <time>2004-11-06T11:07:38Z</time>
      </trkpt>
      <trkpt lat="43.065137062221766" lon="11.693856809288263">
        <ele>355.8251953125</ele>
        <time>2004-11-06T11:07:41Z</time>
      </trkpt>
      <trkpt lat="43.065149551257491" lon="11.693729655817151">
        <ele>357.26708984375</ele>
        <time>2004-11-06T11:07:44Z</time>
      </trkpt>
      <trkpt lat="43.065166985616088" lon="11.69359914958477">
        <ele>357.747802734375</ele>
        <time>2004-11-06T11:07:47Z</time>
      </trkpt>
      <trkpt lat="43.065184755250812" lon="11.693471577018499">
        <ele>357.747802734375</ele>
        <time>2004-11-06T11:07:50Z</time>
      </trkpt>
      <trkpt lat="43.065196992829442" lon="11.693347692489624">
        <ele>359.189697265625</ele>
        <time>2004-11-06T11:07:53Z</time>
      </trkpt>
      <trkpt lat="43.065210403874516" lon="11.693222047761083">
        <ele>359.67041015625</ele>
        <time>2004-11-06T11:07:56Z</time>
      </trkpt>
      <trkpt lat="43.065225491300225" lon="11.693098833784461">
        <ele>360.151123046875</ele>
        <time>2004-11-06T11:07:59Z</time>
      </trkpt>
      <trkpt lat="43.065240159630775" lon="11.692974949255586">
        <ele>360.6317138671875</ele>
        <time>2004-11-06T11:08:02Z</time>
      </trkpt>
      <trkpt lat="43.065255666151643" lon="11.692850142717361">
        <ele>360.6317138671875</ele>
        <time>2004-11-06T11:08:05Z</time>
      </trkpt>
      <trkpt lat="43.065271424129605" lon="11.692696250975132">
        <ele>361.5931396484375</ele>
        <time>2004-11-06T11:08:09Z</time>
      </trkpt>
      <trkpt lat="43.065289193764329" lon="11.692543951794505">
        <ele>361.5931396484375</ele>
        <time>2004-11-06T11:08:13Z</time>
      </trkpt>
      <trkpt lat="43.065309645608068" lon="11.692384527996182">
        <ele>362.07373046875</ele>
        <time>2004-11-06T11:08:17Z</time>
      </trkpt>
      <trkpt lat="43.065330600365996" lon="11.692222841084003">
        <ele>362.07373046875</ele>
        <time>2004-11-06T11:08:21Z</time>
      </trkpt>
      <trkpt lat="43.065345520153642" lon="11.69209610670805">
        <ele>362.5543212890625</ele>
        <time>2004-11-06T11:08:24Z</time>
      </trkpt>
      <trkpt lat="43.065361026674509" lon="11.691966187208891">
        <ele>363.0350341796875</ele>
        <time>2004-11-06T11:08:27Z</time>
      </trkpt>
      <trkpt lat="43.065379047766328" lon="11.691834758967161">
        <ele>363.0350341796875</ele>
        <time>2004-11-06T11:08:30Z</time>
      </trkpt>
      <trkpt lat="43.065395392477512" lon="11.691698720678687">
        <ele>363.5157470703125</ele>
        <time>2004-11-06T11:08:33Z</time>
      </trkpt>
      <trkpt lat="43.06541190482676" lon="11.69156695716083">
        <ele>363.996337890625</ele>
        <time>2004-11-06T11:08:36Z</time>
      </trkpt>
      <trkpt lat="43.065429506823421" lon="11.691438546404243">
        <ele>364.4769287109375</ele>
        <time>2004-11-06T11:08:39Z</time>
      </trkpt>
      <trkpt lat="43.065446857362986" lon="11.691309968009591">
        <ele>365.4383544921875</ele>
        <time>2004-11-06T11:08:42Z</time>
      </trkpt>
      <trkpt lat="43.065461693331599" lon="11.691177198663354">
        <ele>365.4383544921875</ele>
        <time>2004-11-06T11:08:45Z</time>
      </trkpt>
      <trkpt lat="43.065475774928927" lon="11.691039986908436">
        <ele>365.9189453125</ele>
        <time>2004-11-06T11:08:48Z</time>
      </trkpt>
      <trkpt lat="43.065481809899211" lon="11.690911576151848">
        <ele>366.3995361328125</ele>
        <time>2004-11-06T11:08:51Z</time>
      </trkpt>
      <trkpt lat="43.065482480451465" lon="11.690766401588917">
        <ele>366.8802490234375</ele>
        <time>2004-11-06T11:08:55Z</time>
      </trkpt>
      <trkpt lat="43.065470242872834" lon="11.690648216754198">
        <ele>366.8802490234375</ele>
        <time>2004-11-06T11:09:00Z</time>
      </trkpt>
      <trkpt lat="43.065449958667159" lon="11.690534139052033">
        <ele>366.8802490234375</ele>
        <time>2004-11-06T11:09:23Z</time>
      </trkpt>
      <trkpt lat="43.065390782430768" lon="11.690403213724494">
        <ele>366.3995361328125</ele>
        <time>2004-11-06T11:12:42Z</time>
      </trkpt>
      <trkpt lat="43.06534837000072" lon="11.690277820453048">
        <ele>366.3995361328125</ele>
        <time>2004-11-06T11:12:45Z</time>
      </trkpt>
      <trkpt lat="43.065292043611407" lon="11.690114038065076">
        <ele>365.4383544921875</ele>
        <time>2004-11-06T11:12:48Z</time>
      </trkpt>
      <trkpt lat="43.065253403037786" lon="11.6899832803756">
        <ele>364.9576416015625</ele>
        <time>2004-11-06T11:12:50Z</time>
      </trkpt>
      <trkpt lat="43.065225910395384" lon="11.689844476059079">
        <ele>363.5157470703125</ele>
        <time>2004-11-06T11:12:52Z</time>
      </trkpt>
      <trkpt lat="43.065209984779358" lon="11.689714221283793">
        <ele>363.5157470703125</ele>
        <time>2004-11-06T11:12:54Z</time>
      </trkpt>
      <trkpt lat="43.065207302570343" lon="11.689570555463433">
        <ele>363.0350341796875</ele>
        <time>2004-11-06T11:12:56Z</time>
      </trkpt>
      <trkpt lat="43.065214343369007" lon="11.689407946541905">
        <ele>362.07373046875</ele>
        <time>2004-11-06T11:12:58Z</time>
      </trkpt>
      <trkpt lat="43.065225658938289" lon="11.689227567985654">
        <ele>361.5931396484375</ele>
        <time>2004-11-06T11:13:00Z</time>
      </trkpt>
      <trkpt lat="43.065244434401393" lon="11.68903386220336">
        <ele>360.6317138671875</ele>
        <time>2004-11-06T11:13:02Z</time>
      </trkpt>
      <trkpt lat="43.0652648024261" lon="11.68882523663342">
        <ele>360.151123046875</ele>
        <time>2004-11-06T11:13:04Z</time>
      </trkpt>
      <trkpt lat="43.065289696678519" lon="11.688617952167988">
        <ele>358.708984375</ele>
        <time>2004-11-06T11:13:06Z</time>
      </trkpt>
      <trkpt lat="43.065324733033776" lon="11.688419217243791">
        <ele>357.747802734375</ele>
        <time>2004-11-06T11:13:08Z</time>
      </trkpt>
      <trkpt lat="43.065364714711905" lon="11.688229702413082">
        <ele>357.26708984375</ele>
        <time>2004-11-06T11:13:10Z</time>
      </trkpt>
      <trkpt lat="43.065404277294874" lon="11.688061226159334">
        <ele>357.26708984375</ele>
        <time>2004-11-06T11:13:12Z</time>
      </trkpt>
      <trkpt lat="43.065464375540614" lon="11.687900712713599">
        <ele>356.786376953125</ele>
        <time>2004-11-06T11:13:14Z</time>
      </trkpt>
      <trkpt lat="43.065533861517906" lon="11.68776199221611">
        <ele>357.26708984375</ele>
        <time>2004-11-06T11:13:16Z</time>
      </trkpt>
      <trkpt lat="43.065599072724581" lon="11.687630899250507">
        <ele>356.786376953125</ele>
        <time>2004-11-06T11:13:18Z</time>
      </trkpt>
      <trkpt lat="43.065639389678836" lon="11.687490167096257">
        <ele>356.786376953125</ele>
        <time>2004-11-06T11:13:20Z</time>
      </trkpt>
      <trkpt lat="43.065668055787683" lon="11.687350021675229">
        <ele>356.3057861328125</ele>
        <time>2004-11-06T11:13:22Z</time>
      </trkpt>
      <trkpt lat="43.065693117678165" lon="11.687209708616138">
        <ele>356.3057861328125</ele>
        <time>2004-11-06T11:13:24Z</time>
      </trkpt>
      <trkpt lat="43.065716922283173" lon="11.687061097472906">
        <ele>356.3057861328125</ele>
        <time>2004-11-06T11:13:26Z</time>
      </trkpt>
      <trkpt lat="43.065744498744607" lon="11.686901841312647">
        <ele>355.8251953125</ele>
        <time>2004-11-06T11:13:28Z</time>
      </trkpt>
      <trkpt lat="43.065770231187344" lon="11.686715008690953">
        <ele>354.86376953125</ele>
        <time>2004-11-06T11:13:30Z</time>
      </trkpt>
      <trkpt lat="43.065804010257125" lon="11.686503365635872">
        <ele>352.941162109375</ele>
        <time>2004-11-06T11:13:32Z</time>
      </trkpt>
      <trkpt lat="43.065838292241096" lon="11.686297003179789">
        <ele>351.9798583984375</ele>
        <time>2004-11-06T11:13:34Z</time>
      </trkpt>
      <trkpt lat="43.065883554518223" lon="11.686103716492653">
        <ele>350.537841796875</ele>
        <time>2004-11-06T11:13:36Z</time>
      </trkpt>
      <trkpt lat="43.065962260589004" lon="11.68591252528131">
        <ele>349.0958251953125</ele>
        <time>2004-11-06T11:13:38Z</time>
      </trkpt>
      <trkpt lat="43.066054880619049" lon="11.685730218887329">
        <ele>348.1346435546875</ele>
        <time>2004-11-06T11:13:40Z</time>
      </trkpt>
      <trkpt lat="43.066145908087492" lon="11.685567693784833">
        <ele>345.2506103515625</ele>
        <time>2004-11-06T11:13:42Z</time>
      </trkpt>
      <trkpt lat="43.066219333559275" lon="11.685419166460633">
        <ele>344.2894287109375</ele>
        <time>2004-11-06T11:13:44Z</time>
      </trkpt>
      <trkpt lat="43.066235259175301" lon="11.685257898643613">
        <ele>343.327880859375</ele>
        <time>2004-11-06T11:13:46Z</time>
      </trkpt>
      <trkpt lat="43.066191589459777" lon="11.685120519250631">
        <ele>341.4052734375</ele>
        <time>2004-11-06T11:13:48Z</time>
      </trkpt>
      <trkpt lat="43.066099975258112" lon="11.685036867856979">
        <ele>339.96337890625</ele>
        <time>2004-11-06T11:13:50Z</time>
      </trkpt>
      <trkpt lat="43.066013976931572" lon="11.684992359951138">
        <ele>337.56005859375</ele>
        <time>2004-11-06T11:13:52Z</time>
      </trkpt>
      <trkpt lat="43.065936276689172" lon="11.684941565617919">
        <ele>335.6373291015625</ele>
        <time>2004-11-06T11:13:55Z</time>
      </trkpt>
      <trkpt lat="43.06588095612824" lon="11.68485171161592">
        <ele>334.1954345703125</ele>
        <time>2004-11-06T11:13:58Z</time>
      </trkpt>
      <trkpt lat="43.065830999985337" lon="11.684680636972189">
        <ele>333.234130859375</ele>
        <time>2004-11-06T11:14:01Z</time>
      </trkpt>
      <trkpt lat="43.065799903124571" lon="11.684518279507756">
        <ele>332.7535400390625</ele>
        <time>2004-11-06T11:14:03Z</time>
      </trkpt>
      <trkpt lat="43.065759083256125" lon="11.68433035723865">
        <ele>331.7921142578125</ele>
        <time>2004-11-06T11:14:05Z</time>
      </trkpt>
      <trkpt lat="43.065712647512555" lon="11.684130867943168">
        <ele>329.8695068359375</ele>
        <time>2004-11-06T11:14:07Z</time>
      </trkpt>
      <trkpt lat="43.065658500418067" lon="11.683922996744514">
        <ele>329.388916015625</ele>
        <time>2004-11-06T11:14:09Z</time>
      </trkpt>
      <trkpt lat="43.065596222877502" lon="11.683707498013973">
        <ele>327.4661865234375</ele>
        <time>2004-11-06T11:14:11Z</time>
      </trkpt>
      <trkpt lat="43.06552573107183" lon="11.683488646522164">
        <ele>326.5048828125</ele>
        <time>2004-11-06T11:14:13Z</time>
      </trkpt>
      <trkpt lat="43.065450713038445" lon="11.683272141963243">
        <ele>325.5435791015625</ele>
        <time>2004-11-06T11:14:15Z</time>
      </trkpt>
      <trkpt lat="43.065376533195376" lon="11.683056727051735">
        <ele>325.06298828125</ele>
        <time>2004-11-06T11:14:17Z</time>
      </trkpt>
      <trkpt lat="43.065339233726263" lon="11.682949857786298">
        <ele>324.582275390625</ele>
        <time>2004-11-06T11:14:18Z</time>
      </trkpt>
      <trkpt lat="43.065266311168671" lon="11.682739891111851">
        <ele>323.140380859375</ele>
        <time>2004-11-06T11:14:20Z</time>
      </trkpt>
      <trkpt lat="43.065194142982364" lon="11.682536127045751">
        <ele>323.140380859375</ele>
        <time>2004-11-06T11:14:22Z</time>
      </trkpt>
      <trkpt lat="43.065123399719596" lon="11.682338062673807">
        <ele>322.65966796875</ele>
        <time>2004-11-06T11:14:24Z</time>
      </trkpt>
      <trkpt lat="43.065054751932621" lon="11.682142429053783">
        <ele>322.178955078125</ele>
        <time>2004-11-06T11:14:26Z</time>
      </trkpt>
      <trkpt lat="43.06499071419239" lon="11.681952830404043">
        <ele>321.2177734375</ele>
        <time>2004-11-06T11:14:28Z</time>
      </trkpt>
      <trkpt lat="43.064931789413095" lon="11.681772703304887">
        <ele>321.2177734375</ele>
        <time>2004-11-06T11:14:30Z</time>
      </trkpt>
      <trkpt lat="43.064878145232797" lon="11.681603891775012">
        <ele>320.737060546875</ele>
        <time>2004-11-06T11:14:32Z</time>
      </trkpt>
      <trkpt lat="43.064830703660846" lon="11.68144354596734">
        <ele>320.25634765625</ele>
        <time>2004-11-06T11:14:34Z</time>
      </trkpt>
      <trkpt lat="43.064809665083885" lon="11.681332066655159">
        <ele>319.775634765625</ele>
        <time>2004-11-06T11:14:36Z</time>
      </trkpt>
      <trkpt lat="43.064873116090894" lon="11.681289821863174">
        <ele>320.25634765625</ele>
        <time>2004-11-06T11:15:47Z</time>
      </trkpt>
      <trkpt lat="43.064967328682542" lon="11.681275488808751">
        <ele>320.25634765625</ele>
        <time>2004-11-06T11:15:51Z</time>
      </trkpt>
      <trkpt lat="43.065071851015091" lon="11.681253863498569">
        <ele>320.737060546875</ele>
        <time>2004-11-06T11:15:55Z</time>
      </trkpt>
      <trkpt lat="43.065185509622097" lon="11.681236093863845">
        <ele>320.737060546875</ele>
        <time>2004-11-06T11:15:59Z</time>
      </trkpt>
      <trkpt lat="43.065278884023428" lon="11.681220252066851">
        <ele>321.2177734375</ele>
        <time>2004-11-06T11:16:02Z</time>
      </trkpt>
      <trkpt lat="43.065377119928598" lon="11.681204913184047">
        <ele>321.2177734375</ele>
        <time>2004-11-06T11:16:05Z</time>
      </trkpt>
      <trkpt lat="43.065477786585689" lon="11.681187814101577">
        <ele>321.2177734375</ele>
        <time>2004-11-06T11:16:08Z</time>
      </trkpt>
      <trkpt lat="43.065566886216402" lon="11.681180438026786">
        <ele>321.6983642578125</ele>
        <time>2004-11-06T11:16:11Z</time>
      </trkpt>
      <trkpt lat="43.065665541216731" lon="11.681167026981711">
        <ele>321.2177734375</ele>
        <time>2004-11-06T11:16:14Z</time>
      </trkpt>
      <trkpt lat="43.06575832888484" lon="11.681151352822781">
        <ele>321.6983642578125</ele>
        <time>2004-11-06T11:16:17Z</time>
      </trkpt>
      <trkpt lat="43.06587366387248" lon="11.681136097759008">
        <ele>322.178955078125</ele>
        <time>2004-11-06T11:16:21Z</time>
      </trkpt>
      <trkpt lat="43.065979443490505" lon="11.68109611608088">
        <ele>323.6209716796875</ele>
        <time>2004-11-06T11:16:25Z</time>
      </trkpt>
      <trkpt lat="43.06607105769217" lon="11.681041968986392">
        <ele>324.582275390625</ele>
        <time>2004-11-06T11:16:29Z</time>
      </trkpt>
      <trkpt lat="43.06614188477397" lon="11.680948426946998">
        <ele>324.582275390625</ele>
        <time>2004-11-06T11:16:33Z</time>
      </trkpt>
      <trkpt lat="43.066179351881146" lon="11.680830661207438">
        <ele>325.06298828125</ele>
        <time>2004-11-06T11:16:37Z</time>
      </trkpt>
      <trkpt lat="43.0661800224334" lon="11.680689761415124">
        <ele>325.5435791015625</ele>
        <time>2004-11-06T11:16:41Z</time>
      </trkpt>
      <trkpt lat="43.066165437921882" lon="11.680545005947351">
        <ele>326.5048828125</ele>
        <time>2004-11-06T11:16:45Z</time>
      </trkpt>
      <trkpt lat="43.066141465678811" lon="11.680402094498277">
        <ele>327.94677734375</ele>
        <time>2004-11-06T11:16:49Z</time>
      </trkpt>
      <trkpt lat="43.066115481778979" lon="11.680262535810471">
        <ele>327.94677734375</ele>
        <time>2004-11-06T11:16:53Z</time>
      </trkpt>
      <trkpt lat="43.066088911145926" lon="11.68012473732233">
        <ele>328.4276123046875</ele>
        <time>2004-11-06T11:16:57Z</time>
      </trkpt>
      <trkpt lat="43.06607105769217" lon="11.679990878328681">
        <ele>328.9083251953125</ele>
        <time>2004-11-06T11:17:01Z</time>
      </trkpt>
      <trkpt lat="43.066043397411704" lon="11.67985794134438">
        <ele>329.8695068359375</ele>
        <time>2004-11-06T11:17:05Z</time>
      </trkpt>
      <trkpt lat="43.066018167883158" lon="11.679723579436541">
        <ele>330.8309326171875</ele>
        <time>2004-11-06T11:17:09Z</time>
      </trkpt>
      <trkpt lat="43.065984472632408" lon="11.679592486470938">
        <ele>331.3115234375</ele>
        <time>2004-11-06T11:17:13Z</time>
      </trkpt>
      <trkpt lat="43.065932504832745" lon="11.679466003552079">
        <ele>331.7921142578125</ele>
        <time>2004-11-06T11:17:17Z</time>
      </trkpt>
      <trkpt lat="43.065881878137589" lon="11.679339185357094">
        <ele>332.2728271484375</ele>
        <time>2004-11-06T11:17:21Z</time>
      </trkpt>
      <trkpt lat="43.065832927823067" lon="11.679202727973461">
        <ele>332.7535400390625</ele>
        <time>2004-11-06T11:17:25Z</time>
      </trkpt>
      <trkpt lat="43.065793616697192" lon="11.679057134315372">
        <ele>333.234130859375</ele>
        <time>2004-11-06T11:17:29Z</time>
      </trkpt>
      <trkpt lat="43.065783893689513" lon="11.678894776850939">
        <ele>333.7147216796875</ele>
        <time>2004-11-06T11:17:33Z</time>
      </trkpt>
      <trkpt lat="43.06580426171422" lon="11.678742896765471">
        <ele>334.6761474609375</ele>
        <time>2004-11-06T11:17:37Z</time>
      </trkpt>
      <trkpt lat="43.065837537869811" lon="11.678599650040269">
        <ele>335.15673828125</ele>
        <time>2004-11-06T11:17:41Z</time>
      </trkpt>
      <trkpt lat="43.0658795312047" lon="11.678464198485017">
        <ele>336.1181640625</ele>
        <time>2004-11-06T11:17:45Z</time>
      </trkpt>
      <trkpt lat="43.065922698006034" lon="11.678325813263655">
        <ele>337.0794677734375</ele>
        <time>2004-11-06T11:17:49Z</time>
      </trkpt>
      <trkpt lat="43.065984304994345" lon="11.678204694762826">
        <ele>337.56005859375</ele>
        <time>2004-11-06T11:17:53Z</time>
      </trkpt>
      <trkpt lat="43.066059406846762" lon="11.678097490221262">
        <ele>338.040771484375</ele>
        <time>2004-11-06T11:17:57Z</time>
      </trkpt>
      <trkpt lat="43.0661541223526" lon="11.678019957616925">
        <ele>339.96337890625</ele>
        <time>2004-11-06T11:18:01Z</time>
      </trkpt>
      <trkpt lat="43.06626208126545" lon="11.677983328700066">
        <ele>340.9246826171875</ele>
        <time>2004-11-06T11:18:05Z</time>
      </trkpt>
      <trkpt lat="43.066370962187648" lon="11.67798257432878">
        <ele>341.885986328125</ele>
        <time>2004-11-06T11:18:09Z</time>
      </trkpt>
      <trkpt lat="43.066479424014688" lon="11.678017191588879">
        <ele>341.885986328125</ele>
        <time>2004-11-06T11:18:13Z</time>
      </trkpt>
      <trkpt lat="43.066580174490809" lon="11.678082905709743">
        <ele>342.36669921875</ele>
        <time>2004-11-06T11:18:17Z</time>
      </trkpt>
      <trkpt lat="43.06667254306376" lon="11.678151972591877">
        <ele>343.80859375</ele>
        <time>2004-11-06T11:18:21Z</time>
      </trkpt>
      <trkpt lat="43.066766923293471" lon="11.67822003364563">
        <ele>344.77001953125</ele>
        <time>2004-11-06T11:18:25Z</time>
      </trkpt>
      <trkpt lat="43.066859124228358" lon="11.678287675604224">
        <ele>345.2506103515625</ele>
        <time>2004-11-06T11:18:29Z</time>
      </trkpt>
      <trkpt lat="43.066950151696801" lon="11.678348025307059">
        <ele>345.7313232421875</ele>
        <time>2004-11-06T11:18:33Z</time>
      </trkpt>
      <trkpt lat="43.067045789211988" lon="11.678404016420245">
        <ele>346.2120361328125</ele>
        <time>2004-11-06T11:18:37Z</time>
      </trkpt>
      <trkpt lat="43.067140923812985" lon="11.678454643115401">
        <ele>346.692626953125</ele>
        <time>2004-11-06T11:18:41Z</time>
      </trkpt>
      <trkpt lat="43.067237231880426" lon="11.67849906720221">
        <ele>348.1346435546875</ele>
        <time>2004-11-06T11:18:45Z</time>
      </trkpt>
      <trkpt lat="43.067337479442358" lon="11.678541228175163">
        <ele>348.615234375</ele>
        <time>2004-11-06T11:18:49Z</time>
      </trkpt>
      <trkpt lat="43.067435882985592" lon="11.678580204024911">
        <ele>349.5765380859375</ele>
        <time>2004-11-06T11:18:53Z</time>
      </trkpt>
      <trkpt lat="43.067533615976572" lon="11.678619682788849">
        <ele>350.0572509765625</ele>
        <time>2004-11-06T11:18:57Z</time>
      </trkpt>
      <trkpt lat="43.067636461928487" lon="11.678651366382837">
        <ele>351.0184326171875</ele>
        <time>2004-11-06T11:19:01Z</time>
      </trkpt>
      <trkpt lat="43.067739307880402" lon="11.678671985864639">
        <ele>352.4605712890625</ele>
        <time>2004-11-06T11:19:05Z</time>
      </trkpt>
      <trkpt lat="43.06783159263432" lon="11.678672237321734">
        <ele>352.4605712890625</ele>
        <time>2004-11-06T11:19:09Z</time>
      </trkpt>
      <trkpt lat="43.067918932065368" lon="11.678640972822905">
        <ele>353.902587890625</ele>
        <time>2004-11-06T11:19:13Z</time>
      </trkpt>
      <trkpt lat="43.068008534610271" lon="11.678606020286679">
        <ele>353.902587890625</ele>
        <time>2004-11-06T11:19:17Z</time>
      </trkpt>
      <trkpt lat="43.068108698353171" lon="11.678564278408885">
        <ele>354.3831787109375</ele>
        <time>2004-11-06T11:19:22Z</time>
      </trkpt>
      <trkpt lat="43.068209532648325" lon="11.678526224568486">
        <ele>354.86376953125</ele>
        <time>2004-11-06T11:19:27Z</time>
      </trkpt>
      <trkpt lat="43.068311959505081" lon="11.678498815745115">
        <ele>355.8251953125</ele>
        <time>2004-11-06T11:19:32Z</time>
      </trkpt>
      <trkpt lat="43.068417320027947" lon="11.678484734147787">
        <ele>357.26708984375</ele>
        <time>2004-11-06T11:19:37Z</time>
      </trkpt>
      <trkpt lat="43.068516394123435" lon="11.678476184606552">
        <ele>358.708984375</ele>
        <time>2004-11-06T11:19:42Z</time>
      </trkpt>
      <trkpt lat="43.06859090924263" lon="11.678401250392199">
        <ele>358.708984375</ele>
        <time>2004-11-06T11:20:24Z</time>
      </trkpt>
      <trkpt lat="43.06863441132009" lon="11.678278371691704">
        <ele>358.708984375</ele>
        <time>2004-11-06T11:20:30Z</time>
      </trkpt>
      <trkpt lat="43.068676320835948" lon="11.67815113440156">
        <ele>358.2283935546875</ele>
        <time>2004-11-06T11:20:36Z</time>
      </trkpt>
      <trkpt lat="43.068732731044292" lon="11.677994392812252">
        <ele>358.2283935546875</ele>
        <time>2004-11-06T11:20:40Z</time>
      </trkpt>
      <trkpt lat="43.068783022463322" lon="11.677872184664011">
        <ele>358.2283935546875</ele>
        <time>2004-11-06T11:20:43Z</time>
      </trkpt>
      <trkpt lat="43.068840354681015" lon="11.677762297913432">
        <ele>358.2283935546875</ele>
        <time>2004-11-06T11:20:47Z</time>
      </trkpt>
      <trkpt lat="43.068857621401548" lon="11.677651237696409">
        <ele>358.2283935546875</ele>
        <time>2004-11-06T11:23:02Z</time>
      </trkpt>
      <trkpt lat="43.068925179541111" lon="11.677498267963529">
        <ele>357.747802734375</ele>
        <time>2004-11-06T11:23:06Z</time>
      </trkpt>
      <trkpt lat="43.068984523415565" lon="11.677368516102433">
        <ele>358.2283935546875</ele>
        <time>2004-11-06T11:23:09Z</time>
      </trkpt>
      <trkpt lat="43.069033976644278" lon="11.677223844453692">
        <ele>358.2283935546875</ele>
        <time>2004-11-06T11:23:12Z</time>
      </trkpt>
      <trkpt lat="43.069059289991856" lon="11.677056541666389">
        <ele>357.747802734375</ele>
        <time>2004-11-06T11:23:15Z</time>
      </trkpt>
      <trkpt lat="43.069050321355462" lon="11.676931399852037">
        <ele>357.747802734375</ele>
        <time>2004-11-06T11:23:17Z</time>
      </trkpt>
      <trkpt lat="43.069008830934763" lon="11.676814304664731">
        <ele>357.26708984375</ele>
        <time>2004-11-06T11:23:19Z</time>
      </trkpt>
      <trkpt lat="43.068947391584516" lon="11.676710452884436">
        <ele>357.26708984375</ele>
        <time>2004-11-06T11:23:21Z</time>
      </trkpt>
      <trkpt lat="43.068882767111063" lon="11.676615318283439">
        <ele>356.786376953125</ele>
        <time>2004-11-06T11:23:23Z</time>
      </trkpt>
      <trkpt lat="43.068814622238278" lon="11.676518004387617">
        <ele>356.3057861328125</ele>
        <time>2004-11-06T11:23:25Z</time>
      </trkpt>
      <trkpt lat="43.068743627518415" lon="11.676413984969258">
        <ele>355.344482421875</ele>
        <time>2004-11-06T11:23:27Z</time>
      </trkpt>
      <trkpt lat="43.068670956417918" lon="11.676311809569597">
        <ele>355.344482421875</ele>
        <time>2004-11-06T11:23:29Z</time>
      </trkpt>
      <trkpt lat="43.068607924506068" lon="11.676218183711171">
        <ele>354.3831787109375</ele>
        <time>2004-11-06T11:23:31Z</time>
      </trkpt>
      <trkpt lat="43.068535588681698" lon="11.676112404093146">
        <ele>353.902587890625</ele>
        <time>2004-11-06T11:23:34Z</time>
      </trkpt>
      <trkpt lat="43.068464426323771" lon="11.676022550091147">
        <ele>353.902587890625</ele>
        <time>2004-11-06T11:23:37Z</time>
      </trkpt>
      <trkpt lat="43.068391084671021" lon="11.675924146547914">
        <ele>353.421875</ele>
        <time>2004-11-06T11:23:40Z</time>
      </trkpt>
      <trkpt lat="43.068314138799906" lon="11.675819372758269">
        <ele>352.941162109375</ele>
        <time>2004-11-06T11:23:43Z</time>
      </trkpt>
      <trkpt lat="43.068227721378207" lon="11.675704121589661">
        <ele>352.4605712890625</ele>
        <time>2004-11-06T11:23:46Z</time>
      </trkpt>
      <trkpt lat="43.068138035014272" lon="11.675581159070134">
        <ele>352.4605712890625</ele>
        <time>2004-11-06T11:23:49Z</time>
      </trkpt>
      <trkpt lat="43.068039463832974" lon="11.675449227914214">
        <ele>352.4605712890625</ele>
        <time>2004-11-06T11:23:52Z</time>
      </trkpt>
      <trkpt lat="43.067967379465699" lon="11.675355937331915">
        <ele>351.9798583984375</ele>
        <time>2004-11-06T11:23:54Z</time>
      </trkpt>
      <trkpt lat="43.067887499928474" lon="11.675265580415726">
        <ele>351.4991455078125</ele>
        <time>2004-11-06T11:23:56Z</time>
      </trkpt>
      <trkpt lat="43.067792281508446" lon="11.675191400572658">
        <ele>351.0184326171875</ele>
        <time>2004-11-06T11:23:58Z</time>
      </trkpt>
      <trkpt lat="43.067689687013626" lon="11.675127195194364">
        <ele>350.0572509765625</ele>
        <time>2004-11-06T11:24:00Z</time>
      </trkpt>
      <trkpt lat="43.067572759464383" lon="11.675067096948624">
        <ele>348.615234375</ele>
        <time>2004-11-06T11:24:02Z</time>
      </trkpt>
      <trkpt lat="43.067447114735842" lon="11.675001718103886">
        <ele>347.6539306640625</ele>
        <time>2004-11-06T11:24:04Z</time>
      </trkpt>
      <trkpt lat="43.067311160266399" lon="11.674935417249799">
        <ele>346.692626953125</ele>
        <time>2004-11-06T11:24:06Z</time>
      </trkpt>
      <trkpt lat="43.067164812237024" lon="11.674864506348968">
        <ele>346.2120361328125</ele>
        <time>2004-11-06T11:24:08Z</time>
      </trkpt>
      <trkpt lat="43.06702533736825" lon="11.6747937630862">
        <ele>345.7313232421875</ele>
        <time>2004-11-06T11:24:10Z</time>
      </trkpt>
      <trkpt lat="43.066915450617671" lon="11.674724696204066">
        <ele>343.80859375</ele>
        <time>2004-11-06T11:24:12Z</time>
      </trkpt>
      <trkpt lat="43.066833643242717" lon="11.674616234377027">
        <ele>342.36669921875</ele>
        <time>2004-11-06T11:24:14Z</time>
      </trkpt>
      <trkpt lat="43.066783268004656" lon="11.674483800306916">
        <ele>341.885986328125</ele>
        <time>2004-11-06T11:24:16Z</time>
      </trkpt>
      <trkpt lat="43.066756026819348" lon="11.674364525824785">
        <ele>340.444091796875</ele>
        <time>2004-11-06T11:24:18Z</time>
      </trkpt>
      <trkpt lat="43.066727863624692" lon="11.674217004328966">
        <ele>339.482666015625</ele>
        <time>2004-11-06T11:24:21Z</time>
      </trkpt>
      <trkpt lat="43.066696850582957" lon="11.674093035981059">
        <ele>339.482666015625</ele>
        <time>2004-11-06T11:24:23Z</time>
      </trkpt>
      <trkpt lat="43.066649325191975" lon="11.673960518091917">
        <ele>339.0020751953125</ele>
        <time>2004-11-06T11:24:25Z</time>
      </trkpt>
      <trkpt lat="43.066605571657419" lon="11.6738595161587">
        <ele>338.040771484375</ele>
        <time>2004-11-06T11:24:27Z</time>
      </trkpt>
      <trkpt lat="43.066543797031045" lon="11.673739990219474">
        <ele>336.598876953125</ele>
        <time>2004-11-06T11:24:30Z</time>
      </trkpt>
      <trkpt lat="43.066509515047073" lon="11.67360789142549">
        <ele>335.6373291015625</ele>
        <time>2004-11-06T11:24:33Z</time>
      </trkpt>
      <trkpt lat="43.066527787595987" lon="11.673459364101291">
        <ele>334.6761474609375</ele>
        <time>2004-11-06T11:24:36Z</time>
      </trkpt>
      <trkpt lat="43.066584784537554" lon="11.673315614461899">
        <ele>334.1954345703125</ele>
        <time>2004-11-06T11:24:39Z</time>
      </trkpt>
      <trkpt lat="43.066659551113844" lon="11.673181084915996">
        <ele>332.7535400390625</ele>
        <time>2004-11-06T11:24:42Z</time>
      </trkpt>
      <trkpt lat="43.066706657409668" lon="11.673089554533362">
        <ele>331.3115234375</ele>
        <time>2004-11-06T11:24:45Z</time>
      </trkpt>
      <trkpt lat="43.066736245527864" lon="11.672933399677277">
        <ele>330.8309326171875</ele>
        <time>2004-11-06T11:26:08Z</time>
      </trkpt>
      <trkpt lat="43.066728031262755" lon="11.672800043597817">
        <ele>329.388916015625</ele>
        <time>2004-11-06T11:26:12Z</time>
      </trkpt>
      <trkpt lat="43.066659215837717" lon="11.672683116048574">
        <ele>328.4276123046875</ele>
        <time>2004-11-06T11:26:16Z</time>
      </trkpt>
      <trkpt lat="43.066557040438056" lon="11.672618156298995">
        <ele>327.94677734375</ele>
        <time>2004-11-06T11:26:19Z</time>
      </trkpt>
      <trkpt lat="43.066439358517528" lon="11.672550598159432">
        <ele>326.985595703125</ele>
        <time>2004-11-06T11:26:22Z</time>
      </trkpt>
      <trkpt lat="43.066346738487482" lon="11.672407602891326">
        <ele>325.5435791015625</ele>
        <time>2004-11-06T11:26:25Z</time>
      </trkpt>
      <trkpt lat="43.066298207268119" lon="11.672262847423553">
        <ele>324.1015625</ele>
        <time>2004-11-06T11:26:27Z</time>
      </trkpt>
      <trkpt lat="43.066234672442079" lon="11.67214248329401">
        <ele>324.1015625</ele>
        <time>2004-11-06T11:26:29Z</time>
      </trkpt>
      <trkpt lat="43.066140711307526" lon="11.672052377834916">
        <ele>321.6983642578125</ele>
        <time>2004-11-06T11:26:31Z</time>
      </trkpt>
      <trkpt lat="43.066031746566296" lon="11.671987920999527">
        <ele>320.25634765625</ele>
        <time>2004-11-06T11:26:33Z</time>
      </trkpt>
      <trkpt lat="43.065915824845433" lon="11.671932600438595">
        <ele>318.8143310546875</ele>
        <time>2004-11-06T11:26:35Z</time>
      </trkpt>
      <trkpt lat="43.065806943923235" lon="11.671895636245608">
        <ele>317.85302734375</ele>
        <time>2004-11-06T11:26:37Z</time>
      </trkpt>
      <trkpt lat="43.065702002495527" lon="11.671892199665308">
        <ele>315.930419921875</ele>
        <time>2004-11-06T11:26:39Z</time>
      </trkpt>
      <trkpt lat="43.065604185685515" lon="11.671944754198194">
        <ele>315.4498291015625</ele>
        <time>2004-11-06T11:26:41Z</time>
      </trkpt>
      <trkpt lat="43.065516594797373" lon="11.672043744474649">
        <ele>314.4884033203125</ele>
        <time>2004-11-06T11:26:43Z</time>
      </trkpt>
      <trkpt lat="43.065427159890532" lon="11.67213904671371">
        <ele>313.5272216796875</ele>
        <time>2004-11-06T11:26:45Z</time>
      </trkpt>
      <trkpt lat="43.065319284796715" lon="11.672203671187162">
        <ele>313.5272216796875</ele>
        <time>2004-11-06T11:26:47Z</time>
      </trkpt>
      <trkpt lat="43.065188946202397" lon="11.672186488285661">
        <ele>313.0465087890625</ele>
        <time>2004-11-06T11:26:49Z</time>
      </trkpt>
      <trkpt lat="43.065063217654824" lon="11.672125216573477">
        <ele>311.6044921875</ele>
        <time>2004-11-06T11:26:51Z</time>
      </trkpt>
      <trkpt lat="43.064937321469188" lon="11.672037290409207">
        <ele>310.64306640625</ele>
        <time>2004-11-06T11:26:53Z</time>
      </trkpt>
      <trkpt lat="43.064811676740646" lon="11.671938132494688">
        <ele>309.201171875</ele>
        <time>2004-11-06T11:26:55Z</time>
      </trkpt>
      <trkpt lat="43.06468527764082" lon="11.67184978723526">
        <ele>307.278564453125</ele>
        <time>2004-11-06T11:26:57Z</time>
      </trkpt>
      <trkpt lat="43.064549742266536" lon="11.671762447804213">
        <ele>306.7978515625</ele>
        <time>2004-11-06T11:26:59Z</time>
      </trkpt>
      <trkpt lat="43.064411105588078" lon="11.671669408679008">
        <ele>306.7978515625</ele>
        <time>2004-11-06T11:27:01Z</time>
      </trkpt>
      <trkpt lat="43.064294848591089" lon="11.671594558283687">
        <ele>306.3172607421875</ele>
        <time>2004-11-06T11:27:03Z</time>
      </trkpt>
      <trkpt lat="43.06418789550662" lon="11.671527083963156">
        <ele>304.875244140625</ele>
        <time>2004-11-06T11:27:05Z</time>
      </trkpt>
      <trkpt lat="43.06408085860312" lon="11.671456340700388">
        <ele>303.9139404296875</ele>
        <time>2004-11-06T11:27:07Z</time>
      </trkpt>
      <trkpt lat="43.063970385119319" lon="11.671383753418922">
        <ele>303.9139404296875</ele>
        <time>2004-11-06T11:27:09Z</time>
      </trkpt>
      <trkpt lat="43.063859660178423" lon="11.671310747042298">
        <ele>303.9139404296875</ele>
        <time>2004-11-06T11:27:11Z</time>
      </trkpt>
      <trkpt lat="43.06374809704721" lon="11.671237489208579">
        <ele>303.4332275390625</ele>
        <time>2004-11-06T11:27:13Z</time>
      </trkpt>
      <trkpt lat="43.06363619863987" lon="11.671161632984877">
        <ele>302.9525146484375</ele>
        <time>2004-11-06T11:27:15Z</time>
      </trkpt>
      <trkpt lat="43.063522959128022" lon="11.671084770932794">
        <ele>302.471923828125</ele>
        <time>2004-11-06T11:27:17Z</time>
      </trkpt>
      <trkpt lat="43.06341047398746" lon="11.67100740596652">
        <ele>301.9913330078125</ele>
        <time>2004-11-06T11:27:19Z</time>
      </trkpt>
      <trkpt lat="43.063297066837549" lon="11.670929118990898">
        <ele>301.5106201171875</ele>
        <time>2004-11-06T11:27:21Z</time>
      </trkpt>
      <trkpt lat="43.06318324059248" lon="11.670853011310101">
        <ele>301.5106201171875</ele>
        <time>2004-11-06T11:27:23Z</time>
      </trkpt>
      <trkpt lat="43.063070084899664" lon="11.670777406543493">
        <ele>301.0299072265625</ele>
        <time>2004-11-06T11:27:25Z</time>
      </trkpt>
      <trkpt lat="43.06295458227396" lon="11.670699790120125">
        <ele>300.54931640625</ele>
        <time>2004-11-06T11:27:27Z</time>
      </trkpt>
      <trkpt lat="43.062838995829225" lon="11.670621084049344">
        <ele>300.54931640625</ele>
        <time>2004-11-06T11:27:29Z</time>
      </trkpt>
      <trkpt lat="43.062720224261284" lon="11.670539528131485">
        <ele>300.0687255859375</ele>
        <time>2004-11-06T11:27:31Z</time>
      </trkpt>
      <trkpt lat="43.062598099932075" lon="11.670457134023309">
        <ele>300.0687255859375</ele>
        <time>2004-11-06T11:27:33Z</time>
      </trkpt>
      <trkpt lat="43.062477987259626" lon="11.670375661924481">
        <ele>299.5880126953125</ele>
        <time>2004-11-06T11:27:35Z</time>
      </trkpt>
      <trkpt lat="43.062358880415559" lon="11.670292848721147">
        <ele>299.5880126953125</ele>
        <time>2004-11-06T11:27:37Z</time>
      </trkpt>
      <trkpt lat="43.062238935381174" lon="11.67021288536489">
        <ele>299.1072998046875</ele>
        <time>2004-11-06T11:27:39Z</time>
      </trkpt>
      <trkpt lat="43.062121672555804" lon="11.670134179294109">
        <ele>298.626708984375</ele>
        <time>2004-11-06T11:27:41Z</time>
      </trkpt>
      <trkpt lat="43.062005415558815" lon="11.670053210109472">
        <ele>298.626708984375</ele>
        <time>2004-11-06T11:27:43Z</time>
      </trkpt>
      <trkpt lat="43.061889493837953" lon="11.669971570372581">
        <ele>298.1461181640625</ele>
        <time>2004-11-06T11:27:45Z</time>
      </trkpt>
      <trkpt lat="43.061777176335454" lon="11.669882973656058">
        <ele>298.1461181640625</ele>
        <time>2004-11-06T11:27:47Z</time>
      </trkpt>
      <trkpt lat="43.061668211594224" lon="11.669793119654059">
        <ele>298.1461181640625</ele>
        <time>2004-11-06T11:27:49Z</time>
      </trkpt>
      <trkpt lat="43.061564695090055" lon="11.669695805758238">
        <ele>297.6654052734375</ele>
        <time>2004-11-06T11:27:51Z</time>
      </trkpt>
      <trkpt lat="43.061463860794902" lon="11.66959865950048">
        <ele>297.6654052734375</ele>
        <time>2004-11-06T11:27:53Z</time>
      </trkpt>
      <trkpt lat="43.061367552727461" lon="11.669508302584291">
        <ele>297.6654052734375</ele>
        <time>2004-11-06T11:27:55Z</time>
      </trkpt>
      <trkpt lat="43.061274848878384" lon="11.669416604563594">
        <ele>296.7041015625</ele>
        <time>2004-11-06T11:27:57Z</time>
      </trkpt>
      <trkpt lat="43.061185581609607" lon="11.669324235990644">
        <ele>297.1846923828125</ele>
        <time>2004-11-06T11:27:59Z</time>
      </trkpt>
      <trkpt lat="43.061103606596589" lon="11.669224994257092">
        <ele>296.7041015625</ele>
        <time>2004-11-06T11:28:01Z</time>
      </trkpt>
      <trkpt lat="43.061035042628646" lon="11.669106893241405">
        <ele>296.2235107421875</ele>
        <time>2004-11-06T11:28:03Z</time>
      </trkpt>
      <trkpt lat="43.060980979353189" lon="11.668976051732898">
        <ele>295.74267578125</ele>
        <time>2004-11-06T11:28:05Z</time>
      </trkpt>
      <trkpt lat="43.060941500589252" lon="11.66883397847414">
        <ele>295.261962890625</ele>
        <time>2004-11-06T11:28:07Z</time>
      </trkpt>
      <trkpt lat="43.060907637700438" lon="11.668688384816051">
        <ele>295.261962890625</ele>
        <time>2004-11-06T11:28:09Z</time>
      </trkpt>
      <trkpt lat="43.060875870287418" lon="11.668543210253119">
        <ele>295.261962890625</ele>
        <time>2004-11-06T11:28:11Z</time>
      </trkpt>
      <trkpt lat="43.060846365988255" lon="11.668406082317233">
        <ele>294.7813720703125</ele>
        <time>2004-11-06T11:28:13Z</time>
      </trkpt>
      <trkpt lat="43.060813760384917" lon="11.668266858905554">
        <ele>294.30078125</ele>
        <time>2004-11-06T11:28:15Z</time>
      </trkpt>
      <trkpt lat="43.060777802020311" lon="11.668137023225427">
        <ele>294.30078125</ele>
        <time>2004-11-06T11:28:17Z</time>
      </trkpt>
      <trkpt lat="43.060748046264052" lon="11.668013893067837">
        <ele>294.30078125</ele>
        <time>2004-11-06T11:28:19Z</time>
      </trkpt>
      <trkpt lat="43.060718039050698" lon="11.667897049337626">
        <ele>294.7813720703125</ele>
        <time>2004-11-06T11:28:21Z</time>
      </trkpt>
      <trkpt lat="43.06067562662065" lon="11.66773360222578">
        <ele>294.7813720703125</ele>
        <time>2004-11-06T11:28:24Z</time>
      </trkpt>
      <trkpt lat="43.060638746246696" lon="11.667578369379044">
        <ele>295.261962890625</ele>
        <time>2004-11-06T11:28:27Z</time>
      </trkpt>
      <trkpt lat="43.060602117329836" lon="11.667428333312273">
        <ele>295.74267578125</ele>
        <time>2004-11-06T11:28:30Z</time>
      </trkpt>
      <trkpt lat="43.060567500069737" lon="11.667288606986403">
        <ele>295.74267578125</ele>
        <time>2004-11-06T11:28:33Z</time>
      </trkpt>
      <trkpt lat="43.06053439155221" lon="11.667161704972386">
        <ele>295.74267578125</ele>
        <time>2004-11-06T11:28:36Z</time>
      </trkpt>
      <trkpt lat="43.060504049062729" lon="11.667046705260873">
        <ele>296.2235107421875</ele>
        <time>2004-11-06T11:28:39Z</time>
      </trkpt>
      <trkpt lat="43.060467252507806" lon="11.666903290897608">
        <ele>295.74267578125</ele>
        <time>2004-11-06T11:28:43Z</time>
      </trkpt>
      <trkpt lat="43.060435317456722" lon="11.666763899847865">
        <ele>296.2235107421875</ele>
        <time>2004-11-06T11:28:47Z</time>
      </trkpt>
      <trkpt lat="43.060397347435355" lon="11.666628448292613">
        <ele>296.7041015625</ele>
        <time>2004-11-06T11:28:52Z</time>
      </trkpt>
      <trkpt lat="43.060361556708813" lon="11.666502384468913">
        <ele>296.7041015625</ele>
        <time>2004-11-06T11:28:58Z</time>
      </trkpt>
      <trkpt lat="43.060331298038363" lon="11.66638595983386">
        <ele>296.7041015625</ele>
        <time>2004-11-06T11:29:06Z</time>
      </trkpt>
      <trkpt lat="43.060363987460732" lon="11.666264925152063">
        <ele>297.6654052734375</ele>
        <time>2004-11-06T11:29:14Z</time>
      </trkpt>
      <trkpt lat="43.060412183403969" lon="11.666143136098981">
        <ele>299.5880126953125</ele>
        <time>2004-11-06T11:29:21Z</time>
      </trkpt>
      <trkpt lat="43.060485105961561" lon="11.666057473048568">
        <ele>301.0299072265625</ele>
        <time>2004-11-06T11:29:26Z</time>
      </trkpt>
      <trkpt lat="43.06057739071548" lon="11.66601799428463">
        <ele>302.9525146484375</ele>
        <time>2004-11-06T11:29:31Z</time>
      </trkpt>
      <trkpt lat="43.060682080686092" lon="11.665993938222528">
        <ele>304.875244140625</ele>
        <time>2004-11-06T11:29:37Z</time>
      </trkpt>
      <trkpt lat="43.060771767050028" lon="11.665976671501994">
        <ele>306.3172607421875</ele>
        <time>2004-11-06T11:29:42Z</time>
      </trkpt>
      <trkpt lat="43.060858603566885" lon="11.666009528562427">
        <ele>307.75927734375</ele>
        <time>2004-11-06T11:29:48Z</time>
      </trkpt>
      <trkpt lat="43.060942674055696" lon="11.666085636243224">
        <ele>307.75927734375</ele>
        <time>2004-11-06T11:29:56Z</time>
      </trkpt>
      <trkpt lat="43.061010567471385" lon="11.666182531043887">
        <ele>307.278564453125</ele>
        <time>2004-11-06T11:30:01Z</time>
      </trkpt>
      <trkpt lat="43.061101092025638" lon="11.6662940941751">
        <ele>306.3172607421875</ele>
        <time>2004-11-06T11:30:05Z</time>
      </trkpt>
      <trkpt lat="43.061201255768538" lon="11.666425857692957">
        <ele>306.3172607421875</ele>
        <time>2004-11-06T11:30:08Z</time>
      </trkpt>
      <trkpt lat="43.061282727867365" lon="11.666531134396791">
        <ele>305.35595703125</ele>
        <time>2004-11-06T11:30:10Z</time>
      </trkpt>
      <trkpt lat="43.061370402574539" lon="11.666642278432846">
        <ele>304.875244140625</ele>
        <time>2004-11-06T11:30:12Z</time>
      </trkpt>
      <trkpt lat="43.061462435871363" lon="11.666758116334677">
        <ele>304.3946533203125</ele>
        <time>2004-11-06T11:30:14Z</time>
      </trkpt>
      <trkpt lat="43.06156050413847" lon="11.666869260370731">
        <ele>303.9139404296875</ele>
        <time>2004-11-06T11:30:16Z</time>
      </trkpt>
      <trkpt lat="43.061671648174524" lon="11.666967160999775">
        <ele>302.9525146484375</ele>
        <time>2004-11-06T11:30:18Z</time>
      </trkpt>
      <trkpt lat="43.061794610694051" lon="11.667040251195431">
        <ele>302.471923828125</ele>
        <time>2004-11-06T11:30:20Z</time>
      </trkpt>
      <trkpt lat="43.061902988702059" lon="11.667077466845512">
        <ele>301.9913330078125</ele>
        <time>2004-11-06T11:30:22Z</time>
      </trkpt>
      <trkpt lat="43.061987645924091" lon="11.66708710603416">
        <ele>301.9913330078125</ele>
        <time>2004-11-06T11:30:24Z</time>
      </trkpt>
      <trkpt lat="43.06209996342659" lon="11.66708123870194">
        <ele>301.9913330078125</ele>
        <time>2004-11-06T11:30:27Z</time>
      </trkpt>
      <trkpt lat="43.062207838520408" lon="11.667074114084244">
        <ele>301.9913330078125</ele>
        <time>2004-11-06T11:30:30Z</time>
      </trkpt>
      <trkpt lat="43.062311271205544" lon="11.66705927811563">
        <ele>302.471923828125</ele>
        <time>2004-11-06T11:30:34Z</time>
      </trkpt>
      <trkpt lat="43.062411770224571" lon="11.667046369984746">
        <ele>303.4332275390625</ele>
        <time>2004-11-06T11:30:38Z</time>
      </trkpt>
      <trkpt lat="43.062505396082997" lon="11.667015189304948">
        <ele>303.9139404296875</ele>
        <time>2004-11-06T11:30:42Z</time>
      </trkpt>
      <trkpt lat="43.062595836818218" lon="11.66697378270328">
        <ele>304.3946533203125</ele>
        <time>2004-11-06T11:30:46Z</time>
      </trkpt>
      <trkpt lat="43.062680829316378" lon="11.666924329474568">
        <ele>305.35595703125</ele>
        <time>2004-11-06T11:30:50Z</time>
      </trkpt>
      <trkpt lat="43.062766157090664" lon="11.666865069419146">
        <ele>305.836669921875</ele>
        <time>2004-11-06T11:30:54Z</time>
      </trkpt>
      <trkpt lat="43.062842600047588" lon="11.666797427460551">
        <ele>306.7978515625</ele>
        <time>2004-11-06T11:30:58Z</time>
      </trkpt>
      <trkpt lat="43.062939578667283" lon="11.666725259274244">
        <ele>307.75927734375</ele>
        <time>2004-11-06T11:31:03Z</time>
      </trkpt>
      <trkpt lat="43.063033036887646" lon="11.666665244847536">
        <ele>308.720458984375</ele>
        <time>2004-11-06T11:31:08Z</time>
      </trkpt>
      <trkpt lat="43.063130937516689" lon="11.666612438857555">
        <ele>310.64306640625</ele>
        <time>2004-11-06T11:31:13Z</time>
      </trkpt>
      <trkpt lat="43.063226658850908" lon="11.666572457179427">
        <ele>311.123779296875</ele>
        <time>2004-11-06T11:31:18Z</time>
      </trkpt>
      <trkpt lat="43.063323218375444" lon="11.666547646746039">
        <ele>313.0465087890625</ele>
        <time>2004-11-06T11:31:23Z</time>
      </trkpt>
      <trkpt lat="43.063422627747059" lon="11.666527530178428">
        <ele>314.9691162109375</ele>
        <time>2004-11-06T11:31:28Z</time>
      </trkpt>
      <trkpt lat="43.06352480314672" lon="11.666518310084939">
        <ele>315.4498291015625</ele>
        <time>2004-11-06T11:31:33Z</time>
      </trkpt>
      <trkpt lat="43.063626056537032" lon="11.666514035314322">
        <ele>316.8917236328125</ele>
        <time>2004-11-06T11:31:38Z</time>
      </trkpt>
      <trkpt lat="43.063722029328346" lon="11.666511185467243">
        <ele>317.85302734375</ele>
        <time>2004-11-06T11:31:43Z</time>
      </trkpt>
      <trkpt lat="43.063814146444201" lon="11.666508670896292">
        <ele>319.775634765625</ele>
        <time>2004-11-06T11:31:48Z</time>
      </trkpt>
      <trkpt lat="43.063908526673913" lon="11.666504396125674">
        <ele>320.737060546875</ele>
        <time>2004-11-06T11:31:53Z</time>
      </trkpt>
      <trkpt lat="43.064006008207798" lon="11.666492745280266">
        <ele>321.6983642578125</ele>
        <time>2004-11-06T11:31:58Z</time>
      </trkpt>
      <trkpt lat="43.064100304618478" lon="11.666489895433187">
        <ele>323.140380859375</ele>
        <time>2004-11-06T11:32:03Z</time>
      </trkpt>
      <trkpt lat="43.064192421734333" lon="11.666482100263238">
        <ele>324.582275390625</ele>
        <time>2004-11-06T11:32:08Z</time>
      </trkpt>
      <trkpt lat="43.064297698438168" lon="11.666474053636193">
        <ele>325.5435791015625</ele>
        <time>2004-11-06T11:32:14Z</time>
      </trkpt>
      <trkpt lat="43.06440238840878" lon="11.666459133848548">
        <ele>327.94677734375</ele>
        <time>2004-11-06T11:32:20Z</time>
      </trkpt>
      <trkpt lat="43.064505569636822" lon="11.666486291214824">
        <ele>329.388916015625</ele>
        <time>2004-11-06T11:32:26Z</time>
      </trkpt>
      <trkpt lat="43.064593076705933" lon="11.66651395149529">
        <ele>329.8695068359375</ele>
        <time>2004-11-06T11:32:32Z</time>
      </trkpt>
      <trkpt lat="43.064685612916946" lon="11.666561728343368">
        <ele>331.3115234375</ele>
        <time>2004-11-06T11:32:38Z</time>
      </trkpt>
      <trkpt lat="43.064778400585055" lon="11.666629957035184">
        <ele>332.7535400390625</ele>
        <time>2004-11-06T11:32:44Z</time>
      </trkpt>
      <trkpt lat="43.064856939017773" lon="11.666712015867233">
        <ele>333.7147216796875</ele>
        <time>2004-11-06T11:32:49Z</time>
      </trkpt>
      <trkpt lat="43.06493547745049" lon="11.666812347248197">
        <ele>334.6761474609375</ele>
        <time>2004-11-06T11:32:54Z</time>
      </trkpt>
      <trkpt lat="43.065001862123609" lon="11.666906727477908">
        <ele>334.6761474609375</ele>
        <time>2004-11-06T11:32:58Z</time>
      </trkpt>
      <trkpt lat="43.065071180462837" lon="11.666991049423814">
        <ele>335.15673828125</ele>
        <time>2004-11-06T11:33:02Z</time>
      </trkpt>
      <trkpt lat="43.065158603712916" lon="11.667076461017132">
        <ele>336.598876953125</ele>
        <time>2004-11-06T11:33:07Z</time>
      </trkpt>
      <trkpt lat="43.065242422744632" lon="11.667140582576394">
        <ele>337.0794677734375</ele>
        <time>2004-11-06T11:33:12Z</time>
      </trkpt>
      <trkpt lat="43.065326660871506" lon="11.667189029976726">
        <ele>337.56005859375</ele>
        <time>2004-11-06T11:33:17Z</time>
      </trkpt>
      <trkpt lat="43.06542313657701" lon="11.66721073910594">
        <ele>338.521484375</ele>
        <time>2004-11-06T11:33:22Z</time>
      </trkpt>
      <trkpt lat="43.065514666959643" lon="11.667223563417792">
        <ele>339.96337890625</ele>
        <time>2004-11-06T11:33:27Z</time>
      </trkpt>
      <trkpt lat="43.065618686378002" lon="11.667197160422802">
        <ele>341.4052734375</ele>
        <time>2004-11-06T11:33:33Z</time>
      </trkpt>
      <trkpt lat="43.065718431025743" lon="11.667151059955359">
        <ele>342.8472900390625</ele>
        <time>2004-11-06T11:33:38Z</time>
      </trkpt>
      <trkpt lat="43.065811973065138" lon="11.667092135176063">
        <ele>343.80859375</ele>
        <time>2004-11-06T11:33:43Z</time>
      </trkpt>
      <trkpt lat="43.065896043553948" lon="11.667003287002444">
        <ele>344.77001953125</ele>
        <time>2004-11-06T11:33:48Z</time>
      </trkpt>
      <trkpt lat="43.065972318872809" lon="11.666911337524652">
        <ele>345.7313232421875</ele>
        <time>2004-11-06T11:33:52Z</time>
      </trkpt>
      <trkpt lat="43.066044403240085" lon="11.666830452159047">
        <ele>345.7313232421875</ele>
        <time>2004-11-06T11:33:56Z</time>
      </trkpt>
      <trkpt lat="43.066129144281149" lon="11.666743699461222">
        <ele>346.692626953125</ele>
        <time>2004-11-06T11:34:01Z</time>
      </trkpt>
      <trkpt lat="43.066201731562614" lon="11.666646134108305">
        <ele>347.1732177734375</ele>
        <time>2004-11-06T11:34:06Z</time>
      </trkpt>
      <trkpt lat="43.066274905577302" lon="11.666559800505638">
        <ele>349.0958251953125</ele>
        <time>2004-11-06T11:34:11Z</time>
      </trkpt>
      <trkpt lat="43.066345062106848" lon="11.666465923190117">
        <ele>350.537841796875</ele>
        <time>2004-11-06T11:34:16Z</time>
      </trkpt>
      <trkpt lat="43.066401639953256" lon="11.66636542417109">
        <ele>351.9798583984375</ele>
        <time>2004-11-06T11:34:21Z</time>
      </trkpt>
      <trkpt lat="43.066455535590649" lon="11.666246484965086">
        <ele>352.941162109375</ele>
        <time>2004-11-06T11:34:27Z</time>
      </trkpt>
      <trkpt lat="43.066479926928878" lon="11.666107513010502">
        <ele>353.902587890625</ele>
        <time>2004-11-06T11:34:33Z</time>
      </trkpt>
      <trkpt lat="43.066480429843068" lon="11.665973318740726">
        <ele>354.3831787109375</ele>
        <time>2004-11-06T11:34:39Z</time>
      </trkpt>
      <trkpt lat="43.066478921100497" lon="11.665838956832886">
        <ele>356.3057861328125</ele>
        <time>2004-11-06T11:34:46Z</time>
      </trkpt>
      <trkpt lat="43.066526362672448" lon="11.665747845545411">
        <ele>357.26708984375</ele>
        <time>2004-11-06T11:34:54Z</time>
      </trkpt>
      <trkpt lat="43.066625604405999" lon="11.665779193863273">
        <ele>357.26708984375</ele>
        <time>2004-11-06T11:35:46Z</time>
      </trkpt>
      <trkpt lat="43.066728366538882" lon="11.665830574929714">
        <ele>356.786376953125</ele>
        <time>2004-11-06T11:35:51Z</time>
      </trkpt>
      <trkpt lat="43.066827692091465" lon="11.665866784751415">
        <ele>356.786376953125</ele>
        <time>2004-11-06T11:35:55Z</time>
      </trkpt>
      <trkpt lat="43.066915534436703" lon="11.665890505537391">
        <ele>356.786376953125</ele>
        <time>2004-11-06T11:35:59Z</time>
      </trkpt>
      <trkpt lat="43.067013267427683" lon="11.665923027321696">
        <ele>357.26708984375</ele>
        <time>2004-11-06T11:36:03Z</time>
      </trkpt>
      <trkpt lat="43.067108569666743" lon="11.665990753099322">
        <ele>358.2283935546875</ele>
        <time>2004-11-06T11:36:07Z</time>
      </trkpt>
      <trkpt lat="43.067221557721496" lon="11.666048923507333">
        <ele>358.708984375</ele>
        <time>2004-11-06T11:36:11Z</time>
      </trkpt>
      <trkpt lat="43.067307053133845" lon="11.666102316230536">
        <ele>358.708984375</ele>
        <time>2004-11-06T11:36:14Z</time>
      </trkpt>
      <trkpt lat="43.067402523010969" lon="11.666165851056576">
        <ele>359.189697265625</ele>
        <time>2004-11-06T11:36:18Z</time>
      </trkpt>
      <trkpt lat="43.067461783066392" lon="11.666225781664252">
        <ele>360.151123046875</ele>
        <time>2004-11-06T11:38:31Z</time>
      </trkpt>
      <trkpt lat="43.067543674260378" lon="11.666298704221845">
        <ele>359.67041015625</ele>
        <time>2004-11-06T11:38:35Z</time>
      </trkpt>
      <trkpt lat="43.067638808861375" lon="11.66637958958745">
        <ele>359.67041015625</ele>
        <time>2004-11-06T11:38:38Z</time>
      </trkpt>
      <trkpt lat="43.06775146164" lon="11.666475562378764">
        <ele>359.67041015625</ele>
        <time>2004-11-06T11:38:41Z</time>
      </trkpt>
      <trkpt lat="43.067829664796591" lon="11.666547982022166">
        <ele>359.189697265625</ele>
        <time>2004-11-06T11:38:43Z</time>
      </trkpt>
      <trkpt lat="43.067906191572547" lon="11.666620066389441">
        <ele>359.189697265625</ele>
        <time>2004-11-06T11:38:45Z</time>
      </trkpt>
      <trkpt lat="43.067977353930473" lon="11.666703885421157">
        <ele>359.67041015625</ele>
        <time>2004-11-06T11:38:47Z</time>
      </trkpt>
      <trkpt lat="43.06804558262229" lon="11.666791392490268">
        <ele>359.67041015625</ele>
        <time>2004-11-06T11:38:49Z</time>
      </trkpt>
      <trkpt lat="43.068108111619949" lon="11.66688141413033">
        <ele>359.67041015625</ele>
        <time>2004-11-06T11:38:51Z</time>
      </trkpt>
      <trkpt lat="43.068202408030629" lon="11.667013261467218">
        <ele>360.151123046875</ele>
        <time>2004-11-06T11:38:54Z</time>
      </trkpt>
      <trkpt lat="43.068287065252662" lon="11.667135804891586">
        <ele>360.6317138671875</ele>
        <time>2004-11-06T11:38:57Z</time>
      </trkpt>
      <trkpt lat="43.068358395248652" lon="11.667237561196089">
        <ele>360.6317138671875</ele>
        <time>2004-11-06T11:39:00Z</time>
      </trkpt>
      <trkpt lat="43.068434251472354" lon="11.667322972789407">
        <ele>361.1124267578125</ele>
        <time>2004-11-06T11:39:03Z</time>
      </trkpt>
      <trkpt lat="43.068518405780196" lon="11.667410731315613">
        <ele>362.07373046875</ele>
        <time>2004-11-06T11:39:06Z</time>
      </trkpt>
      <trkpt lat="43.068617563694715" lon="11.667491784319282">
        <ele>362.07373046875</ele>
        <time>2004-11-06T11:39:09Z</time>
      </trkpt>
      <trkpt lat="43.068735748529434" lon="11.66755716316402">
        <ele>362.07373046875</ele>
        <time>2004-11-06T11:39:12Z</time>
      </trkpt>
      <trkpt lat="43.06886256672442" lon="11.667585326358676">
        <ele>361.5931396484375</ele>
        <time>2004-11-06T11:39:15Z</time>
      </trkpt>
      <trkpt lat="43.068976895883679" lon="11.667610052973032">
        <ele>361.1124267578125</ele>
        <time>2004-11-06T11:39:18Z</time>
      </trkpt>
      <trkpt lat="43.069077730178833" lon="11.667623464018106">
        <ele>360.151123046875</ele>
        <time>2004-11-06T11:39:21Z</time>
      </trkpt>
      <trkpt lat="43.069195495918393" lon="11.667642323300242">
        <ele>359.67041015625</ele>
        <time>2004-11-06T11:39:24Z</time>
      </trkpt>
      <trkpt lat="43.069331701844931" lon="11.667642490938306">
        <ele>358.2283935546875</ele>
        <time>2004-11-06T11:39:27Z</time>
      </trkpt>
      <trkpt lat="43.069424824789166" lon="11.66764123365283">
        <ele>357.747802734375</ele>
        <time>2004-11-06T11:39:29Z</time>
      </trkpt>
      <trkpt lat="43.069518702104688" lon="11.667634276673198">
        <ele>357.26708984375</ele>
        <time>2004-11-06T11:39:31Z</time>
      </trkpt>
      <trkpt lat="43.069614171981812" lon="11.66762170381844">
        <ele>356.3057861328125</ele>
        <time>2004-11-06T11:39:33Z</time>
      </trkpt>
      <trkpt lat="43.06973428465426" lon="11.667605694383383">
        <ele>356.3057861328125</ele>
        <time>2004-11-06T11:39:35Z</time>
      </trkpt>
      <trkpt lat="43.069878788664937" lon="11.667583901435137">
        <ele>355.344482421875</ele>
        <time>2004-11-06T11:39:37Z</time>
      </trkpt>
      <trkpt lat="43.070031255483627" lon="11.667569065466523">
        <ele>353.902587890625</ele>
        <time>2004-11-06T11:39:39Z</time>
      </trkpt>
      <trkpt lat="43.070188919082284" lon="11.667561437934637">
        <ele>352.4605712890625</ele>
        <time>2004-11-06T11:39:41Z</time>
      </trkpt>
      <trkpt lat="43.070344654843211" lon="11.667550373822451">
        <ele>351.9798583984375</ele>
        <time>2004-11-06T11:39:43Z</time>
      </trkpt>
      <trkpt lat="43.0705024022609" lon="11.667533442378044">
        <ele>350.537841796875</ele>
        <time>2004-11-06T11:39:45Z</time>
      </trkpt>
      <trkpt lat="43.07063584215939" lon="11.667509553954005">
        <ele>350.537841796875</ele>
        <time>2004-11-06T11:39:47Z</time>
      </trkpt>
      <trkpt lat="43.070758888497949" lon="11.66747267358005">
        <ele>349.5765380859375</ele>
        <time>2004-11-06T11:39:49Z</time>
      </trkpt>
      <trkpt lat="43.070878833532333" lon="11.66745213791728">
        <ele>349.5765380859375</ele>
        <time>2004-11-06T11:39:51Z</time>
      </trkpt>
      <trkpt lat="43.070995090529323" lon="11.667455574497581">
        <ele>349.0958251953125</ele>
        <time>2004-11-06T11:39:53Z</time>
      </trkpt>
      <trkpt lat="43.071108581498265" lon="11.6674770321697">
        <ele>348.615234375</ele>
        <time>2004-11-06T11:39:55Z</time>
      </trkpt>
      <trkpt lat="43.071223748847842" lon="11.66750829666853">
        <ele>348.1346435546875</ele>
        <time>2004-11-06T11:39:57Z</time>
      </trkpt>
      <trkpt lat="43.071339502930641" lon="11.667537717148662">
        <ele>347.6539306640625</ele>
        <time>2004-11-06T11:39:59Z</time>
      </trkpt>
      <trkpt lat="43.071460034698248" lon="11.667560767382383">
        <ele>347.6539306640625</ele>
        <time>2004-11-06T11:40:01Z</time>
      </trkpt>
      <trkpt lat="43.071578470990062" lon="11.667580716311932">
        <ele>347.1732177734375</ele>
        <time>2004-11-06T11:40:03Z</time>
      </trkpt>
      <trkpt lat="43.07169321924448" lon="11.667601503431797">
        <ele>346.692626953125</ele>
        <time>2004-11-06T11:40:05Z</time>
      </trkpt>
      <trkpt lat="43.071811404079199" lon="11.667631007730961">
        <ele>346.2120361328125</ele>
        <time>2004-11-06T11:40:07Z</time>
      </trkpt>
      <trkpt lat="43.071928666904569" lon="11.667669145390391">
        <ele>346.2120361328125</ele>
        <time>2004-11-06T11:40:09Z</time>
      </trkpt>
      <trkpt lat="43.072035200893879" lon="11.667704014107585">
        <ele>345.7313232421875</ele>
        <time>2004-11-06T11:40:11Z</time>
      </trkpt>
      <trkpt lat="43.072134861722589" lon="11.667739469558001">
        <ele>345.7313232421875</ele>
        <time>2004-11-06T11:40:13Z</time>
      </trkpt>
      <trkpt lat="43.072228487581015" lon="11.66776922531426">
        <ele>345.7313232421875</ele>
        <time>2004-11-06T11:40:15Z</time>
      </trkpt>
      <trkpt lat="43.072340972721577" lon="11.667797304689884">
        <ele>345.7313232421875</ele>
        <time>2004-11-06T11:40:18Z</time>
      </trkpt>
      <trkpt lat="43.072445159777999" lon="11.667806357145309">
        <ele>345.7313232421875</ele>
        <time>2004-11-06T11:40:21Z</time>
      </trkpt>
      <trkpt lat="43.072544652968645" lon="11.667807111516595">
        <ele>345.2506103515625</ele>
        <time>2004-11-06T11:40:24Z</time>
      </trkpt>
      <trkpt lat="43.072651186957955" lon="11.667785989120603">
        <ele>345.7313232421875</ele>
        <time>2004-11-06T11:40:28Z</time>
      </trkpt>
      <trkpt lat="43.072743304073811" lon="11.667771069332957">
        <ele>345.2506103515625</ele>
        <time>2004-11-06T11:40:32Z</time>
      </trkpt>
      <trkpt lat="43.07284782640636" lon="11.667771907523274">
        <ele>346.2120361328125</ele>
        <time>2004-11-06T11:40:38Z</time>
      </trkpt>
      <trkpt lat="43.07295243255794" lon="11.667783809825778">
        <ele>347.1732177734375</ele>
        <time>2004-11-06T11:40:43Z</time>
      </trkpt>
      <trkpt lat="43.073057625442743" lon="11.667800825089216">
        <ele>347.6539306640625</ele>
        <time>2004-11-06T11:40:48Z</time>
      </trkpt>
      <trkpt lat="43.073160890489817" lon="11.66781666688621">
        <ele>349.0958251953125</ele>
        <time>2004-11-06T11:40:53Z</time>
      </trkpt>
      <trkpt lat="43.073257533833385" lon="11.667826557531953">
        <ele>349.5765380859375</ele>
        <time>2004-11-06T11:40:59Z</time>
      </trkpt>
      <trkpt lat="43.073366079479456" lon="11.667824797332287">
        <ele>350.537841796875</ele>
        <time>2004-11-06T11:41:05Z</time>
      </trkpt>
      <trkpt lat="43.073461800813675" lon="11.667824126780033">
        <ele>350.537841796875</ele>
        <time>2004-11-06T11:41:10Z</time>
      </trkpt>
      <trkpt lat="43.07356221601367" lon="11.667832341045141">
        <ele>350.537841796875</ele>
        <time>2004-11-06T11:41:15Z</time>
      </trkpt>
      <trkpt lat="43.073658691719174" lon="11.667848266661167">
        <ele>351.4991455078125</ele>
        <time>2004-11-06T11:41:20Z</time>
      </trkpt>
      <trkpt lat="43.073754077777267" lon="11.667871903628111">
        <ele>351.9798583984375</ele>
        <time>2004-11-06T11:41:25Z</time>
      </trkpt>
      <trkpt lat="43.073850218206644" lon="11.667898138985038">
        <ele>352.941162109375</ele>
        <time>2004-11-06T11:41:30Z</time>
      </trkpt>
      <trkpt lat="43.073942083865404" lon="11.667928230017424">
        <ele>353.421875</ele>
        <time>2004-11-06T11:41:35Z</time>
      </trkpt>
      <trkpt lat="43.07402984239161" lon="11.667946837842464">
        <ele>354.3831787109375</ele>
        <time>2004-11-06T11:41:40Z</time>
      </trkpt>
      <trkpt lat="43.074132772162557" lon="11.667975671589375">
        <ele>355.344482421875</ele>
        <time>2004-11-06T11:41:46Z</time>
      </trkpt>
      <trkpt lat="43.07422480545938" lon="11.668008109554648">
        <ele>355.8251953125</ele>
        <time>2004-11-06T11:41:52Z</time>
      </trkpt>
      <trkpt lat="43.074315162375569" lon="11.668056389316916">
        <ele>358.2283935546875</ele>
        <time>2004-11-06T11:41:58Z</time>
      </trkpt>
      <trkpt lat="43.074409626424313" lon="11.668091844767332">
        <ele>359.189697265625</ele>
        <time>2004-11-06T11:42:04Z</time>
      </trkpt>
      <trkpt lat="43.074506521224976" lon="11.668124534189701">
        <ele>360.6317138671875</ele>
        <time>2004-11-06T11:42:11Z</time>
      </trkpt>
      <trkpt lat="43.074594447389245" lon="11.668164683505893">
        <ele>362.07373046875</ele>
        <time>2004-11-06T11:42:18Z</time>
      </trkpt>
      <trkpt lat="43.074691090732813" lon="11.668215310201049">
        <ele>363.996337890625</ele>
        <time>2004-11-06T11:42:26Z</time>
      </trkpt>
      <trkpt lat="43.074788823723793" lon="11.668264344334602">
        <ele>364.9576416015625</ele>
        <time>2004-11-06T11:42:34Z</time>
      </trkpt>
      <trkpt lat="43.074884712696075" lon="11.66832041926682">
        <ele>367.3609619140625</ele>
        <time>2004-11-06T11:42:42Z</time>
      </trkpt>
      <trkpt lat="43.074967861175537" lon="11.668369118124247">
        <ele>368.322265625</ele>
        <time>2004-11-06T11:42:49Z</time>
      </trkpt>
      <trkpt lat="43.075053943321109" lon="11.668432988226414">
        <ele>369.7642822265625</ele>
        <time>2004-11-06T11:42:57Z</time>
      </trkpt>
      <trkpt lat="43.075131308287382" lon="11.668506748974323">
        <ele>372.16748046875</ele>
        <time>2004-11-06T11:43:05Z</time>
      </trkpt>
      <trkpt lat="43.075208337977529" lon="11.668584197759628">
        <ele>374.090087890625</ele>
        <time>2004-11-06T11:43:14Z</time>
      </trkpt>
      <trkpt lat="43.07528268545866" lon="11.668672123923898">
        <ele>376.4935302734375</ele>
        <time>2004-11-06T11:43:23Z</time>
      </trkpt>
      <trkpt lat="43.075357535853982" lon="11.668748650699854">
        <ele>378.4161376953125</ele>
        <time>2004-11-06T11:43:32Z</time>
      </trkpt>
      <trkpt lat="43.075433224439621" lon="11.668825931847095">
        <ele>381.7806396484375</ele>
        <time>2004-11-06T11:43:42Z</time>
      </trkpt>
      <trkpt lat="43.075508158653975" lon="11.668916288763285">
        <ele>382.7420654296875</ele>
        <time>2004-11-06T11:43:51Z</time>
      </trkpt>
      <trkpt lat="43.075570184737444" lon="11.669005388393998">
        <ele>384.664794921875</ele>
        <time>2004-11-06T11:44:00Z</time>
      </trkpt>
      <trkpt lat="43.075639838352799" lon="11.669096248224378">
        <ele>386.58740234375</ele>
        <time>2004-11-06T11:44:09Z</time>
      </trkpt>
      <trkpt lat="43.075705468654633" lon="11.669168416410685">
        <ele>388.029296875</ele>
        <time>2004-11-06T11:44:18Z</time>
      </trkpt>
      <trkpt lat="43.075776882469654" lon="11.669236226007342">
        <ele>390.9132080078125</ele>
        <time>2004-11-06T11:44:27Z</time>
      </trkpt>
      <trkpt lat="43.075860869139433" lon="11.66932163760066">
        <ele>392.3553466796875</ele>
        <time>2004-11-06T11:44:36Z</time>
      </trkpt>
      <trkpt lat="43.075937479734421" lon="11.669405205175281">
        <ele>394.2779541015625</ele>
        <time>2004-11-06T11:44:45Z</time>
      </trkpt>
      <trkpt lat="43.076014090329409" lon="11.669492796063423">
        <ele>395.7198486328125</ele>
        <time>2004-11-06T11:44:54Z</time>
      </trkpt>
      <trkpt lat="43.076095227152109" lon="11.669566472992301">
        <ele>396.68115234375</ele>
        <time>2004-11-06T11:45:02Z</time>
      </trkpt>
      <trkpt lat="43.076171921566129" lon="11.669641491025686">
        <ele>399.0843505859375</ele>
        <time>2004-11-06T11:45:11Z</time>
      </trkpt>
      <trkpt lat="43.076251968741417" lon="11.669732686132193">
        <ele>400.5264892578125</ele>
        <time>2004-11-06T11:45:20Z</time>
      </trkpt>
      <trkpt lat="43.076336290687323" lon="11.669818097725511">
        <ele>401.968505859375</ele>
        <time>2004-11-06T11:45:29Z</time>
      </trkpt>
      <trkpt lat="43.076415499672294" lon="11.669883895665407">
        <ele>403.410400390625</ele>
        <time>2004-11-06T11:45:37Z</time>
      </trkpt>
      <trkpt lat="43.076499653980136" lon="11.669948268681765">
        <ele>404.852294921875</ele>
        <time>2004-11-06T11:45:45Z</time>
      </trkpt>
      <trkpt lat="43.076577354222536" lon="11.670022197067738">
        <ele>406.2943115234375</ele>
        <time>2004-11-06T11:45:54Z</time>
      </trkpt>
      <trkpt lat="43.076649522408843" lon="11.670115906745195">
        <ele>408.6976318359375</ele>
        <time>2004-11-06T11:46:05Z</time>
      </trkpt>
      <trkpt lat="43.076707273721695" lon="11.670215148478746">
        <ele>411.5816650390625</ele>
        <time>2004-11-06T11:46:15Z</time>
      </trkpt>
      <trkpt lat="43.076743567362428" lon="11.670327885076404">
        <ele>413.0235595703125</ele>
        <time>2004-11-06T11:46:26Z</time>
      </trkpt>
      <trkpt lat="43.076819172129035" lon="11.670409021899104">
        <ele>415.4268798828125</ele>
        <time>2004-11-06T11:46:37Z</time>
      </trkpt>
      <trkpt lat="43.076893268153071" lon="11.670494601130486">
        <ele>417.8302001953125</ele>
        <time>2004-11-06T11:46:48Z</time>
      </trkpt>
      <trkpt lat="43.076955713331699" lon="11.670593926683068">
        <ele>420.2333984375</ele>
        <time>2004-11-06T11:46:58Z</time>
      </trkpt>
      <trkpt lat="43.077013632282615" lon="11.670701801776886">
        <ele>421.6754150390625</ele>
        <time>2004-11-06T11:47:09Z</time>
      </trkpt>
      <trkpt lat="43.077056463807821" lon="11.670814538374543">
        <ele>423.5980224609375</ele>
        <time>2004-11-06T11:47:20Z</time>
      </trkpt>
      <trkpt lat="43.077101558446884" lon="11.67092333547771">
        <ele>425.520751953125</ele>
        <time>2004-11-06T11:47:30Z</time>
      </trkpt>
      <trkpt lat="43.07716048322618" lon="11.671024840325117">
        <ele>427.9239501953125</ele>
        <time>2004-11-06T11:47:42Z</time>
      </trkpt>
      <trkpt lat="43.077222341671586" lon="11.671092733740807">
        <ele>428.8853759765625</ele>
        <time>2004-11-06T11:47:54Z</time>
      </trkpt>
      <trkpt lat="43.077332060784101" lon="11.671247128397226">
        <ele>429.8465576171875</ele>
        <time>2004-11-06T11:49:34Z</time>
      </trkpt>
      <trkpt lat="43.077561808750033" lon="11.671172361820936">
        <ele>430.8079833984375</ele>
        <time>2004-11-06T11:51:46Z</time>
      </trkpt>
      <trkpt lat="43.077580919489264" lon="11.671243775635958">
        <ele>431.7691650390625</ele>
        <time>2004-11-06T11:51:54Z</time>
      </trkpt>
      <trkpt lat="43.077499698847532" lon="11.671374952420592">
        <ele>432.25</ele>
        <time>2004-11-06T11:52:11Z</time>
      </trkpt>
      <trkpt lat="43.077384615316987" lon="11.671488108113408">
        <ele>434.172607421875</ele>
        <time>2004-11-06T11:55:40Z</time>
      </trkpt>
      <trkpt lat="43.077404480427504" lon="11.671459022909403">
        <ele>434.172607421875</ele>
        <time>2004-11-06T11:56:42Z</time>
      </trkpt>
      <trkpt lat="43.077380424365401" lon="11.671583745628595">
        <ele>434.172607421875</ele>
        <time>2004-11-06T11:57:36Z</time>
      </trkpt>
      <trkpt lat="43.077348908409476" lon="11.671714587137103">
        <ele>435.614501953125</ele>
        <time>2004-11-06T11:57:44Z</time>
      </trkpt>
      <trkpt lat="43.077316973358393" lon="11.671852050349116">
        <ele>436.09521484375</ele>
        <time>2004-11-06T11:57:51Z</time>
      </trkpt>
      <trkpt lat="43.077284200116992" lon="11.671993369236588">
        <ele>437.537109375</ele>
        <time>2004-11-06T11:57:58Z</time>
      </trkpt>
      <trkpt lat="43.077240446582437" lon="11.672116667032242">
        <ele>438.49853515625</ele>
        <time>2004-11-06T11:58:05Z</time>
      </trkpt>
      <trkpt lat="43.077209182083607" lon="11.672242060303688">
        <ele>440.4212646484375</ele>
        <time>2004-11-06T11:58:12Z</time>
      </trkpt>
      <trkpt lat="43.077173223719001" lon="11.672366363927722">
        <ele>440.4212646484375</ele>
        <time>2004-11-06T11:58:19Z</time>
      </trkpt>
      <trkpt lat="43.077154364436865" lon="11.672506676986814">
        <ele>442.3438720703125</ele>
        <time>2004-11-06T11:58:26Z</time>
      </trkpt>
      <trkpt lat="43.077123016119003" lon="11.672640200704336">
        <ele>444.7470703125</ele>
        <time>2004-11-06T11:58:33Z</time>
      </trkpt>
      <trkpt lat="43.077084878459573" lon="11.67275913991034">
        <ele>446.669677734375</ele>
        <time>2004-11-06T11:58:39Z</time>
      </trkpt>
      <trkpt lat="43.077047243714333" lon="11.672885036095977">
        <ele>447.1502685546875</ele>
        <time>2004-11-06T11:58:45Z</time>
      </trkpt>
      <trkpt lat="43.077016985043883" lon="11.673025600612164">
        <ele>447.6309814453125</ele>
        <time>2004-11-06T11:58:51Z</time>
      </trkpt>
      <trkpt lat="43.077003993093967" lon="11.673158956691623">
        <ele>448.11181640625</ele>
        <time>2004-11-06T11:58:57Z</time>
      </trkpt>
      <trkpt lat="43.076937692239881" lon="11.673262640833855">
        <ele>448.5924072265625</ele>
        <time>2004-11-06T11:59:05Z</time>
      </trkpt>
      <trkpt lat="43.07693618349731" lon="11.67339138686657">
        <ele>448.5924072265625</ele>
        <time>2004-11-06T11:59:11Z</time>
      </trkpt>
      <trkpt lat="43.076929477974772" lon="11.673525916412473">
        <ele>449.072998046875</ele>
        <time>2004-11-06T11:59:16Z</time>
      </trkpt>
      <trkpt lat="43.076919000595808" lon="11.673665978014469">
        <ele>449.072998046875</ele>
        <time>2004-11-06T11:59:21Z</time>
      </trkpt>
      <trkpt lat="43.07691028341651" lon="11.673805117607117">
        <ele>450.034423828125</ele>
        <time>2004-11-06T11:59:26Z</time>
      </trkpt>
      <trkpt lat="43.076920928433537" lon="11.673948531970382">
        <ele>450.034423828125</ele>
        <time>2004-11-06T11:59:31Z</time>
      </trkpt>
      <trkpt lat="43.076924784108996" lon="11.674078954383731">
        <ele>450.99560546875</ele>
        <time>2004-11-06T11:59:36Z</time>
      </trkpt>
      <trkpt lat="43.076924867928028" lon="11.674207197502255">
        <ele>451.476318359375</ele>
        <time>2004-11-06T11:59:41Z</time>
      </trkpt>
      <trkpt lat="43.076927214860916" lon="11.674348935484886">
        <ele>451.476318359375</ele>
        <time>2004-11-06T11:59:46Z</time>
      </trkpt>
      <trkpt lat="43.076909277588129" lon="11.674493858590722">
        <ele>451.95703125</ele>
        <time>2004-11-06T11:59:51Z</time>
      </trkpt>
      <trkpt lat="43.076868373900652" lon="11.674612043425441">
        <ele>452.918212890625</ele>
        <time>2004-11-06T11:59:55Z</time>
      </trkpt>
      <trkpt lat="43.07682529091835" lon="11.674731569364667">
        <ele>452.918212890625</ele>
        <time>2004-11-06T11:59:59Z</time>
      </trkpt>
      <trkpt lat="43.076783465221524" lon="11.674853274598718">
        <ele>453.879638671875</ele>
        <time>2004-11-06T12:00:03Z</time>
      </trkpt>
      <trkpt lat="43.076753541827202" lon="11.674977578222752">
        <ele>454.3602294921875</ele>
        <time>2004-11-06T12:00:07Z</time>
      </trkpt>
      <trkpt lat="43.076723869889975" lon="11.675098445266485">
        <ele>455.80224609375</ele>
        <time>2004-11-06T12:00:11Z</time>
      </trkpt>
      <trkpt lat="43.076685732230544" lon="11.675245799124241">
        <ele>455.80224609375</ele>
        <time>2004-11-06T12:00:16Z</time>
      </trkpt>
      <trkpt lat="43.076645582914352" lon="11.675388375297189">
        <ele>456.7635498046875</ele>
        <time>2004-11-06T12:00:21Z</time>
      </trkpt>
      <trkpt lat="43.076609624549747" lon="11.675528855994344">
        <ele>457.7249755859375</ele>
        <time>2004-11-06T12:00:26Z</time>
      </trkpt>
      <trkpt lat="43.076579198241234" lon="11.675666235387325">
        <ele>458.6861572265625</ele>
        <time>2004-11-06T12:00:31Z</time>
      </trkpt>
      <trkpt lat="43.076533181592822" lon="11.675820797681808">
        <ele>458.6861572265625</ele>
        <time>2004-11-06T12:00:36Z</time>
      </trkpt>
      <trkpt lat="43.076495295390487" lon="11.675959601998329">
        <ele>459.6475830078125</ele>
        <time>2004-11-06T12:00:40Z</time>
      </trkpt>
      <trkpt lat="43.076461516320705" lon="11.676088683307171">
        <ele>460.128173828125</ele>
        <time>2004-11-06T12:00:44Z</time>
      </trkpt>
      <trkpt lat="43.07642606087029" lon="11.676210472360253">
        <ele>460.6087646484375</ele>
        <time>2004-11-06T12:00:48Z</time>
      </trkpt>
      <trkpt lat="43.076391527429223" lon="11.676329746842384">
        <ele>461.0894775390625</ele>
        <time>2004-11-06T12:00:52Z</time>
      </trkpt>
      <trkpt lat="43.076358502730727" lon="11.676446842029691">
        <ele>461.5701904296875</ele>
        <time>2004-11-06T12:00:56Z</time>
      </trkpt>
      <trkpt lat="43.076324639841914" lon="11.676561255007982">
        <ele>462.5313720703125</ele>
        <time>2004-11-06T12:01:00Z</time>
      </trkpt>
      <trkpt lat="43.076290776953101" lon="11.676675667986274">
        <ele>463.4927978515625</ele>
        <time>2004-11-06T12:01:04Z</time>
      </trkpt>
      <trkpt lat="43.076254399493337" lon="11.676787985488772">
        <ele>463.973388671875</ele>
        <time>2004-11-06T12:01:08Z</time>
      </trkpt>
      <trkpt lat="43.076210897415876" lon="11.676898542791605">
        <ele>464.4541015625</ele>
        <time>2004-11-06T12:01:12Z</time>
      </trkpt>
      <trkpt lat="43.07616563513875" lon="11.677007423713803">
        <ele>465.41552734375</ele>
        <time>2004-11-06T12:01:16Z</time>
      </trkpt>
      <trkpt lat="43.076121211051941" lon="11.677116556093097">
        <ele>465.8961181640625</ele>
        <time>2004-11-06T12:01:20Z</time>
      </trkpt>
      <trkpt lat="43.076082151383162" lon="11.677221916615963">
        <ele>465.8961181640625</ele>
        <time>2004-11-06T12:01:24Z</time>
      </trkpt>
      <trkpt lat="43.076060023158789" lon="11.677362313494086">
        <ele>466.857421875</ele>
        <time>2004-11-06T12:01:29Z</time>
      </trkpt>
      <trkpt lat="43.076037978753448" lon="11.677502961829305">
        <ele>468.29931640625</ele>
        <time>2004-11-06T12:01:34Z</time>
      </trkpt>
      <trkpt lat="43.076025908812881" lon="11.677650148048997">
        <ele>469.2607421875</ele>
        <time>2004-11-06T12:01:39Z</time>
      </trkpt>
      <trkpt lat="43.075993722304702" lon="11.677784090861678">
        <ele>469.7413330078125</ele>
        <time>2004-11-06T12:01:44Z</time>
      </trkpt>
      <trkpt lat="43.075966145843267" lon="11.67793270200491">
        <ele>470.70263671875</ele>
        <time>2004-11-06T12:01:48Z</time>
      </trkpt>
      <trkpt lat="43.075957177206874" lon="11.678067985922098">
        <ele>471.183349609375</ele>
        <time>2004-11-06T12:01:51Z</time>
      </trkpt>
      <trkpt lat="43.075943514704704" lon="11.678189691156149">
        <ele>471.6639404296875</ele>
        <time>2004-11-06T12:01:54Z</time>
      </trkpt>
      <trkpt lat="43.075926164165139" lon="11.67833486571908">
        <ele>472.1446533203125</ele>
        <time>2004-11-06T12:01:58Z</time>
      </trkpt>
      <trkpt lat="43.075915686786175" lon="11.678484315052629">
        <ele>472.6253662109375</ele>
        <time>2004-11-06T12:02:02Z</time>
      </trkpt>
      <trkpt lat="43.075908729806542" lon="11.678634770214558">
        <ele>473.586669921875</ele>
        <time>2004-11-06T12:02:06Z</time>
      </trkpt>
      <trkpt lat="43.075914597138762" lon="11.678777849301696">
        <ele>473.586669921875</ele>
        <time>2004-11-06T12:02:10Z</time>
      </trkpt>
      <trkpt lat="43.075930355116725" lon="11.678907433524728">
        <ele>474.0672607421875</ele>
        <time>2004-11-06T12:02:14Z</time>
      </trkpt>
      <trkpt lat="43.075931277126074" lon="11.679036347195506">
        <ele>474.5479736328125</ele>
        <time>2004-11-06T12:02:19Z</time>
      </trkpt>
      <trkpt lat="43.075949465855956" lon="11.679160818457603">
        <ele>475.9898681640625</ele>
        <time>2004-11-06T12:02:24Z</time>
      </trkpt>
      <trkpt lat="43.075977461412549" lon="11.679296437650919">
        <ele>475.9898681640625</ele>
        <time>2004-11-06T12:02:30Z</time>
      </trkpt>
      <trkpt lat="43.076017275452614" lon="11.679435074329376">
        <ele>477.431884765625</ele>
        <time>2004-11-06T12:02:36Z</time>
      </trkpt>
      <trkpt lat="43.076033368706703" lon="11.679578572511673">
        <ele>478.3931884765625</ele>
        <time>2004-11-06T12:02:42Z</time>
      </trkpt>
      <trkpt lat="43.076030854135752" lon="11.679718215018511">
        <ele>478.3931884765625</ele>
        <time>2004-11-06T12:02:48Z</time>
      </trkpt>
      <trkpt lat="43.076039319857955" lon="11.679859953001142">
        <ele>478.8739013671875</ele>
        <time>2004-11-06T12:02:54Z</time>
      </trkpt>
      <trkpt lat="43.076019622385502" lon="11.679991967976093">
        <ele>478.8739013671875</ele>
        <time>2004-11-06T12:03:00Z</time>
      </trkpt>
      <trkpt lat="43.075998667627573" lon="11.680130939930677">
        <ele>478.8739013671875</ele>
        <time>2004-11-06T12:03:05Z</time>
      </trkpt>
      <trkpt lat="43.075986178591847" lon="11.6802610270679">
        <ele>478.8739013671875</ele>
        <time>2004-11-06T12:03:10Z</time>
      </trkpt>
      <trkpt lat="43.075980562716722" lon="11.680385246872902">
        <ele>478.8739013671875</ele>
        <time>2004-11-06T12:03:15Z</time>
      </trkpt>
      <trkpt lat="43.075959188863635" lon="11.680530169978738">
        <ele>479.3544921875</ele>
        <time>2004-11-06T12:03:20Z</time>
      </trkpt>
      <trkpt lat="43.075962457805872" lon="11.680685067549348">
        <ele>479.8350830078125</ele>
        <time>2004-11-06T12:03:25Z</time>
      </trkpt>
      <trkpt lat="43.075979305431247" lon="11.68084348551929">
        <ele>479.8350830078125</ele>
        <time>2004-11-06T12:03:30Z</time>
      </trkpt>
      <trkpt lat="43.076005205512047" lon="11.680991090834141">
        <ele>480.796630859375</ele>
        <time>2004-11-06T12:03:35Z</time>
      </trkpt>
      <trkpt lat="43.076035548001528" lon="11.681130146607757">
        <ele>481.2772216796875</ele>
        <time>2004-11-06T12:03:40Z</time>
      </trkpt>
      <trkpt lat="43.076066309586167" lon="11.681260820478201">
        <ele>481.7578125</ele>
        <time>2004-11-06T12:03:45Z</time>
      </trkpt>
      <trkpt lat="43.076087767258286" lon="11.681399876251817">
        <ele>481.2772216796875</ele>
        <time>2004-11-06T12:03:51Z</time>
      </trkpt>
      <trkpt lat="43.076098747551441" lon="11.681532058864832">
        <ele>481.2772216796875</ele>
        <time>2004-11-06T12:03:57Z</time>
      </trkpt>
      <trkpt lat="43.076115930452943" lon="11.681714197620749">
        <ele>480.31591796875</ele>
        <time>2004-11-06T12:06:07Z</time>
      </trkpt>
      <trkpt lat="43.076169155538082" lon="11.681831879541278">
        <ele>479.3544921875</ele>
        <time>2004-11-06T12:06:11Z</time>
      </trkpt>
      <trkpt lat="43.076226403936744" lon="11.681930953636765">
        <ele>477.431884765625</ele>
        <time>2004-11-06T12:06:14Z</time>
      </trkpt>
      <trkpt lat="43.076313072815537" lon="11.682032290846109">
        <ele>476.4705810546875</ele>
        <time>2004-11-06T12:06:17Z</time>
      </trkpt>
      <trkpt lat="43.076397981494665" lon="11.682128347456455">
        <ele>475.0286865234375</ele>
        <time>2004-11-06T12:06:19Z</time>
      </trkpt>
      <trkpt lat="43.076505521312356" lon="11.682240832597017">
        <ele>473.1060791015625</ele>
        <time>2004-11-06T12:06:21Z</time>
      </trkpt>
      <trkpt lat="43.076643571257591" lon="11.682374021038413">
        <ele>470.221923828125</ele>
        <time>2004-11-06T12:06:23Z</time>
      </trkpt>
      <trkpt lat="43.076771982014179" lon="11.682491535320878">
        <ele>467.338134765625</ele>
        <time>2004-11-06T12:06:25Z</time>
      </trkpt>
      <trkpt lat="43.076911205425858" lon="11.682610977441072">
        <ele>466.376708984375</ele>
        <time>2004-11-06T12:06:27Z</time>
      </trkpt>
      <trkpt lat="43.077055038884282" lon="11.682739723473787">
        <ele>464.934814453125</ele>
        <time>2004-11-06T12:06:29Z</time>
      </trkpt>
      <trkpt lat="43.077191999182105" lon="11.682870900258422">
        <ele>462.5313720703125</ele>
        <time>2004-11-06T12:06:31Z</time>
      </trkpt>
      <trkpt lat="43.077335497364402" lon="11.683005597442389">
        <ele>461.0894775390625</ele>
        <time>2004-11-06T12:06:33Z</time>
      </trkpt>
      <trkpt lat="43.077465919777751" lon="11.683131828904152">
        <ele>459.1668701171875</ele>
        <time>2004-11-06T12:06:35Z</time>
      </trkpt>
      <trkpt lat="43.07754211127758" lon="11.683220509439707">
        <ele>458.20556640625</ele>
        <time>2004-11-06T12:06:38Z</time>
      </trkpt>
      <trkpt lat="43.077611848711967" lon="11.683299215510488">
        <ele>457.7249755859375</ele>
        <time>2004-11-06T12:06:41Z</time>
      </trkpt>
      <trkpt lat="43.077675048261881" lon="11.683362917974591">
        <ele>457.2442626953125</ele>
        <time>2004-11-06T12:06:44Z</time>
      </trkpt>
      <trkpt lat="43.077757442370057" lon="11.683432655408978">
        <ele>455.80224609375</ele>
        <time>2004-11-06T12:06:47Z</time>
      </trkpt>
      <trkpt lat="43.077853079885244" lon="11.683520916849375">
        <ele>454.3602294921875</ele>
        <time>2004-11-06T12:06:50Z</time>
      </trkpt>
      <trkpt lat="43.077972689643502" lon="11.683617979288101">
        <ele>453.879638671875</ele>
        <time>2004-11-06T12:06:53Z</time>
      </trkpt>
      <trkpt lat="43.078059693798423" lon="11.683685956522822">
        <ele>453.39892578125</ele>
        <time>2004-11-06T12:06:55Z</time>
      </trkpt>
      <trkpt lat="43.078169329091907" lon="11.68377673253417">
        <ele>451.476318359375</ele>
        <time>2004-11-06T12:06:57Z</time>
      </trkpt>
      <trkpt lat="43.078289022669196" lon="11.683876141905785">
        <ele>449.072998046875</ele>
        <time>2004-11-06T12:06:59Z</time>
      </trkpt>
      <trkpt lat="43.078418271616101" lon="11.683984687551856">
        <ele>447.1502685546875</ele>
        <time>2004-11-06T12:07:01Z</time>
      </trkpt>
      <trkpt lat="43.078558836132288" lon="11.6841084882617">
        <ele>445.2276611328125</ele>
        <time>2004-11-06T12:07:03Z</time>
      </trkpt>
      <trkpt lat="43.078717589378357" lon="11.68426925316453">
        <ele>442.824462890625</ele>
        <time>2004-11-06T12:07:05Z</time>
      </trkpt>
      <trkpt lat="43.078795876353979" lon="11.684349132701755">
        <ele>442.3438720703125</ele>
        <time>2004-11-06T12:07:06Z</time>
      </trkpt>
      <trkpt lat="43.078880030661821" lon="11.684428760781884">
        <ele>440.4212646484375</ele>
        <time>2004-11-06T12:07:07Z</time>
      </trkpt>
      <trkpt lat="43.078964436426759" lon="11.684508724138141">
        <ele>439.459716796875</ele>
        <time>2004-11-06T12:07:08Z</time>
      </trkpt>
      <trkpt lat="43.079052865505219" lon="11.684591621160507">
        <ele>438.49853515625</ele>
        <time>2004-11-06T12:07:09Z</time>
      </trkpt>
      <trkpt lat="43.079143557697535" lon="11.684675188735127">
        <ele>437.537109375</ele>
        <time>2004-11-06T12:07:10Z</time>
      </trkpt>
      <trkpt lat="43.079233830794692" lon="11.684759594500065">
        <ele>436.09521484375</ele>
        <time>2004-11-06T12:07:11Z</time>
      </trkpt>
      <trkpt lat="43.079326283186674" lon="11.684841234236956">
        <ele>434.172607421875</ele>
        <time>2004-11-06T12:07:12Z</time>
      </trkpt>
      <trkpt lat="43.079419070854783" lon="11.684931088238955">
        <ele>432.730712890625</ele>
        <time>2004-11-06T12:07:13Z</time>
      </trkpt>
      <trkpt lat="43.079511020332575" lon="11.685011889785528">
        <ele>431.7691650390625</ele>
        <time>2004-11-06T12:07:14Z</time>
      </trkpt>
      <trkpt lat="43.079604981467128" lon="11.685078190639615">
        <ele>430.8079833984375</ele>
        <time>2004-11-06T12:07:15Z</time>
      </trkpt>
      <trkpt lat="43.079697182402015" lon="11.685144826769829">
        <ele>429.365966796875</ele>
        <time>2004-11-06T12:07:16Z</time>
      </trkpt>
      <trkpt lat="43.07979173026979" lon="11.685209032148123">
        <ele>427.443359375</ele>
        <time>2004-11-06T12:07:17Z</time>
      </trkpt>
      <trkpt lat="43.079883009195328" lon="11.685267705470324">
        <ele>426.0013427734375</ele>
        <time>2004-11-06T12:07:18Z</time>
      </trkpt>
      <trkpt lat="43.079967582598329" lon="11.685321601107717">
        <ele>424.5594482421875</ele>
        <time>2004-11-06T12:07:19Z</time>
      </trkpt>
      <trkpt lat="43.080049054697156" lon="11.685385638847947">
        <ele>423.117431640625</ele>
        <time>2004-11-06T12:07:20Z</time>
      </trkpt>
      <trkpt lat="43.080121222883463" lon="11.68546442873776">
        <ele>420.714111328125</ele>
        <time>2004-11-06T12:07:21Z</time>
      </trkpt>
      <trkpt lat="43.08018509298563" lon="11.685552354902029">
        <ele>419.7528076171875</ele>
        <time>2004-11-06T12:07:22Z</time>
      </trkpt>
      <trkpt lat="43.080306462943554" lon="11.685744216665626">
        <ele>416.868896484375</ele>
        <time>2004-11-06T12:07:24Z</time>
      </trkpt>
      <trkpt lat="43.080409727990627" lon="11.685920404270291">
        <ele>414.4654541015625</ele>
        <time>2004-11-06T12:07:26Z</time>
      </trkpt>
      <trkpt lat="43.080500923097134" lon="11.686067003756762">
        <ele>411.5816650390625</ele>
        <time>2004-11-06T12:07:28Z</time>
      </trkpt>
      <trkpt lat="43.080580048263073" lon="11.68617638759315">
        <ele>410.1396484375</ele>
        <time>2004-11-06T12:07:30Z</time>
      </trkpt>
      <trkpt lat="43.080680882558227" lon="11.686171358451247">
        <ele>407.736328125</ele>
        <time>2004-11-06T12:07:33Z</time>
      </trkpt>
      <trkpt lat="43.080743076279759" lon="11.686042612418532">
        <ele>405.813720703125</ele>
        <time>2004-11-06T12:07:36Z</time>
      </trkpt>
      <trkpt lat="43.080778447911143" lon="11.685885200276971">
        <ele>404.852294921875</ele>
        <time>2004-11-06T12:07:38Z</time>
      </trkpt>
      <trkpt lat="43.080846006050706" lon="11.685761986300349">
        <ele>403.410400390625</ele>
        <time>2004-11-06T12:07:40Z</time>
      </trkpt>
      <trkpt lat="43.080934016034007" lon="11.685723597183824">
        <ele>402.4490966796875</ele>
        <time>2004-11-06T12:07:42Z</time>
      </trkpt>
      <trkpt lat="43.081035185605288" lon="11.685750503093004">
        <ele>402.9296875</ele>
        <time>2004-11-06T12:07:45Z</time>
      </trkpt>
      <trkpt lat="43.081114226952195" lon="11.685807500034571">
        <ele>405.3330078125</ele>
        <time>2004-11-06T12:07:50Z</time>
      </trkpt>
      <trkpt lat="43.081200057640672" lon="11.685876818373799">
        <ele>406.77490234375</ele>
        <time>2004-11-06T12:07:56Z</time>
      </trkpt>
      <trkpt lat="43.081281697377563" lon="11.685961475595832">
        <ele>408.6976318359375</ele>
        <time>2004-11-06T12:08:02Z</time>
      </trkpt>
      <trkpt lat="43.081352943554521" lon="11.686052419245243">
        <ele>410.6202392578125</ele>
        <time>2004-11-06T12:08:08Z</time>
      </trkpt>
      <trkpt lat="43.081425027921796" lon="11.686163395643234">
        <ele>412.062255859375</ele>
        <time>2004-11-06T12:08:14Z</time>
      </trkpt>
      <trkpt lat="43.081477414816618" lon="11.686271270737052">
        <ele>413.5042724609375</ele>
        <time>2004-11-06T12:08:20Z</time>
      </trkpt>
      <trkpt lat="43.08152393437922" lon="11.686378978192806">
        <ele>414.9461669921875</ele>
        <time>2004-11-06T12:08:26Z</time>
      </trkpt>
      <trkpt lat="43.081576824188232" lon="11.686487607657909">
        <ele>415.907470703125</ele>
        <time>2004-11-06T12:08:32Z</time>
      </trkpt>
      <trkpt lat="43.08162753470242" lon="11.68660880997777">
        <ele>416.868896484375</ele>
        <time>2004-11-06T12:08:38Z</time>
      </trkpt>
      <trkpt lat="43.081670869141817" lon="11.686722803860903">
        <ele>417.8302001953125</ele>
        <time>2004-11-06T12:08:43Z</time>
      </trkpt>
      <trkpt lat="43.081723675131798" lon="11.686847023665905">
        <ele>418.310791015625</ele>
        <time>2004-11-06T12:08:48Z</time>
      </trkpt>
      <trkpt lat="43.081773379817605" lon="11.686972416937351">
        <ele>418.79150390625</ele>
        <time>2004-11-06T12:08:53Z</time>
      </trkpt>
      <trkpt lat="43.08182149194181" lon="11.687088506296277">
        <ele>419.272216796875</ele>
        <time>2004-11-06T12:08:58Z</time>
      </trkpt>
      <trkpt lat="43.081861138343811" lon="11.687203254550695">
        <ele>420.714111328125</ele>
        <time>2004-11-06T12:09:03Z</time>
      </trkpt>
      <trkpt lat="43.081868346780539" lon="11.687335185706615">
        <ele>419.7528076171875</ele>
        <time>2004-11-06T12:09:10Z</time>
      </trkpt>
      <trkpt lat="43.081822749227285" lon="11.687461500987411">
        <ele>419.7528076171875</ele>
        <time>2004-11-06T12:09:16Z</time>
      </trkpt>
      <trkpt lat="43.081770949065685" lon="11.687565939500928">
        <ele>420.2333984375</ele>
        <time>2004-11-06T12:09:21Z</time>
      </trkpt>
      <trkpt lat="43.081706743687391" lon="11.687671635299921">
        <ele>420.2333984375</ele>
        <time>2004-11-06T12:09:26Z</time>
      </trkpt>
      <trkpt lat="43.081631474196911" lon="11.687780935317278">
        <ele>420.714111328125</ele>
        <time>2004-11-06T12:09:31Z</time>
      </trkpt>
      <trkpt lat="43.081557713449001" lon="11.687872633337975">
        <ele>421.19482421875</ele>
        <time>2004-11-06T12:09:35Z</time>
      </trkpt>
      <trkpt lat="43.081477079540491" lon="11.68795402161777">
        <ele>421.6754150390625</ele>
        <time>2004-11-06T12:09:39Z</time>
      </trkpt>
      <trkpt lat="43.08137783780694" lon="11.688013281673193">
        <ele>421.6754150390625</ele>
        <time>2004-11-06T12:09:43Z</time>
      </trkpt>
      <trkpt lat="43.081293851137161" lon="11.688085198402405">
        <ele>422.156005859375</ele>
        <time>2004-11-06T12:09:47Z</time>
      </trkpt>
      <trkpt lat="43.081208607181907" lon="11.688137585297227">
        <ele>423.117431640625</ele>
        <time>2004-11-06T12:09:51Z</time>
      </trkpt>
      <trkpt lat="43.08111447840929" lon="11.688178908079863">
        <ele>423.5980224609375</ele>
        <time>2004-11-06T12:09:55Z</time>
      </trkpt>
      <trkpt lat="43.081019427627325" lon="11.688222661614418">
        <ele>423.5980224609375</ele>
        <time>2004-11-06T12:09:59Z</time>
      </trkpt>
      <trkpt lat="43.080927478149533" lon="11.688264152035117">
        <ele>423.5980224609375</ele>
        <time>2004-11-06T12:10:03Z</time>
      </trkpt>
      <trkpt lat="43.080839551985264" lon="11.688307905569673">
        <ele>423.117431640625</ele>
        <time>2004-11-06T12:10:07Z</time>
      </trkpt>
      <trkpt lat="43.080739555880427" lon="11.688355347141623">
        <ele>423.117431640625</ele>
        <time>2004-11-06T12:10:11Z</time>
      </trkpt>
      <trkpt lat="43.080629501491785" lon="11.688406141474843">
        <ele>422.63671875</ele>
        <time>2004-11-06T12:10:15Z</time>
      </trkpt>
      <trkpt lat="43.08053688146174" lon="11.688446206972003">
        <ele>421.6754150390625</ele>
        <time>2004-11-06T12:10:18Z</time>
      </trkpt>
      <trkpt lat="43.080442082136869" lon="11.688482081517577">
        <ele>421.19482421875</ele>
        <time>2004-11-06T12:10:21Z</time>
      </trkpt>
      <trkpt lat="43.080348540097475" lon="11.688525248318911">
        <ele>420.2333984375</ele>
        <time>2004-11-06T12:10:24Z</time>
      </trkpt>
      <trkpt lat="43.080244353041053" lon="11.688560536131263">
        <ele>419.272216796875</ele>
        <time>2004-11-06T12:10:27Z</time>
      </trkpt>
      <trkpt lat="43.08014209382236" lon="11.688618790358305">
        <ele>419.272216796875</ele>
        <time>2004-11-06T12:10:30Z</time>
      </trkpt>
      <trkpt lat="43.080035224556923" lon="11.688696155324578">
        <ele>418.310791015625</ele>
        <time>2004-11-06T12:10:33Z</time>
      </trkpt>
      <trkpt lat="43.079941850155592" lon="11.688766479492188">
        <ele>417.349609375</ele>
        <time>2004-11-06T12:10:35Z</time>
      </trkpt>
      <trkpt lat="43.079842021688819" lon="11.688834456726909">
        <ele>416.38818359375</ele>
        <time>2004-11-06T12:10:37Z</time>
      </trkpt>
      <trkpt lat="43.079757783561945" lon="11.688874354586005">
        <ele>415.907470703125</ele>
        <time>2004-11-06T12:10:39Z</time>
      </trkpt>
      <trkpt lat="43.079695086926222" lon="11.688926992937922">
        <ele>415.4268798828125</ele>
        <time>2004-11-06T12:13:23Z</time>
      </trkpt>
      <trkpt lat="43.079599197953939" lon="11.688940152525902">
        <ele>415.907470703125</ele>
        <time>2004-11-06T12:13:27Z</time>
      </trkpt>
      <trkpt lat="43.079481516033411" lon="11.688977368175983">
        <ele>416.868896484375</ele>
        <time>2004-11-06T12:13:31Z</time>
      </trkpt>
      <trkpt lat="43.079392081126571" lon="11.689020367339253">
        <ele>417.8302001953125</ele>
        <time>2004-11-06T12:13:34Z</time>
      </trkpt>
      <trkpt lat="43.07930750772357" lon="11.689075520262122">
        <ele>418.310791015625</ele>
        <time>2004-11-06T12:13:37Z</time>
      </trkpt>
      <trkpt lat="43.079214720055461" lon="11.689150705933571">
        <ele>417.8302001953125</ele>
        <time>2004-11-06T12:13:41Z</time>
      </trkpt>
      <trkpt lat="43.079124363139272" lon="11.689222035929561">
        <ele>418.310791015625</ele>
        <time>2004-11-06T12:13:44Z</time>
      </trkpt>
      <trkpt lat="43.079004418104887" lon="11.689296215772629">
        <ele>417.349609375</ele>
        <time>2004-11-06T12:13:47Z</time>
      </trkpt>
      <trkpt lat="43.078917916864157" lon="11.689346926286817">
        <ele>417.349609375</ele>
        <time>2004-11-06T12:13:49Z</time>
      </trkpt>
      <trkpt lat="43.078839294612408" lon="11.689386572688818">
        <ele>417.349609375</ele>
        <time>2004-11-06T12:13:52Z</time>
      </trkpt>
      <trkpt lat="43.078761091455817" lon="11.689456729218364">
        <ele>417.349609375</ele>
        <time>2004-11-06T12:13:58Z</time>
      </trkpt>
      <trkpt lat="43.078663526102901" lon="11.689560497179627">
        <ele>417.349609375</ele>
        <time>2004-11-06T12:14:03Z</time>
      </trkpt>
      <trkpt lat="43.078583311289549" lon="11.68967398814857">
        <ele>415.907470703125</ele>
        <time>2004-11-06T12:14:07Z</time>
      </trkpt>
      <trkpt lat="43.078512484207749" lon="11.689775073900819">
        <ele>416.38818359375</ele>
        <time>2004-11-06T12:14:11Z</time>
      </trkpt>
      <trkpt lat="43.078442998230457" lon="11.68987087905407">
        <ele>416.38818359375</ele>
        <time>2004-11-06T12:14:15Z</time>
      </trkpt>
      <trkpt lat="43.078375859186053" lon="11.689954278990626">
        <ele>415.907470703125</ele>
        <time>2004-11-06T12:14:19Z</time>
      </trkpt>
      <trkpt lat="43.078299583867192" lon="11.690013706684113">
        <ele>415.907470703125</ele>
        <time>2004-11-06T12:14:24Z</time>
      </trkpt>
      <trkpt lat="43.078205035999417" lon="11.69006978161633">
        <ele>416.38818359375</ele>
        <time>2004-11-06T12:15:13Z</time>
      </trkpt>
      <trkpt lat="43.078101268038154" lon="11.690087551251054">
        <ele>416.38818359375</ele>
        <time>2004-11-06T12:15:18Z</time>
      </trkpt>
      <trkpt lat="43.078004373237491" lon="11.690086545422673">
        <ele>416.868896484375</ele>
        <time>2004-11-06T12:15:22Z</time>
      </trkpt>
      <trkpt lat="43.077892307192087" lon="11.69008394703269">
        <ele>416.38818359375</ele>
        <time>2004-11-06T12:15:26Z</time>
      </trkpt>
      <trkpt lat="43.077784013003111" lon="11.690081683918834">
        <ele>416.868896484375</ele>
        <time>2004-11-06T12:15:30Z</time>
      </trkpt>
      <trkpt lat="43.077664570882916" lon="11.690079839900136">
        <ele>415.907470703125</ele>
        <time>2004-11-06T12:15:34Z</time>
      </trkpt>
      <trkpt lat="43.0775704421103" lon="11.690079001709819">
        <ele>415.907470703125</ele>
        <time>2004-11-06T12:15:37Z</time>
      </trkpt>
      <trkpt lat="43.077477905899286" lon="11.690081935375929">
        <ele>415.4268798828125</ele>
        <time>2004-11-06T12:15:40Z</time>
      </trkpt>
      <trkpt lat="43.077363660559058" lon="11.690077744424343">
        <ele>415.907470703125</ele>
        <time>2004-11-06T12:15:44Z</time>
      </trkpt>
      <trkpt lat="43.077245643362403" lon="11.690080929547548">
        <ele>415.4268798828125</ele>
        <time>2004-11-06T12:15:48Z</time>
      </trkpt>
      <trkpt lat="43.077153190970421" lon="11.690079085528851">
        <ele>415.4268798828125</ele>
        <time>2004-11-06T12:15:51Z</time>
      </trkpt>
      <trkpt lat="43.077058307826519" lon="11.690079839900136">
        <ele>416.38818359375</ele>
        <time>2004-11-06T12:15:54Z</time>
      </trkpt>
      <trkpt lat="43.076952947303653" lon="11.690084114670753">
        <ele>415.907470703125</ele>
        <time>2004-11-06T12:15:57Z</time>
      </trkpt>
      <trkpt lat="43.076841216534376" lon="11.690088305622339">
        <ele>415.907470703125</ele>
        <time>2004-11-06T12:16:00Z</time>
      </trkpt>
      <trkpt lat="43.076733760535717" lon="11.690093670040369">
        <ele>415.4268798828125</ele>
        <time>2004-11-06T12:16:03Z</time>
      </trkpt>
      <trkpt lat="43.076620856299996" lon="11.690101465210319">
        <ele>415.4268798828125</ele>
        <time>2004-11-06T12:16:06Z</time>
      </trkpt>
      <trkpt lat="43.076498145237565" lon="11.690109679475427">
        <ele>414.9461669921875</ele>
        <time>2004-11-06T12:16:09Z</time>
      </trkpt>
      <trkpt lat="43.076377026736736" lon="11.690114876255393">
        <ele>414.4654541015625</ele>
        <time>2004-11-06T12:16:12Z</time>
      </trkpt>
      <trkpt lat="43.076258422806859" lon="11.690122168511152">
        <ele>414.4654541015625</ele>
        <time>2004-11-06T12:16:15Z</time>
      </trkpt>
      <trkpt lat="43.076135544106364" lon="11.69012987986207">
        <ele>414.4654541015625</ele>
        <time>2004-11-06T12:16:18Z</time>
      </trkpt>
      <trkpt lat="43.076009731739759" lon="11.690136669203639">
        <ele>413.98486328125</ele>
        <time>2004-11-06T12:16:21Z</time>
      </trkpt>
      <trkpt lat="43.07589104399085" lon="11.690143961459398">
        <ele>413.98486328125</ele>
        <time>2004-11-06T12:16:24Z</time>
      </trkpt>
      <trkpt lat="43.075776379555464" lon="11.69015041552484">
        <ele>413.98486328125</ele>
        <time>2004-11-06T12:16:27Z</time>
      </trkpt>
      <trkpt lat="43.07566674426198" lon="11.690152175724506">
        <ele>414.4654541015625</ele>
        <time>2004-11-06T12:16:30Z</time>
      </trkpt>
      <trkpt lat="43.075558366253972" lon="11.69015234336257">
        <ele>414.4654541015625</ele>
        <time>2004-11-06T12:16:33Z</time>
      </trkpt>
      <trkpt lat="43.075458705425262" lon="11.690150834619999">
        <ele>414.9461669921875</ele>
        <time>2004-11-06T12:16:36Z</time>
      </trkpt>
      <trkpt lat="43.075361726805568" lon="11.690146643668413">
        <ele>414.9461669921875</ele>
        <time>2004-11-06T12:16:39Z</time>
      </trkpt>
      <trkpt lat="43.075258210301399" lon="11.690131137147546">
        <ele>414.9461669921875</ele>
        <time>2004-11-06T12:16:43Z</time>
      </trkpt>
      <trkpt lat="43.075171625241637" lon="11.690112529322505">
        <ele>415.4268798828125</ele>
        <time>2004-11-06T12:16:47Z</time>
      </trkpt>
      <trkpt lat="43.075067857280374" lon="11.690089982002974">
        <ele>416.868896484375</ele>
        <time>2004-11-06T12:16:53Z</time>
      </trkpt>
      <trkpt lat="43.07498068548739" lon="11.690069613978267">
        <ele>418.310791015625</ele>
        <time>2004-11-06T12:16:58Z</time>
      </trkpt>
      <trkpt lat="43.074880437925458" lon="11.690047485753894">
        <ele>419.272216796875</ele>
        <time>2004-11-06T12:17:04Z</time>
      </trkpt>
      <trkpt lat="43.074777256697416" lon="11.690030470490456">
        <ele>420.2333984375</ele>
        <time>2004-11-06T12:17:10Z</time>
      </trkpt>
      <trkpt lat="43.074682038277388" lon="11.690004905685782">
        <ele>422.156005859375</ele>
        <time>2004-11-06T12:17:16Z</time>
      </trkpt>
      <trkpt lat="43.074581623077393" lon="11.689997529610991">
        <ele>423.117431640625</ele>
        <time>2004-11-06T12:17:22Z</time>
      </trkpt>
      <trkpt lat="43.074480956420302" lon="11.689980933442712">
        <ele>424.5594482421875</ele>
        <time>2004-11-06T12:17:28Z</time>
      </trkpt>
      <trkpt lat="43.074386576190591" lon="11.689971042796969">
        <ele>426.0013427734375</ele>
        <time>2004-11-06T12:17:34Z</time>
      </trkpt>
      <trkpt lat="43.074287166818976" lon="11.689970204606652">
        <ele>426.9627685546875</ele>
        <time>2004-11-06T12:17:40Z</time>
      </trkpt>
      <trkpt lat="43.074186332523823" lon="11.689980598166585">
        <ele>427.9239501953125</ele>
        <time>2004-11-06T12:17:46Z</time>
      </trkpt>
      <trkpt lat="43.07408700697124" lon="11.690008593723178">
        <ele>429.365966796875</ele>
        <time>2004-11-06T12:17:52Z</time>
      </trkpt>
      <trkpt lat="43.07398927398026" lon="11.690045641735196">
        <ele>430.3272705078125</ele>
        <time>2004-11-06T12:17:58Z</time>
      </trkpt>
      <trkpt lat="43.073895396664739" lon="11.690087970346212">
        <ele>431.7691650390625</ele>
        <time>2004-11-06T12:18:04Z</time>
      </trkpt>
      <trkpt lat="43.073807805776596" lon="11.690140943974257">
        <ele>432.730712890625</ele>
        <time>2004-11-06T12:18:10Z</time>
      </trkpt>
      <trkpt lat="43.073722394183278" lon="11.690208753570914">
        <ele>434.172607421875</ele>
        <time>2004-11-06T12:18:16Z</time>
      </trkpt>
      <trkpt lat="43.073631031438708" lon="11.69029357843101">
        <ele>435.1339111328125</ele>
        <time>2004-11-06T12:18:22Z</time>
      </trkpt>
      <trkpt lat="43.073562635108829" lon="11.690389383584261">
        <ele>435.614501953125</ele>
        <time>2004-11-06T12:18:27Z</time>
      </trkpt>
      <trkpt lat="43.073509996756911" lon="11.690485272556543">
        <ele>436.09521484375</ele>
        <time>2004-11-06T12:18:32Z</time>
      </trkpt>
      <trkpt lat="43.073457023128867" lon="11.690611923113465">
        <ele>438.017822265625</ele>
        <time>2004-11-06T12:18:38Z</time>
      </trkpt>
      <trkpt lat="43.073408408090472" lon="11.690739244222641">
        <ele>438.9791259765625</ele>
        <time>2004-11-06T12:18:44Z</time>
      </trkpt>
      <trkpt lat="43.073362894356251" lon="11.690859692171216">
        <ele>441.3824462890625</ele>
        <time>2004-11-06T12:18:50Z</time>
      </trkpt>
      <trkpt lat="43.073311094194651" lon="11.690970920026302">
        <ele>442.3438720703125</ele>
        <time>2004-11-06T12:18:56Z</time>
      </trkpt>
      <trkpt lat="43.073261892423034" lon="11.691093714907765">
        <ele>442.824462890625</ele>
        <time>2004-11-06T12:19:02Z</time>
      </trkpt>
      <trkpt lat="43.073207242414355" lon="11.691209888085723">
        <ele>443.7857666015625</ele>
        <time>2004-11-06T12:19:07Z</time>
      </trkpt>
      <trkpt lat="43.073148569092155" lon="11.691329581663013">
        <ele>444.7470703125</ele>
        <time>2004-11-06T12:19:12Z</time>
      </trkpt>
      <trkpt lat="43.073093835264444" lon="11.691439803689718">
        <ele>445.7083740234375</ele>
        <time>2004-11-06T12:19:17Z</time>
      </trkpt>
      <trkpt lat="43.073034826666117" lon="11.691565699875355">
        <ele>446.1890869140625</ele>
        <time>2004-11-06T12:19:22Z</time>
      </trkpt>
      <trkpt lat="43.072984954342246" lon="11.691670557484031">
        <ele>446.669677734375</ele>
        <time>2004-11-06T12:19:26Z</time>
      </trkpt>
      <trkpt lat="43.07293089106679" lon="11.691772397607565">
        <ele>447.1502685546875</ele>
        <time>2004-11-06T12:19:30Z</time>
      </trkpt>
      <trkpt lat="43.072870122268796" lon="11.691871555522084">
        <ele>447.6309814453125</ele>
        <time>2004-11-06T12:19:34Z</time>
      </trkpt>
      <trkpt lat="43.072809688746929" lon="11.691980184987187">
        <ele>447.6309814453125</ele>
        <time>2004-11-06T12:19:38Z</time>
      </trkpt>
      <trkpt lat="43.072752188891172" lon="11.692098705098033">
        <ele>447.6309814453125</ele>
        <time>2004-11-06T12:19:42Z</time>
      </trkpt>
      <trkpt lat="43.072688402608037" lon="11.69221487827599">
        <ele>448.5924072265625</ele>
        <time>2004-11-06T12:19:46Z</time>
      </trkpt>
      <trkpt lat="43.072631740942597" lon="11.692328369244933">
        <ele>449.072998046875</ele>
        <time>2004-11-06T12:19:50Z</time>
      </trkpt>
      <trkpt lat="43.072579521685839" lon="11.692439345642924">
        <ele>449.5537109375</ele>
        <time>2004-11-06T12:19:54Z</time>
      </trkpt>
      <trkpt lat="43.072528140619397" lon="11.692564990371466">
        <ele>450.034423828125</ele>
        <time>2004-11-06T12:19:58Z</time>
      </trkpt>
      <trkpt lat="43.072478016838431" lon="11.692680241540074">
        <ele>450.034423828125</ele>
        <time>2004-11-06T12:20:02Z</time>
      </trkpt>
      <trkpt lat="43.072436107322574" lon="11.692793061956763">
        <ele>450.5150146484375</ele>
        <time>2004-11-06T12:20:06Z</time>
      </trkpt>
      <trkpt lat="43.072391096502542" lon="11.692923316732049">
        <ele>450.5150146484375</ele>
        <time>2004-11-06T12:20:11Z</time>
      </trkpt>
      <trkpt lat="43.072355473414063" lon="11.693048626184464">
        <ele>450.034423828125</ele>
        <time>2004-11-06T12:20:16Z</time>
      </trkpt>
      <trkpt lat="43.072301242500544" lon="11.693167900666595">
        <ele>448.5924072265625</ele>
        <time>2004-11-06T12:20:22Z</time>
      </trkpt>
      <trkpt lat="43.072233768180013" lon="11.69329471886158">
        <ele>447.6309814453125</ele>
        <time>2004-11-06T12:20:26Z</time>
      </trkpt>
      <trkpt lat="43.072162354364991" lon="11.693412149325013">
        <ele>445.2276611328125</ele>
        <time>2004-11-06T12:20:29Z</time>
      </trkpt>
      <trkpt lat="43.072081301361322" lon="11.693562939763069">
        <ele>443.7857666015625</ele>
        <time>2004-11-06T12:20:32Z</time>
      </trkpt>
      <trkpt lat="43.072011480107903" lon="11.693650530651212">
        <ele>442.3438720703125</ele>
        <time>2004-11-06T12:20:34Z</time>
      </trkpt>
      <trkpt lat="43.071903772652149" lon="11.693753041327">
        <ele>441.3824462890625</ele>
        <time>2004-11-06T12:20:37Z</time>
      </trkpt>
      <trkpt lat="43.071785671636462" lon="11.693816659972072">
        <ele>440.4212646484375</ele>
        <time>2004-11-06T12:20:40Z</time>
      </trkpt>
      <trkpt lat="43.071706630289555" lon="11.693892432376742">
        <ele>438.49853515625</ele>
        <time>2004-11-06T12:20:43Z</time>
      </trkpt>
      <trkpt lat="43.071748958900571" lon="11.694035427644849">
        <ele>436.575927734375</ele>
        <time>2004-11-06T12:20:46Z</time>
      </trkpt>
      <trkpt lat="43.071803776547313" lon="11.694168951362371">
        <ele>435.614501953125</ele>
        <time>2004-11-06T12:20:48Z</time>
      </trkpt>
      <trkpt lat="43.071833364665508" lon="11.694339523091912">
        <ele>431.7691650390625</ele>
        <time>2004-11-06T12:20:50Z</time>
      </trkpt>
      <trkpt lat="43.071839734911919" lon="11.694536078721285">
        <ele>429.8465576171875</ele>
        <time>2004-11-06T12:20:52Z</time>
      </trkpt>
      <trkpt lat="43.071832275018096" lon="11.694733807817101">
        <ele>426.9627685546875</ele>
        <time>2004-11-06T12:20:54Z</time>
      </trkpt>
      <trkpt lat="43.071806794032454" lon="11.694921143352985">
        <ele>425.520751953125</ele>
        <time>2004-11-06T12:20:56Z</time>
      </trkpt>
      <trkpt lat="43.071764716878533" lon="11.695100851356983">
        <ele>424.0787353515625</ele>
        <time>2004-11-06T12:20:58Z</time>
      </trkpt>
      <trkpt lat="43.071708055213094" lon="11.695279134437442">
        <ele>421.19482421875</ele>
        <time>2004-11-06T12:21:00Z</time>
      </trkpt>
      <trkpt lat="43.071586517617106" lon="11.695429338142276">
        <ele>420.2333984375</ele>
        <time>2004-11-06T12:21:02Z</time>
      </trkpt>
      <trkpt lat="43.071495406329632" lon="11.695499829947948">
        <ele>419.272216796875</ele>
        <time>2004-11-06T12:21:03Z</time>
      </trkpt>
      <trkpt lat="43.071413096040487" lon="11.695561017841101">
        <ele>418.79150390625</ele>
        <time>2004-11-06T12:21:04Z</time>
      </trkpt>
      <trkpt lat="43.071330785751343" lon="11.695622205734253">
        <ele>417.349609375</ele>
        <time>2004-11-06T12:21:05Z</time>
      </trkpt>
      <trkpt lat="43.071248978376389" lon="11.695675179362297">
        <ele>416.868896484375</ele>
        <time>2004-11-06T12:21:06Z</time>
      </trkpt>
      <trkpt lat="43.071162812411785" lon="11.69573150575161">
        <ele>415.4268798828125</ele>
        <time>2004-11-06T12:21:07Z</time>
      </trkpt>
      <trkpt lat="43.071076646447182" lon="11.695787832140923">
        <ele>414.4654541015625</ele>
        <time>2004-11-06T12:21:08Z</time>
      </trkpt>
      <trkpt lat="43.070984948426485" lon="11.695839632302523">
        <ele>413.98486328125</ele>
        <time>2004-11-06T12:21:09Z</time>
      </trkpt>
      <trkpt lat="43.070895429700613" lon="11.695899059996009">
        <ele>413.0235595703125</ele>
        <time>2004-11-06T12:21:10Z</time>
      </trkpt>
      <trkpt lat="43.070803061127663" lon="11.695962091907859">
        <ele>412.5428466796875</ele>
        <time>2004-11-06T12:21:11Z</time>
      </trkpt>
      <trkpt lat="43.070710273459554" lon="11.696033840999007">
        <ele>411.5816650390625</ele>
        <time>2004-11-06T12:21:12Z</time>
      </trkpt>
      <trkpt lat="43.070621006190777" lon="11.696108356118202">
        <ele>410.6202392578125</ele>
        <time>2004-11-06T12:21:13Z</time>
      </trkpt>
      <trkpt lat="43.070532409474254" lon="11.696188738569617">
        <ele>409.6590576171875</ele>
        <time>2004-11-06T12:21:14Z</time>
      </trkpt>
      <trkpt lat="43.070444734767079" lon="11.69627146795392">
        <ele>408.217041015625</ele>
        <time>2004-11-06T12:21:15Z</time>
      </trkpt>
      <trkpt lat="43.070369716733694" lon="11.696355706080794">
        <ele>407.255615234375</ele>
        <time>2004-11-06T12:21:16Z</time>
      </trkpt>
      <trkpt lat="43.070304756984115" lon="11.696432149037719">
        <ele>407.255615234375</ele>
        <time>2004-11-06T12:21:17Z</time>
      </trkpt>
      <trkpt lat="43.070181291550398" lon="11.69657732360065">
        <ele>405.813720703125</ele>
        <time>2004-11-06T12:21:19Z</time>
      </trkpt>
      <trkpt lat="43.070063777267933" lon="11.696718307211995">
        <ele>402.9296875</ele>
        <time>2004-11-06T12:21:21Z</time>
      </trkpt>
      <trkpt lat="43.069969229400158" lon="11.696842694655061">
        <ele>401.007080078125</ele>
        <time>2004-11-06T12:21:23Z</time>
      </trkpt>
      <trkpt lat="43.069888846948743" lon="11.696971692144871">
        <ele>399.5650634765625</ele>
        <time>2004-11-06T12:21:25Z</time>
      </trkpt>
      <trkpt lat="43.069903431460261" lon="11.697143940255046">
        <ele>398.1231689453125</ele>
        <time>2004-11-06T12:21:27Z</time>
      </trkpt>
      <trkpt lat="43.069957746192813" lon="11.697311410680413">
        <ele>395.7198486328125</ele>
        <time>2004-11-06T12:21:29Z</time>
      </trkpt>
      <trkpt lat="43.070038966834545" lon="11.697464799508452">
        <ele>394.2779541015625</ele>
        <time>2004-11-06T12:21:31Z</time>
      </trkpt>
      <trkpt lat="43.070127395913005" lon="11.697620870545506">
        <ele>392.3553466796875</ele>
        <time>2004-11-06T12:21:33Z</time>
      </trkpt>
      <trkpt lat="43.070187577977777" lon="11.697801584377885">
        <ele>390.4326171875</ele>
        <time>2004-11-06T12:21:35Z</time>
      </trkpt>
      <trkpt lat="43.070204257965088" lon="11.69802219606936">
        <ele>387.548583984375</ele>
        <time>2004-11-06T12:21:37Z</time>
      </trkpt>
      <trkpt lat="43.070172071456909" lon="11.69823719188571">
        <ele>386.106689453125</ele>
        <time>2004-11-06T12:21:39Z</time>
      </trkpt>
      <trkpt lat="43.070089761167765" lon="11.698449170216918">
        <ele>383.22265625</ele>
        <time>2004-11-06T12:21:41Z</time>
      </trkpt>
      <trkpt lat="43.070037709549069" lon="11.698558302596211">
        <ele>382.2613525390625</ele>
        <time>2004-11-06T12:21:42Z</time>
      </trkpt>
      <trkpt lat="43.069985490292311" lon="11.698668692260981">
        <ele>380.8194580078125</ele>
        <time>2004-11-06T12:21:43Z</time>
      </trkpt>
      <trkpt lat="43.069933354854584" lon="11.698778411373496">
        <ele>379.8580322265625</ele>
        <time>2004-11-06T12:21:44Z</time>
      </trkpt>
      <trkpt lat="43.069880548864603" lon="11.698890561237931">
        <ele>377.9354248046875</ele>
        <time>2004-11-06T12:21:45Z</time>
      </trkpt>
      <trkpt lat="43.069834196940064" lon="11.699000028893352">
        <ele>376.4935302734375</ele>
        <time>2004-11-06T12:21:46Z</time>
      </trkpt>
      <trkpt lat="43.069794215261936" lon="11.699112011119723">
        <ele>375.5321044921875</ele>
        <time>2004-11-06T12:21:47Z</time>
      </trkpt>
      <trkpt lat="43.069760352373123" lon="11.699225921183825">
        <ele>374.090087890625</ele>
        <time>2004-11-06T12:21:48Z</time>
      </trkpt>
      <trkpt lat="43.069735039025545" lon="11.699345614761114">
        <ele>373.6094970703125</ele>
        <time>2004-11-06T12:21:49Z</time>
      </trkpt>
      <trkpt lat="43.069715090095997" lon="11.699474863708019">
        <ele>372.16748046875</ele>
        <time>2004-11-06T12:21:50Z</time>
      </trkpt>
      <trkpt lat="43.069698577746749" lon="11.699612746015191">
        <ele>371.206298828125</ele>
        <time>2004-11-06T12:21:51Z</time>
      </trkpt>
      <trkpt lat="43.069685166701674" lon="11.699753561988473">
        <ele>369.7642822265625</ele>
        <time>2004-11-06T12:21:52Z</time>
      </trkpt>
      <trkpt lat="43.069673851132393" lon="11.699887001886964">
        <ele>369.28369140625</ele>
        <time>2004-11-06T12:21:53Z</time>
      </trkpt>
      <trkpt lat="43.06966295465827" lon="11.700006192550063">
        <ele>366.8802490234375</ele>
        <time>2004-11-06T12:21:54Z</time>
      </trkpt>
      <trkpt lat="43.069655578583479" lon="11.700146337971091">
        <ele>365.9189453125</ele>
        <time>2004-11-06T12:21:55Z</time>
      </trkpt>
      <trkpt lat="43.069644849747419" lon="11.700291344895959">
        <ele>365.4383544921875</ele>
        <time>2004-11-06T12:21:56Z</time>
      </trkpt>
      <trkpt lat="43.069630851969123" lon="11.700434759259224">
        <ele>363.996337890625</ele>
        <time>2004-11-06T12:21:57Z</time>
      </trkpt>
      <trkpt lat="43.069612495601177" lon="11.700581023469567">
        <ele>362.07373046875</ele>
        <time>2004-11-06T12:21:58Z</time>
      </trkpt>
      <trkpt lat="43.069591540843248" lon="11.700718821957707">
        <ele>360.151123046875</ele>
        <time>2004-11-06T12:21:59Z</time>
      </trkpt>
      <trkpt lat="43.069573435932398" lon="11.700843796133995">
        <ele>359.189697265625</ele>
        <time>2004-11-06T12:22:00Z</time>
      </trkpt>
      <trkpt lat="43.069535298272967" lon="11.701074298471212">
        <ele>355.8251953125</ele>
        <time>2004-11-06T12:22:02Z</time>
      </trkpt>
      <trkpt lat="43.069478217512369" lon="11.701268590986729">
        <ele>354.3831787109375</ele>
        <time>2004-11-06T12:22:04Z</time>
      </trkpt>
      <trkpt lat="43.069438906386495" lon="11.701431786641479">
        <ele>350.537841796875</ele>
        <time>2004-11-06T12:22:06Z</time>
      </trkpt>
      <trkpt lat="43.069454077631235" lon="11.701611746102571">
        <ele>349.0958251953125</ele>
        <time>2004-11-06T12:22:08Z</time>
      </trkpt>
      <trkpt lat="43.069516606628895" lon="11.701807547360659">
        <ele>347.6539306640625</ele>
        <time>2004-11-06T12:22:10Z</time>
      </trkpt>
      <trkpt lat="43.069606460630894" lon="11.702017933130264">
        <ele>345.7313232421875</ele>
        <time>2004-11-06T12:22:12Z</time>
      </trkpt>
      <trkpt lat="43.069649375975132" lon="11.702136788517237">
        <ele>344.2894287109375</ele>
        <time>2004-11-06T12:22:13Z</time>
      </trkpt>
      <trkpt lat="43.069679886102676" lon="11.702258996665478">
        <ele>342.8472900390625</ele>
        <time>2004-11-06T12:22:14Z</time>
      </trkpt>
      <trkpt lat="43.069698242470622" lon="11.702377265319228">
        <ele>340.9246826171875</ele>
        <time>2004-11-06T12:22:15Z</time>
      </trkpt>
      <trkpt lat="43.069692542776465" lon="11.702597541734576">
        <ele>339.0020751953125</ele>
        <time>2004-11-06T12:22:17Z</time>
      </trkpt>
      <trkpt lat="43.069646442309022" lon="11.702816979959607">
        <ele>337.56005859375</ele>
        <time>2004-11-06T12:22:19Z</time>
      </trkpt>
      <trkpt lat="43.069569915533066" lon="11.703044297173619">
        <ele>335.6373291015625</ele>
        <time>2004-11-06T12:22:21Z</time>
      </trkpt>
      <trkpt lat="43.069497495889664" lon="11.703243283554912">
        <ele>334.1954345703125</ele>
        <time>2004-11-06T12:22:23Z</time>
      </trkpt>
      <trkpt lat="43.069440918043256" lon="11.703372029587626">
        <ele>333.234130859375</ele>
        <time>2004-11-06T12:22:25Z</time>
      </trkpt>
      <trkpt lat="43.069414095953107" lon="11.703507900238037">
        <ele>332.2728271484375</ele>
        <time>2004-11-06T12:22:28Z</time>
      </trkpt>
      <trkpt lat="43.069416275247931" lon="11.703637903556228">
        <ele>333.234130859375</ele>
        <time>2004-11-06T12:22:34Z</time>
      </trkpt>
      <trkpt lat="43.069449551403522" lon="11.703743515536189">
        <ele>332.2728271484375</ele>
        <time>2004-11-06T12:22:41Z</time>
      </trkpt>
      <trkpt lat="43.069490538910031" lon="11.703853905200958">
        <ele>332.7535400390625</ele>
        <time>2004-11-06T12:22:47Z</time>
      </trkpt>
      <trkpt lat="43.069554576650262" lon="11.703972676768899">
        <ele>332.7535400390625</ele>
        <time>2004-11-06T12:23:09Z</time>
      </trkpt>
      <trkpt lat="43.069605203345418" lon="11.704081809148192">
        <ele>332.7535400390625</ele>
        <time>2004-11-06T12:23:15Z</time>
      </trkpt>
      <trkpt lat="43.069650968536735" lon="11.704197898507118">
        <ele>332.7535400390625</ele>
        <time>2004-11-06T12:23:20Z</time>
      </trkpt>
      <trkpt lat="43.069708719849586" lon="11.704301331192255">
        <ele>332.7535400390625</ele>
        <time>2004-11-06T12:23:24Z</time>
      </trkpt>
      <trkpt lat="43.069775272160769" lon="11.704403758049011">
        <ele>333.234130859375</ele>
        <time>2004-11-06T12:23:28Z</time>
      </trkpt>
      <trkpt lat="43.069847105070949" lon="11.704509621486068">
        <ele>333.234130859375</ele>
        <time>2004-11-06T12:23:32Z</time>
      </trkpt>
      <trkpt lat="43.069920781999826" lon="11.704620430245996">
        <ele>333.7147216796875</ele>
        <time>2004-11-06T12:23:36Z</time>
      </trkpt>
      <trkpt lat="43.069994207471609" lon="11.704732161015272">
        <ele>334.6761474609375</ele>
        <time>2004-11-06T12:23:40Z</time>
      </trkpt>
      <trkpt lat="43.070065872743726" lon="11.704841377213597">
        <ele>334.1954345703125</ele>
        <time>2004-11-06T12:23:44Z</time>
      </trkpt>
      <trkpt lat="43.07013938203454" lon="11.704951599240303">
        <ele>335.15673828125</ele>
        <time>2004-11-06T12:23:48Z</time>
      </trkpt>
      <trkpt lat="43.070215908810496" lon="11.705060731619596">
        <ele>335.15673828125</ele>
        <time>2004-11-06T12:23:52Z</time>
      </trkpt>
      <trkpt lat="43.070291681215167" lon="11.705171288922429">
        <ele>335.6373291015625</ele>
        <time>2004-11-06T12:23:56Z</time>
      </trkpt>
      <trkpt lat="43.070366866886616" lon="11.705285534262657">
        <ele>335.6373291015625</ele>
        <time>2004-11-06T12:24:00Z</time>
      </trkpt>
      <trkpt lat="43.07044867426157" lon="11.705398941412568">
        <ele>336.1181640625</ele>
        <time>2004-11-06T12:24:04Z</time>
      </trkpt>
      <trkpt lat="43.070521596819162" lon="11.705521233379841">
        <ele>336.598876953125</ele>
        <time>2004-11-06T12:24:08Z</time>
      </trkpt>
      <trkpt lat="43.070588149130344" lon="11.70563941821456">
        <ele>336.598876953125</ele>
        <time>2004-11-06T12:24:12Z</time>
      </trkpt>
      <trkpt lat="43.070652354508638" lon="11.705758944153786">
        <ele>337.56005859375</ele>
        <time>2004-11-06T12:24:16Z</time>
      </trkpt>
      <trkpt lat="43.07071496732533" lon="11.705878973007202">
        <ele>337.0794677734375</ele>
        <time>2004-11-06T12:24:20Z</time>
      </trkpt>
      <trkpt lat="43.070777161046863" lon="11.706008221954107">
        <ele>337.0794677734375</ele>
        <time>2004-11-06T12:24:24Z</time>
      </trkpt>
      <trkpt lat="43.070837259292603" lon="11.706138560548425">
        <ele>337.0794677734375</ele>
        <time>2004-11-06T12:24:28Z</time>
      </trkpt>
      <trkpt lat="43.070895597338676" lon="11.706267558038235">
        <ele>337.0794677734375</ele>
        <time>2004-11-06T12:24:32Z</time>
      </trkpt>
      <trkpt lat="43.070952594280243" lon="11.706400662660599">
        <ele>337.0794677734375</ele>
        <time>2004-11-06T12:24:36Z</time>
      </trkpt>
      <trkpt lat="43.071008333936334" lon="11.706537706777453">
        <ele>337.0794677734375</ele>
        <time>2004-11-06T12:24:40Z</time>
      </trkpt>
      <trkpt lat="43.071062313392758" lon="11.706673996523023">
        <ele>337.0794677734375</ele>
        <time>2004-11-06T12:24:44Z</time>
      </trkpt>
      <trkpt lat="43.071112018078566" lon="11.70680433511734">
        <ele>337.0794677734375</ele>
        <time>2004-11-06T12:24:48Z</time>
      </trkpt>
      <trkpt lat="43.071157867088914" lon="11.706936433911324">
        <ele>337.56005859375</ele>
        <time>2004-11-06T12:24:52Z</time>
      </trkpt>
      <trkpt lat="43.071201117709279" lon="11.707075573503971">
        <ele>338.040771484375</ele>
        <time>2004-11-06T12:24:56Z</time>
      </trkpt>
      <trkpt lat="43.071235818788409" lon="11.707212952896953">
        <ele>338.521484375</ele>
        <time>2004-11-06T12:25:00Z</time>
      </trkpt>
      <trkpt lat="43.071268675848842" lon="11.707348236814141">
        <ele>339.482666015625</ele>
        <time>2004-11-06T12:25:04Z</time>
      </trkpt>
      <trkpt lat="43.071295162662864" lon="11.707479748874903">
        <ele>339.96337890625</ele>
        <time>2004-11-06T12:25:08Z</time>
      </trkpt>
      <trkpt lat="43.071309244260192" lon="11.707622911781073">
        <ele>340.444091796875</ele>
        <time>2004-11-06T12:25:12Z</time>
      </trkpt>
      <trkpt lat="43.071327013894916" lon="11.707772947847843">
        <ele>340.444091796875</ele>
        <time>2004-11-06T12:25:16Z</time>
      </trkpt>
      <trkpt lat="43.071352746337652" lon="11.707920804619789">
        <ele>340.9246826171875</ele>
        <time>2004-11-06T12:25:20Z</time>
      </trkpt>
      <trkpt lat="43.071379903703928" lon="11.708069248124957">
        <ele>340.9246826171875</ele>
        <time>2004-11-06T12:25:24Z</time>
      </trkpt>
      <trkpt lat="43.071412174031138" lon="11.708221379667521">
        <ele>341.4052734375</ele>
        <time>2004-11-06T12:25:28Z</time>
      </trkpt>
      <trkpt lat="43.071450646966696" lon="11.708369068801403">
        <ele>341.885986328125</ele>
        <time>2004-11-06T12:25:32Z</time>
      </trkpt>
      <trkpt lat="43.07149289175868" lon="11.708517428487539">
        <ele>342.36669921875</ele>
        <time>2004-11-06T12:25:36Z</time>
      </trkpt>
      <trkpt lat="43.071538908407092" lon="11.708669140934944">
        <ele>342.8472900390625</ele>
        <time>2004-11-06T12:25:40Z</time>
      </trkpt>
      <trkpt lat="43.071582159027457" lon="11.708818590268493">
        <ele>342.8472900390625</ele>
        <time>2004-11-06T12:25:44Z</time>
      </trkpt>
      <trkpt lat="43.071616524830461" lon="11.708938870579004">
        <ele>343.80859375</ele>
        <time>2004-11-06T12:25:47Z</time>
      </trkpt>
      <trkpt lat="43.07165214791894" lon="11.709060911089182">
        <ele>343.80859375</ele>
        <time>2004-11-06T12:25:50Z</time>
      </trkpt>
      <trkpt lat="43.071686932817101" lon="11.709182532504201">
        <ele>343.327880859375</ele>
        <time>2004-11-06T12:25:53Z</time>
      </trkpt>
      <trkpt lat="43.071718867868185" lon="11.709305075928569">
        <ele>343.80859375</ele>
        <time>2004-11-06T12:25:56Z</time>
      </trkpt>
      <trkpt lat="43.071750132367015" lon="11.709421584382653">
        <ele>344.2894287109375</ele>
        <time>2004-11-06T12:25:59Z</time>
      </trkpt>
      <trkpt lat="43.071781396865845" lon="11.709542032331228">
        <ele>344.77001953125</ele>
        <time>2004-11-06T12:26:02Z</time>
      </trkpt>
      <trkpt lat="43.071812745183706" lon="11.70966574922204">
        <ele>344.77001953125</ele>
        <time>2004-11-06T12:26:05Z</time>
      </trkpt>
      <trkpt lat="43.071846272796392" lon="11.709789214655757">
        <ele>345.2506103515625</ele>
        <time>2004-11-06T12:26:08Z</time>
      </trkpt>
      <trkpt lat="43.071878207847476" lon="11.709906980395317">
        <ele>345.2506103515625</ele>
        <time>2004-11-06T12:26:11Z</time>
      </trkpt>
      <trkpt lat="43.071910561993718" lon="11.710027679800987">
        <ele>345.2506103515625</ele>
        <time>2004-11-06T12:26:14Z</time>
      </trkpt>
      <trkpt lat="43.071945011615753" lon="11.710149385035038">
        <ele>345.7313232421875</ele>
        <time>2004-11-06T12:26:17Z</time>
      </trkpt>
      <trkpt lat="43.071978958323598" lon="11.710271760821342">
        <ele>345.2506103515625</ele>
        <time>2004-11-06T12:26:20Z</time>
      </trkpt>
      <trkpt lat="43.072011647745967" lon="11.71039623208344">
        <ele>345.7313232421875</ele>
        <time>2004-11-06T12:26:23Z</time>
      </trkpt>
      <trkpt lat="43.072046851739287" lon="11.710517685860395">
        <ele>345.2506103515625</ele>
        <time>2004-11-06T12:26:26Z</time>
      </trkpt>
      <trkpt lat="43.072083899751306" lon="11.710657496005297">
        <ele>345.7313232421875</ele>
        <time>2004-11-06T12:26:30Z</time>
      </trkpt>
      <trkpt lat="43.072107285261154" lon="11.710768304765224">
        <ele>346.692626953125</ele>
        <time>2004-11-06T12:26:35Z</time>
      </trkpt>
      <trkpt lat="43.072088174521923" lon="11.710891770198941">
        <ele>347.6539306640625</ele>
        <time>2004-11-06T12:26:41Z</time>
      </trkpt>
      <trkpt lat="43.07205380871892" lon="11.711003668606281">
        <ele>346.692626953125</ele>
        <time>2004-11-06T12:26:46Z</time>
      </trkpt>
      <trkpt lat="43.072005277499557" lon="11.711129564791918">
        <ele>346.692626953125</ele>
        <time>2004-11-06T12:26:51Z</time>
      </trkpt>
      <trkpt lat="43.071960601955652" lon="11.711251437664032">
        <ele>346.2120361328125</ele>
        <time>2004-11-06T12:26:55Z</time>
      </trkpt>
      <trkpt lat="43.071906538680196" lon="11.711383955553174">
        <ele>346.2120361328125</ele>
        <time>2004-11-06T12:26:59Z</time>
      </trkpt>
      <trkpt lat="43.071852894499898" lon="11.711524100974202">
        <ele>346.2120361328125</ele>
        <time>2004-11-06T12:27:03Z</time>
      </trkpt>
      <trkpt lat="43.071804866194725" lon="11.711647734045982">
        <ele>345.7313232421875</ele>
        <time>2004-11-06T12:27:06Z</time>
      </trkpt>
      <trkpt lat="43.071749294176698" lon="11.711771786212921">
        <ele>345.7313232421875</ele>
        <time>2004-11-06T12:27:09Z</time>
      </trkpt>
      <trkpt lat="43.071695566177368" lon="11.711890306323767">
        <ele>345.2506103515625</ele>
        <time>2004-11-06T12:27:12Z</time>
      </trkpt>
      <trkpt lat="43.071635719388723" lon="11.712014693766832">
        <ele>345.2506103515625</ele>
        <time>2004-11-06T12:27:15Z</time>
      </trkpt>
      <trkpt lat="43.071572938933969" lon="11.712150480598211">
        <ele>345.2506103515625</ele>
        <time>2004-11-06T12:27:18Z</time>
      </trkpt>
      <trkpt lat="43.071504374966025" lon="11.712291296571493">
        <ele>344.77001953125</ele>
        <time>2004-11-06T12:27:21Z</time>
      </trkpt>
      <trkpt lat="43.071411335840821" lon="11.712398836389184">
        <ele>344.2894287109375</ele>
        <time>2004-11-06T12:27:24Z</time>
      </trkpt>
      <trkpt lat="43.071272112429142" lon="11.712429178878665">
        <ele>344.77001953125</ele>
        <time>2004-11-06T12:27:27Z</time>
      </trkpt>
      <trkpt lat="43.071140935644507" lon="11.712419707328081">
        <ele>343.80859375</ele>
        <time>2004-11-06T12:27:30Z</time>
      </trkpt>
      <trkpt lat="43.071026019752026" lon="11.712391627952456">
        <ele>344.2894287109375</ele>
        <time>2004-11-06T12:27:33Z</time>
      </trkpt>
      <trkpt lat="43.070915462449193" lon="11.712346617132425">
        <ele>344.2894287109375</ele>
        <time>2004-11-06T12:27:36Z</time>
      </trkpt>
      <trkpt lat="43.070817897096276" lon="11.712298924103379">
        <ele>344.2894287109375</ele>
        <time>2004-11-06T12:27:39Z</time>
      </trkpt>
      <trkpt lat="43.070713290944695" lon="11.712245782837272">
        <ele>344.2894287109375</ele>
        <time>2004-11-06T12:27:42Z</time>
      </trkpt>
      <trkpt lat="43.070615138858557" lon="11.712196497246623">
        <ele>344.2894287109375</ele>
        <time>2004-11-06T12:27:45Z</time>
      </trkpt>
      <trkpt lat="43.070518495514989" lon="11.712147379294038">
        <ele>344.77001953125</ele>
        <time>2004-11-06T12:27:48Z</time>
      </trkpt>
      <trkpt lat="43.070421852171421" lon="11.712118461728096">
        <ele>344.77001953125</ele>
        <time>2004-11-06T12:27:51Z</time>
      </trkpt>
      <trkpt lat="43.070330992341042" lon="11.712142769247293">
        <ele>344.77001953125</ele>
        <time>2004-11-06T12:27:54Z</time>
      </trkpt>
      <trkpt lat="43.0702502746135" lon="11.712227091193199">
        <ele>345.2506103515625</ele>
        <time>2004-11-06T12:27:58Z</time>
      </trkpt>
      <trkpt lat="43.070194199681282" lon="11.712320717051625">
        <ele>345.7313232421875</ele>
        <time>2004-11-06T12:28:02Z</time>
      </trkpt>
      <trkpt lat="43.070148434489965" lon="11.712463293224573">
        <ele>346.692626953125</ele>
        <time>2004-11-06T12:28:07Z</time>
      </trkpt>
      <trkpt lat="43.0701310839504" lon="11.712601259350777">
        <ele>347.6539306640625</ele>
        <time>2004-11-06T12:28:11Z</time>
      </trkpt>
      <trkpt lat="43.070136867463589" lon="11.712748277932405">
        <ele>347.1732177734375</ele>
        <time>2004-11-06T12:28:15Z</time>
      </trkpt>
      <trkpt lat="43.070147261023521" lon="11.712897978723049">
        <ele>347.6539306640625</ele>
        <time>2004-11-06T12:28:19Z</time>
      </trkpt>
      <trkpt lat="43.070155559107661" lon="11.713044326752424">
        <ele>348.615234375</ele>
        <time>2004-11-06T12:28:23Z</time>
      </trkpt>
      <trkpt lat="43.070168886333704" lon="11.713196542114019">
        <ele>350.0572509765625</ele>
        <time>2004-11-06T12:28:27Z</time>
      </trkpt>
      <trkpt lat="43.070183303207159" lon="11.713321264833212">
        <ele>350.0572509765625</ele>
        <time>2004-11-06T12:28:30Z</time>
      </trkpt>
      <trkpt lat="43.070201072841883" lon="11.713465182110667">
        <ele>350.537841796875</ele>
        <time>2004-11-06T12:28:34Z</time>
      </trkpt>
      <trkpt lat="43.070210544392467" lon="11.713595185428858">
        <ele>350.537841796875</ele>
        <time>2004-11-06T12:28:38Z</time>
      </trkpt>
      <trkpt lat="43.070225212723017" lon="11.713746227324009">
        <ele>351.4991455078125</ele>
        <time>2004-11-06T12:28:43Z</time>
      </trkpt>
      <trkpt lat="43.07024491019547" lon="11.713866172358394">
        <ele>352.4605712890625</ele>
        <time>2004-11-06T12:28:47Z</time>
      </trkpt>
      <trkpt lat="43.070254130288959" lon="11.713990140706301">
        <ele>352.941162109375</ele>
        <time>2004-11-06T12:28:51Z</time>
      </trkpt>
      <trkpt lat="43.070254046469927" lon="11.714118719100952">
        <ele>352.941162109375</ele>
        <time>2004-11-06T12:28:55Z</time>
      </trkpt>
      <trkpt lat="43.07025664485991" lon="11.714248387143016">
        <ele>353.421875</ele>
        <time>2004-11-06T12:28:59Z</time>
      </trkpt>
      <trkpt lat="43.070244574919343" lon="11.714372439309955">
        <ele>353.421875</ele>
        <time>2004-11-06T12:29:03Z</time>
      </trkpt>
      <trkpt lat="43.070225799456239" lon="11.714494731277227">
        <ele>353.902587890625</ele>
        <time>2004-11-06T12:29:07Z</time>
      </trkpt>
      <trkpt lat="43.07020727545023" lon="11.714613251388073">
        <ele>354.86376953125</ele>
        <time>2004-11-06T12:29:12Z</time>
      </trkpt>
      <trkpt lat="43.070192020386457" lon="11.714737303555012">
        <ele>355.344482421875</ele>
        <time>2004-11-06T12:29:20Z</time>
      </trkpt>
      <trkpt lat="43.070195121690631" lon="11.71487694606185">
        <ele>356.3057861328125</ele>
        <time>2004-11-06T12:29:27Z</time>
      </trkpt>
      <trkpt lat="43.070230660960078" lon="11.715017426759005">
        <ele>356.786376953125</ele>
        <time>2004-11-06T12:29:33Z</time>
      </trkpt>
      <trkpt lat="43.070284640416503" lon="11.715134773403406">
        <ele>357.747802734375</ele>
        <time>2004-11-06T12:29:39Z</time>
      </trkpt>
      <trkpt lat="43.070354210212827" lon="11.715222029015422">
        <ele>359.67041015625</ele>
        <time>2004-11-06T12:29:45Z</time>
      </trkpt>
      <trkpt lat="43.070438532158732" lon="11.715306602418423">
        <ele>359.67041015625</ele>
        <time>2004-11-06T12:29:51Z</time>
      </trkpt>
      <trkpt lat="43.070520255714655" lon="11.715386901050806">
        <ele>361.1124267578125</ele>
        <time>2004-11-06T12:29:57Z</time>
      </trkpt>
      <trkpt lat="43.070584293454885" lon="11.715476252138615">
        <ele>362.5543212890625</ele>
        <time>2004-11-06T12:30:03Z</time>
      </trkpt>
      <trkpt lat="43.0706319026649" lon="11.715589156374335">
        <ele>363.996337890625</ele>
        <time>2004-11-06T12:30:09Z</time>
      </trkpt>
      <trkpt lat="43.070653192698956" lon="11.715717734768987">
        <ele>364.4769287109375</ele>
        <time>2004-11-06T12:30:15Z</time>
      </trkpt>
      <trkpt lat="43.070653947070241" lon="11.715848995372653">
        <ele>365.9189453125</ele>
        <time>2004-11-06T12:30:21Z</time>
      </trkpt>
      <trkpt lat="43.070638692006469" lon="11.715977741405368">
        <ele>366.8802490234375</ele>
        <time>2004-11-06T12:30:27Z</time>
      </trkpt>
      <trkpt lat="43.070610361173749" lon="11.716102547943592">
        <ele>368.802978515625</ele>
        <time>2004-11-06T12:30:33Z</time>
      </trkpt>
      <trkpt lat="43.070577755570412" lon="11.716229533776641">
        <ele>370.244873046875</ele>
        <time>2004-11-06T12:30:39Z</time>
      </trkpt>
      <trkpt lat="43.070546071976423" lon="11.716341767460108">
        <ele>371.206298828125</ele>
        <time>2004-11-06T12:30:45Z</time>
      </trkpt>
      <trkpt lat="43.070513550192118" lon="11.716481745243073">
        <ele>372.16748046875</ele>
        <time>2004-11-06T12:30:52Z</time>
      </trkpt>
      <trkpt lat="43.070483123883605" lon="11.716596158221364">
        <ele>373.12890625</ele>
        <time>2004-11-06T12:30:58Z</time>
      </trkpt>
      <trkpt lat="43.070456385612488" lon="11.716716773808002">
        <ele>374.57080078125</ele>
        <time>2004-11-06T12:31:04Z</time>
      </trkpt>
      <trkpt lat="43.070414727553725" lon="11.716836970299482">
        <ele>375.5321044921875</ele>
        <time>2004-11-06T12:31:11Z</time>
      </trkpt>
      <trkpt lat="43.070369716733694" lon="11.716961525380611">
        <ele>376.9742431640625</ele>
        <time>2004-11-06T12:31:18Z</time>
      </trkpt>
      <trkpt lat="43.070332501083612" lon="11.71708507463336">
        <ele>378.4161376953125</ele>
        <time>2004-11-06T12:31:25Z</time>
      </trkpt>
      <trkpt lat="43.070285310968757" lon="11.71719211153686">
        <ele>379.8580322265625</ele>
        <time>2004-11-06T12:31:32Z</time>
      </trkpt>
      <trkpt lat="43.070233426988125" lon="11.717290598899126">
        <ele>380.8194580078125</ele>
        <time>2004-11-06T12:31:39Z</time>
      </trkpt>
      <trkpt lat="43.070186320692301" lon="11.717401910573244">
        <ele>382.7420654296875</ele>
        <time>2004-11-06T12:31:47Z</time>
      </trkpt>
      <trkpt lat="43.070140639320016" lon="11.71751799993217">
        <ele>384.664794921875</ele>
        <time>2004-11-06T12:31:55Z</time>
      </trkpt>
      <trkpt lat="43.070095125585794" lon="11.717625875025988">
        <ele>386.58740234375</ele>
        <time>2004-11-06T12:32:03Z</time>
      </trkpt>
      <trkpt lat="43.070059502497315" lon="11.717749843373895">
        <ele>387.548583984375</ele>
        <time>2004-11-06T12:32:12Z</time>
      </trkpt>
      <trkpt lat="43.070019520819187" lon="11.717859394848347">
        <ele>388.510009765625</ele>
        <time>2004-11-06T12:32:20Z</time>
      </trkpt>
      <trkpt lat="43.069982640445232" lon="11.717976154759526">
        <ele>390.4326171875</ele>
        <time>2004-11-06T12:32:28Z</time>
      </trkpt>
      <trkpt lat="43.069957327097654" lon="11.718110013753176">
        <ele>392.8359375</ele>
        <time>2004-11-06T12:32:36Z</time>
      </trkpt>
      <trkpt lat="43.069927068427205" lon="11.718230880796909">
        <ele>393.7972412109375</ele>
        <time>2004-11-06T12:32:44Z</time>
      </trkpt>
      <trkpt lat="43.069912400096655" lon="11.718363063409925">
        <ele>395.7198486328125</ele>
        <time>2004-11-06T12:32:52Z</time>
      </trkpt>
      <trkpt lat="43.069885829463601" lon="11.718489211052656">
        <ele>396.68115234375</ele>
        <time>2004-11-06T12:33:00Z</time>
      </trkpt>
      <trkpt lat="43.069861521944404" lon="11.718626422807574">
        <ele>397.6424560546875</ele>
        <time>2004-11-06T12:33:08Z</time>
      </trkpt>
      <trkpt lat="43.069840651005507" lon="11.718748463317752">
        <ele>398.1231689453125</ele>
        <time>2004-11-06T12:33:16Z</time>
      </trkpt>
      <trkpt lat="43.069814164191484" lon="11.718875281512737">
        <ele>400.0458984375</ele>
        <time>2004-11-06T12:33:24Z</time>
      </trkpt>
      <trkpt lat="43.069780804216862" lon="11.718998914584517">
        <ele>401.007080078125</ele>
        <time>2004-11-06T12:33:32Z</time>
      </trkpt>
      <trkpt lat="43.069756245240569" lon="11.719122044742107">
        <ele>402.4490966796875</ele>
        <time>2004-11-06T12:33:40Z</time>
      </trkpt>
      <trkpt lat="43.069711150601506" lon="11.719229836016893">
        <ele>403.89111328125</ele>
        <time>2004-11-06T12:33:48Z</time>
      </trkpt>
      <trkpt lat="43.06963462382555" lon="11.719317678362131">
        <ele>404.852294921875</ele>
        <time>2004-11-06T12:33:56Z</time>
      </trkpt>
      <trkpt lat="43.069551223888993" lon="11.719391690567136">
        <ele>406.77490234375</ele>
        <time>2004-11-06T12:34:04Z</time>
      </trkpt>
      <trkpt lat="43.069459777325392" lon="11.719440724700689">
        <ele>408.217041015625</ele>
        <time>2004-11-06T12:34:12Z</time>
      </trkpt>
      <trkpt lat="43.069374114274979" lon="11.719492943957448">
        <ele>409.1783447265625</ele>
        <time>2004-11-06T12:34:20Z</time>
      </trkpt>
      <trkpt lat="43.069289540871978" lon="11.719549186527729">
        <ele>411.1009521484375</ele>
        <time>2004-11-06T12:34:28Z</time>
      </trkpt>
      <trkpt lat="43.069210583344102" lon="11.719604590907693">
        <ele>413.0235595703125</ele>
        <time>2004-11-06T12:34:36Z</time>
      </trkpt>
      <trkpt lat="43.069119472056627" lon="11.719664102420211">
        <ele>413.98486328125</ele>
        <time>2004-11-06T12:34:44Z</time>
      </trkpt>
      <trkpt lat="43.069032048806548" lon="11.719725290313363">
        <ele>415.4268798828125</ele>
        <time>2004-11-06T12:34:52Z</time>
      </trkpt>
      <trkpt lat="43.068948481231928" lon="11.719783628359437">
        <ele>415.907470703125</ele>
        <time>2004-11-06T12:34:59Z</time>
      </trkpt>
      <trkpt lat="43.068857872858644" lon="11.719852359965444">
        <ele>417.349609375</ele>
        <time>2004-11-06T12:35:07Z</time>
      </trkpt>
      <trkpt lat="43.068771371617913" lon="11.719920756295323">
        <ele>417.8302001953125</ele>
        <time>2004-11-06T12:35:15Z</time>
      </trkpt>
      <trkpt lat="43.06868621148169" lon="11.719986638054252">
        <ele>418.79150390625</ele>
        <time>2004-11-06T12:35:23Z</time>
      </trkpt>
      <trkpt lat="43.068595100194216" lon="11.720046568661928">
        <ele>420.2333984375</ele>
        <time>2004-11-06T12:35:31Z</time>
      </trkpt>
      <trkpt lat="43.068507928401232" lon="11.720110103487968">
        <ele>421.19482421875</ele>
        <time>2004-11-06T12:35:39Z</time>
      </trkpt>
      <trkpt lat="43.06842477992177" lon="11.720173470675945">
        <ele>422.63671875</ele>
        <time>2004-11-06T12:35:47Z</time>
      </trkpt>
      <trkpt lat="43.068342721089721" lon="11.720245806500316">
        <ele>424.5594482421875</ele>
        <time>2004-11-06T12:35:55Z</time>
      </trkpt>
      <trkpt lat="43.068272732198238" lon="11.720332391560078">
        <ele>426.0013427734375</ele>
        <time>2004-11-06T12:36:03Z</time>
      </trkpt>
      <trkpt lat="43.06820341385901" lon="11.720425263047218">
        <ele>427.9239501953125</ele>
        <time>2004-11-06T12:36:11Z</time>
      </trkpt>
      <trkpt lat="43.068132502958179" lon="11.720521990209818">
        <ele>429.365966796875</ele>
        <time>2004-11-06T12:36:19Z</time>
      </trkpt>
      <trkpt lat="43.068067878484726" lon="11.720615280792117">
        <ele>430.3272705078125</ele>
        <time>2004-11-06T12:36:27Z</time>
      </trkpt>
      <trkpt lat="43.068002751097083" lon="11.720711840316653">
        <ele>432.730712890625</ele>
        <time>2004-11-06T12:36:36Z</time>
      </trkpt>
      <trkpt lat="43.067931002005935" lon="11.720804376527667">
        <ele>433.69189453125</ele>
        <time>2004-11-06T12:36:45Z</time>
      </trkpt>
      <trkpt lat="43.067874675616622" lon="11.720903869718313">
        <ele>435.1339111328125</ele>
        <time>2004-11-06T12:36:53Z</time>
      </trkpt>
      <trkpt lat="43.067810386419296" lon="11.721003279089928">
        <ele>436.09521484375</ele>
        <time>2004-11-06T12:37:01Z</time>
      </trkpt>
      <trkpt lat="43.06773679330945" lon="11.721093384549022">
        <ele>437.537109375</ele>
        <time>2004-11-06T12:37:09Z</time>
      </trkpt>
      <trkpt lat="43.067666301503778" lon="11.721194302663207">
        <ele>439.9404296875</ele>
        <time>2004-11-06T12:37:17Z</time>
      </trkpt>
      <trkpt lat="43.067604778334498" lon="11.721282731741667">
        <ele>440.90185546875</ele>
        <time>2004-11-06T12:37:24Z</time>
      </trkpt>
      <trkpt lat="43.067512325942516" lon="11.721336292102933">
        <ele>441.8631591796875</ele>
        <time>2004-11-06T12:37:32Z</time>
      </trkpt>
      <trkpt lat="43.067422304302454" lon="11.721374681219459">
        <ele>443.3050537109375</ele>
        <time>2004-11-06T12:37:40Z</time>
      </trkpt>
      <trkpt lat="43.067327756434679" lon="11.721388511359692">
        <ele>443.7857666015625</ele>
        <time>2004-11-06T12:37:47Z</time>
      </trkpt>
      <trkpt lat="43.067236477509141" lon="11.721403012052178">
        <ele>444.7470703125</ele>
        <time>2004-11-06T12:37:54Z</time>
      </trkpt>
      <trkpt lat="43.067141091451049" lon="11.721422122791409">
        <ele>446.1890869140625</ele>
        <time>2004-11-06T12:38:01Z</time>
      </trkpt>
      <trkpt lat="43.067041179165244" lon="11.721438970416784">
        <ele>446.1890869140625</ele>
        <time>2004-11-06T12:38:08Z</time>
      </trkpt>
      <trkpt lat="43.066939171403646" lon="11.721451291814446">
        <ele>447.6309814453125</ele>
        <time>2004-11-06T12:38:15Z</time>
      </trkpt>
      <trkpt lat="43.066848646849394" lon="11.721460176631808">
        <ele>448.11181640625</ele>
        <time>2004-11-06T12:38:22Z</time>
      </trkpt>
      <trkpt lat="43.066759295761585" lon="11.721472749486566">
        <ele>449.5537109375</ele>
        <time>2004-11-06T12:38:29Z</time>
      </trkpt>
      <trkpt lat="43.066671872511506" lon="11.721485489979386">
        <ele>450.99560546875</ele>
        <time>2004-11-06T12:38:36Z</time>
      </trkpt>
      <trkpt lat="43.066582940518856" lon="11.721510216593742">
        <ele>451.95703125</ele>
        <time>2004-11-06T12:38:43Z</time>
      </trkpt>
      <trkpt lat="43.066490823403001" lon="11.721561765298247">
        <ele>452.918212890625</ele>
        <time>2004-11-06T12:38:51Z</time>
      </trkpt>
      <trkpt lat="43.066404322162271" lon="11.721597807481885">
        <ele>454.3602294921875</ele>
        <time>2004-11-06T12:38:57Z</time>
      </trkpt>
      <trkpt lat="43.06631145067513" lon="11.721646590158343">
        <ele>454.8408203125</ele>
        <time>2004-11-06T12:39:03Z</time>
      </trkpt>
      <trkpt lat="43.066225284710526" lon="11.721688751131296">
        <ele>456.282958984375</ele>
        <time>2004-11-06T12:39:09Z</time>
      </trkpt>
      <trkpt lat="43.06613065302372" lon="11.721740048378706">
        <ele>456.282958984375</ele>
        <time>2004-11-06T12:39:16Z</time>
      </trkpt>
      <trkpt lat="43.066041385754943" lon="11.721781119704247">
        <ele>457.2442626953125</ele>
        <time>2004-11-06T12:39:21Z</time>
      </trkpt>
      <trkpt lat="43.065952202305198" lon="11.721843564882874">
        <ele>458.20556640625</ele>
        <time>2004-11-06T12:39:26Z</time>
      </trkpt>
      <trkpt lat="43.065854469314218" lon="11.721908776089549">
        <ele>458.20556640625</ele>
        <time>2004-11-06T12:39:31Z</time>
      </trkpt>
      <trkpt lat="43.065760256722569" lon="11.721964348107576">
        <ele>459.1668701171875</ele>
        <time>2004-11-06T12:39:36Z</time>
      </trkpt>
      <trkpt lat="43.065673252567649" lon="11.722016735002398">
        <ele>460.6087646484375</ele>
        <time>2004-11-06T12:39:41Z</time>
      </trkpt>
      <trkpt lat="43.065575854852796" lon="11.722090914845467">
        <ele>460.6087646484375</ele>
        <time>2004-11-06T12:39:47Z</time>
      </trkpt>
      <trkpt lat="43.065474350005388" lon="11.722145229578018">
        <ele>461.5701904296875</ele>
        <time>2004-11-06T12:39:53Z</time>
      </trkpt>
      <trkpt lat="43.065389776602387" lon="11.72220348380506">
        <ele>462.05078125</ele>
        <time>2004-11-06T12:39:59Z</time>
      </trkpt>
      <trkpt lat="43.065304197371006" lon="11.72225528396666">
        <ele>463.0120849609375</ele>
        <time>2004-11-06T12:40:05Z</time>
      </trkpt>
      <trkpt lat="43.06521057151258" lon="11.722302809357643">
        <ele>463.973388671875</ele>
        <time>2004-11-06T12:40:11Z</time>
      </trkpt>
      <trkpt lat="43.06512700393796" lon="11.722360476851463">
        <ele>464.4541015625</ele>
        <time>2004-11-06T12:40:17Z</time>
      </trkpt>
      <trkpt lat="43.065043604001403" lon="11.722413701936603">
        <ele>465.8961181640625</ele>
        <time>2004-11-06T12:40:23Z</time>
      </trkpt>
    </trkseg>
  </trk>

</gpx>
